[[{"header":{"parameterUnit":"m.s-1","parameterCategory":1,"la1":31.0,"la2":29.5877,"lo1":-88.7671,"lo2":-86.6584,"dy":0.0162,"dx":0.0185,"nx":115,"ny":88,"refTime":"2023-04-04T00:00:00:Z","depth":0,"parameterNumber":2,"parameterNumberName":"U-component_of_WINDS"},"data":[0.0,0.0,0.0,0.0,0.0,0.0,0.0,0.0,0.0,0.0,0.0,0.0,0.0,0.0,0.0,0.0,0.0,0.0,0.0,0.0,0.0,0.0,0.0,0.0,0.0,0.0,0.0,0.0,0.0,0.0,0.0,0.0,0.0,0.0,0.0,0.0,0.0,0.0,0.0,0.0,0.0,0.0,0.0,0.0,0.0,0.0,0.0,0.0,0.0,0.0,0.0,0.0,0.0,0.0,0.0,0.0,0.0,0.0,0.0,0.0,0.0,0.0,0.0,0.0,0.0,0.0,0.0,0.0,0.0,0.0,0.0,0.0,0.0,0.0,0.0,0.0,0.0,0.0,0.0,0.0,0.0,0.0,0.0,0.0,0.0,0.0,0.0,0.0,0.0,0.0,0.0,0.0,0.0,0.0,0.0,0.0,0.0,0.0,0.0,0.0,0.0,0.0,0.0,0.0,0.0,0.0,0.0,0.0,0.0,0.0,0.0,0.0,0.0,0.0,0.0,0.0,0.0,0.0,0.0,0.0,0.0,0.0,0.0,0.0,0.0,0.0,0.0,0.0,0.0,0.0,0.0,0.0,0.0,0.0,0.0,0.0,0.0,0.0,0.0,0.0,0.0,0.0,0.0,0.0,0.0,0.0,0.0,0.0,0.0,0.0,0.0,0.0,0.0,0.0,0.0,0.0,0.0,0.0,0.0,0.0,0.0,0.0,0.0,0.0,0.0,0.0,0.0,0.0,0.0,0.0,0.0,0.0,0.0,0.0,0.0,0.0,0.0,0.0,0.0,0.0,0.0,0.0,0.0,0.0,0.0,0.0,0.0,0.0,0.0,0.0,0.0,0.0,0.0,0.0,0.0,0.0,0.0,0.0,0.0,0.0,0.0,0.0,0.0,0.0,0.0,0.0,0.0,0.0,0.0,0.0,0.0,0.0,0.0,0.0,0.0,0.0,0.0,0.0,0.0,0.0,0.0,0.0,0.0,0.0,0.0,0.0,0.0,0.0,0.0,0.0,0.0,0.0,0.0,0.0,0.0,0.0,0.0,0.0,0.0,0.0,0.0,0.0,0.0,0.0,0.0,0.0,0.0,0.0,0.0,0.0,0.0,0.0,0.0,0.0,0.0,0.0,0.0,0.0,0.0,0.0,0.0,0.0,0.0,0.0,0.0,0.0,0.0,0.0,0.0,0.0,0.0,0.0,0.0,0.0,0.0,0.0,0.0,0.0,0.0,0.0,0.0,0.0,0.0,0.0,0.0,0.0,0.0,0.0,0.0,0.0,0.0,0.0,0.0,0.0,0.0,0.0,0.0,0.0,0.0,0.0,0.0,0.0,0.0,0.0,0.0,0.0,0.0,0.0,0.0,0.0,0.0,0.0,0.0,0.0,0.0,0.0,0.0,0.0,0.0,0.0,0.0,0.0,0.0,0.0,0.0,0.0,0.0,0.0,0.0,0.0,0.0,0.0,0.0,0.0,0.0,0.0,0.0,0.0,0.0,0.0,0.0,0.0,0.0,0.0,0.0,0.0,0.0,0.0,0.0,0.0,0.0,0.0,0.0,0.0,0.0,0.0,0.0,0.0,0.0,0.0,0.0,0.0,0.0,0.0,0.0,0.0,0.0,0.0,0.0,0.0,0.0,0.0,0.0,0.0,0.0,0.0,0.0,0.0,0.0,0.0,0.0,0.0,0.0,0.0,0.0,0.0,0.0,0.0,0.0,0.0,0.0,0.0,0.0,0.0,0.0,0.0,0.0,0.0,0.0,0.0,0.0,0.0,0.0,0.0,0.0,0.0,0.0,0.0,0.0,0.0,0.0,0.0,0.0,0.0,0.0,0.0,0.0,0.0,0.0,0.0,0.0,0.0,0.0,0.0,0.0,0.0,0.0,0.0,0.0,0.0,0.0,0.0,0.0,0.0,0.0,0.0,0.0,0.0,0.0,0.0,0.0,0.0,0.0,0.0,0.0,0.0,0.0,0.0,0.0,0.0,0.0,0.0,0.0,0.0,0.0,0.0,0.0,0.0,0.0,0.0,0.0,0.0,0.0,0.0,0.0,0.0,0.0,0.0,0.0,0.0,0.0,0.0,0.0,0.0,0.0,0.0,0.0,0.0,0.0,0.0,0.0,0.0,0.0,0.0,0.0,0.0,0.0,0.0,0.0,0.0,0.0,0.0,0.0,0.0,0.0,0.0,0.0,0.0,0.0,0.0,0.0,0.0,0.0,0.0,0.0,0.0,0.0,0.0,0.0,0.0,0.0,0.0,0.0,0.0,0.0,0.0,0.0,0.0,0.0,0.0,0.0,0.0,0.0,0.0,0.0,0.0,0.0,0.0,0.0,0.0,0.0,0.0,0.0,0.0,0.0,0.0,0.0,0.0,0.0,0.0,0.0,0.0,0.0,0.0,0.0,0.0,0.0,0.0,0.0,0.0,0.0,0.0,0.0,0.0,0.0,0.0,0.0,0.0,0.0,0.0,0.0,0.0,0.0,0.0,0.0,0.0,0.0,0.0,0.0,0.0,0.0,0.0,0.0,0.0,0.0,0.0,0.0,0.0,0.0,0.0,0.0,0.0,0.0,0.0,0.0,0.0,0.0,0.0,0.0,0.0,0.0,0.0,0.0,0.0,0.0,0.0,0.0,0.0,0.0,0.0,0.0,0.0,0.0,0.0,0.0,0.0,0.0,0.0,0.0,0.0,0.0,0.0,0.0,0.0,0.0,0.0,0.0,0.0,0.0,0.0,0.0,0.0,0.0,0.0,0.0,0.0,0.0,0.0,0.0,0.0,0.0,0.0,0.0,0.0,0.0,0.0,0.0,0.0,0.0,0.0,0.0,0.0,0.0,0.0,0.0,0.0,0.0,0.0,0.0,0.0,0.0,0.0,0.0,0.0,0.0,0.0,0.0,0.0,0.0,0.0,0.0,0.0,0.0,0.0,0.0,0.0,0.0,0.0,0.0,0.0,0.0,0.0,0.0,0.0,0.0,0.0,0.0,0.0,0.0,0.0,0.0,0.0,0.0,0.0,0.0,0.0,0.0,0.0,0.0,0.0,0.0,0.0,0.0,0.0,0.0,0.0,0.0,0.0,0.0,0.0,0.0,0.0,0.0,0.0,0.0,0.0,0.0,0.0,0.0,0.0,0.0,0.0,0.0,0.0,0.0,0.0,0.0,0.0,0.0,0.0,0.0,0.0,0.0,0.0,0.0,0.0,0.0,0.0,0.0,0.0,0.0,0.0,0.0,0.0,0.0,0.0,0.0,0.0,0.0,0.0,0.0,0.0,0.0,0.0,0.0,0.0,0.0,0.0,0.0,0.0,0.0,0.0,0.0,0.0,0.0,0.0,0.0,0.0,0.0,0.0,0.0,0.0,0.0,0.0,0.0,0.0,0.0,0.0,0.0,0.0,0.0,0.0,0.0,0.0,0.0,0.0,0.0,0.0,0.0,0.0,0.0,0.0,0.0,0.0,0.0,0.0,0.0,0.0,0.0,0.0,0.0,0.0,0.0,0.0,0.0,0.0,0.0,0.0,0.0,0.0,0.0,0.0,0.0,0.0,0.0,0.0,0.0,0.0,0.0,0.0,0.0,0.0,0.0,0.0,0.0,0.0,0.0,0.0,0.0,0.0,0.0,0.0,0.0,0.0,0.0,0.0,0.0,0.0,0.0,0.0,0.0,0.0,0.0,0.0,0.0,0.0,0.0,0.0,0.0,0.0,0.0,0.0,0.0,0.0,0.0,0.0,0.0,0.0,0.0,0.0,0.0,0.0,0.0,0.0,0.0,0.0,0.0,0.0,0.0,0.0,0.0,0.0,0.0,0.0,0.0,0.0,0.0,0.0,0.0,0.0,0.0,0.0,0.0,0.0,0.0,0.0,0.0,0.0,0.0,0.0,0.0,0.0,0.0,0.0,0.0,0.0,0.0,0.0,0.0,0.0,0.0,0.0,0.0,0.0,0.0,0.0,0.0,0.0,0.0,0.0,0.0,0.0,0.0,0.0,0.0,0.0,0.0,0.0,0.0,0.0,0.0,0.0,0.0,0.0,0.0,0.0,0.0,0.0,0.0,0.0,0.0,0.0,0.0,0.0,0.0,0.0,0.0,0.0,0.0,0.0,0.0,0.0,0.0,0.0,0.0,0.0,0.0,0.0,0.0,0.0,0.0,0.0,0.0,0.0,0.0,0.0,0.0,0.0,0.0,0.0,0.0,0.0,0.0,0.0,0.0,0.0,0.0,0.0,0.0,0.0,0.0,0.0,0.0,0.0,0.0,0.0,-3.6052,0.0,0.0,0.0,0.0,0.0,0.0,0.0,0.0,0.0,0.0,0.0,0.0,0.0,0.0,0.0,0.0,0.0,0.0,0.0,0.0,0.0,0.0,0.0,0.0,0.0,0.0,0.0,0.0,0.0,0.0,0.0,0.0,0.0,0.0,0.0,0.0,0.0,0.0,0.0,0.0,0.0,0.0,0.0,0.0,0.0,0.0,0.0,0.0,0.0,0.0,0.0,0.0,0.0,0.0,0.0,0.0,0.0,0.0,0.0,0.0,0.0,0.0,0.0,0.0,0.0,0.0,0.0,0.0,0.0,0.0,0.0,0.0,0.0,0.0,0.0,0.0,0.0,0.0,0.0,0.0,0.0,0.0,0.0,0.0,0.0,0.0,0.0,0.0,0.0,0.0,0.0,0.0,0.0,0.0,0.0,0.0,0.0,0.0,0.0,0.0,0.0,0.0,0.0,0.0,0.0,0.0,0.0,0.0,0.0,0.0,-3.833,-3.7953,-3.7514,-3.7109,-3.6718,0.0,0.0,0.0,0.0,0.0,0.0,0.0,0.0,0.0,0.0,0.0,0.0,0.0,0.0,0.0,0.0,0.0,0.0,0.0,0.0,0.0,0.0,0.0,0.0,0.0,0.0,0.0,0.0,0.0,0.0,0.0,0.0,0.0,0.0,0.0,0.0,0.0,0.0,0.0,0.0,0.0,0.0,0.0,0.0,0.0,0.0,0.0,0.0,0.0,0.0,0.0,0.0,0.0,0.0,0.0,0.0,0.0,0.0,0.0,0.0,0.0,0.0,0.0,0.0,0.0,0.0,0.0,0.0,0.0,0.0,0.0,0.0,0.0,0.0,0.0,0.0,0.0,0.0,0.0,0.0,0.0,0.0,0.0,0.0,0.0,0.0,0.0,0.0,0.0,0.0,0.0,0.0,0.0,0.0,0.0,0.0,0.0,0.0,0.0,0.0,0.0,0.0,0.0,0.0,0.0,0.0,0.0,0.0,0.0,0.0,0.0,0.0,-3.7994,-3.7398,-3.7012,0.0,0.0,0.0,0.0,0.0,0.0,0.0,0.0,0.0,0.0,0.0,0.0,0.0,0.0,0.0,0.0,0.0,0.0,0.0,0.0,0.0,0.0,0.0,0.0,0.0,0.0,0.0,0.0,0.0,0.0,0.0,0.0,0.0,0.0,0.0,0.0,0.0,0.0,0.0,0.0,0.0,0.0,0.0,0.0,0.0,0.0,0.0,0.0,0.0,0.0,0.0,0.0,0.0,0.0,0.0,0.0,0.0,0.0,0.0,0.0,0.0,0.0,0.0,0.0,0.0,0.0,0.0,0.0,0.0,0.0,0.0,0.0,0.0,0.0,0.0,0.0,0.0,0.0,0.0,0.0,0.0,0.0,0.0,0.0,0.0,0.0,0.0,0.0,0.0,0.0,0.0,0.0,0.0,0.0,0.0,0.0,0.0,0.0,0.0,0.0,0.0,0.0,0.0,0.0,0.0,0.0,0.0,0.0,0.0,0.0,-4.0437,-3.9701,-3.8843,0.0,-3.625,0.0,0.0,0.0,0.0,0.0,0.0,0.0,0.0,0.0,0.0,0.0,0.0,0.0,0.0,0.0,0.0,0.0,0.0,0.0,0.0,0.0,0.0,0.0,0.0,0.0,0.0,0.0,0.0,0.0,0.0,0.0,0.0,0.0,0.0,0.0,0.0,0.0,0.0,0.0,0.0,0.0,0.0,0.0,0.0,0.0,0.0,0.0,0.0,0.0,0.0,0.0,0.0,0.0,0.0,0.0,0.0,0.0,0.0,0.0,0.0,0.0,0.0,0.0,0.0,0.0,0.0,0.0,0.0,0.0,0.0,0.0,0.0,0.0,0.0,0.0,0.0,0.0,0.0,0.0,0.0,0.0,0.0,0.0,0.0,0.0,0.0,0.0,0.0,0.0,0.0,0.0,0.0,0.0,0.0,0.0,0.0,0.0,0.0,0.0,0.0,0.0,0.0,0.0,0.0,0.0,0.0,0.0,0.0,0.0,0.0,-4.0847,-4.0521,-3.9201,-3.7955,0.0,0.0,0.0,0.0,0.0,0.0,0.0,0.0,0.0,0.0,0.0,0.0,0.0,0.0,0.0,0.0,0.0,0.0,0.0,0.0,0.0,0.0,0.0,0.0,0.0,0.0,0.0,0.0,0.0,0.0,0.0,0.0,0.0,0.0,0.0,0.0,0.0,0.0,0.0,0.0,0.0,0.0,0.0,0.0,0.0,0.0,0.0,0.0,0.0,0.0,0.0,0.0,0.0,0.0,0.0,0.0,0.0,0.0,0.0,0.0,0.0,0.0,0.0,0.0,0.0,0.0,0.0,0.0,0.0,0.0,0.0,0.0,0.0,0.0,0.0,0.0,0.0,0.0,0.0,0.0,0.0,0.0,0.0,0.0,0.0,0.0,0.0,0.0,0.0,0.0,0.0,0.0,0.0,0.0,0.0,0.0,0.0,0.0,0.0,0.0,0.0,0.0,0.0,0.0,0.0,0.0,0.0,0.0,0.0,0.0,-4.0961,-4.0887,-4.0616,-3.9254,-3.8128,-3.732,0.0,0.0,0.0,0.0,0.0,0.0,0.0,0.0,0.0,0.0,0.0,0.0,0.0,0.0,0.0,0.0,0.0,0.0,0.0,0.0,0.0,0.0,0.0,0.0,0.0,0.0,0.0,0.0,0.0,0.0,0.0,0.0,0.0,0.0,0.0,0.0,0.0,0.0,0.0,0.0,0.0,0.0,0.0,0.0,0.0,0.0,0.0,0.0,0.0,0.0,0.0,0.0,0.0,0.0,0.0,0.0,0.0,0.0,0.0,0.0,0.0,0.0,0.0,0.0,0.0,0.0,0.0,0.0,0.0,0.0,0.0,0.0,0.0,0.0,0.0,0.0,0.0,0.0,0.0,0.0,0.0,0.0,0.0,0.0,0.0,0.0,0.0,0.0,0.0,0.0,0.0,0.0,0.0,0.0,0.0,0.0,0.0,0.0,0.0,0.0,0.0,0.0,0.0,0.0,0.0,0.0,0.0,0.0,-4.0883,-4.09,-4.057,-3.9901,-3.8988,-3.8124,0.0,0.0,0.0,0.0,0.0,0.0,0.0,0.0,0.0,0.0,0.0,0.0,0.0,0.0,0.0,0.0,0.0,0.0,0.0,0.0,0.0,0.0,0.0,0.0,0.0,0.0,0.0,0.0,0.0,0.0,0.0,0.0,0.0,0.0,0.0,0.0,0.0,0.0,0.0,0.0,0.0,0.0,0.0,0.0,0.0,0.0,0.0,0.0,0.0,0.0,0.0,0.0,0.0,0.0,0.0,0.0,0.0,0.0,0.0,0.0,0.0,0.0,0.0,0.0,0.0,0.0,0.0,0.0,0.0,0.0,0.0,0.0,0.0,0.0,0.0,0.0,0.0,0.0,0.0,0.0,0.0,0.0,0.0,0.0,0.0,0.0,0.0,0.0,0.0,0.0,0.0,0.0,0.0,0.0,0.0,0.0,0.0,0.0,0.0,0.0,0.0,0.0,0.0,0.0,0.0,0.0,0.0,0.0,0.0,-4.0765,-4.0864,-4.0809,-4.0538,-3.9234,-3.8356,0.0,0.0,0.0,0.0,0.0,0.0,0.0,0.0,0.0,0.0,0.0,0.0,0.0,0.0,0.0,0.0,0.0,0.0,0.0,0.0,0.0,0.0,0.0,0.0,0.0,0.0,0.0,0.0,0.0,0.0,0.0,0.0,0.0,0.0,0.0,0.0,0.0,0.0,0.0,0.0,0.0,0.0,0.0,0.0,0.0,0.0,0.0,0.0,0.0,0.0,0.0,0.0,0.0,0.0,0.0,0.0,0.0,0.0,0.0,0.0,0.0,0.0,0.0,0.0,0.0,0.0,0.0,0.0,0.0,0.0,0.0,0.0,0.0,0.0,0.0,0.0,0.0,0.0,0.0,0.0,0.0,0.0,0.0,0.0,0.0,0.0,0.0,0.0,0.0,0.0,0.0,0.0,0.0,0.0,0.0,0.0,0.0,0.0,0.0,0.0,0.0,0.0,0.0,0.0,0.0,0.0,0.0,0.0,0.0,-4.0732,0.0,-4.0921,-4.0935,-3.9379,-3.8507,0.0,0.0,0.0,0.0,0.0,0.0,0.0,0.0,0.0,0.0,0.0,0.0,0.0,0.0,0.0,0.0,0.0,0.0,0.0,0.0,0.0,0.0,0.0,0.0,0.0,0.0,0.0,0.0,0.0,0.0,0.0,0.0,0.0,0.0,0.0,0.0,0.0,0.0,0.0,0.0,0.0,0.0,0.0,0.0,0.0,0.0,0.0,0.0,0.0,0.0,0.0,0.0,0.0,0.0,0.0,0.0,0.0,0.0,0.0,0.0,0.0,0.0,0.0,0.0,0.0,0.0,0.0,0.0,0.0,0.0,0.0,0.0,0.0,0.0,0.0,0.0,0.0,0.0,0.0,0.0,0.0,0.0,0.0,0.0,0.0,0.0,0.0,0.0,0.0,0.0,0.0,0.0,0.0,0.0,0.0,0.0,0.0,0.0,0.0,0.0,0.0,0.0,0.0,0.0,0.0,0.0,0.0,0.0,-4.0612,-4.0788,-4.0863,-4.0926,-4.0953,-3.9374,-3.8505,0.0,0.0,0.0,0.0,0.0,0.0,0.0,0.0,0.0,0.0,0.0,0.0,0.0,0.0,0.0,0.0,0.0,0.0,0.0,0.0,0.0,0.0,0.0,0.0,0.0,0.0,0.0,0.0,0.0,0.0,0.0,0.0,0.0,0.0,0.0,0.0,0.0,0.0,0.0,0.0,0.0,0.0,0.0,0.0,0.0,0.0,0.0,0.0,0.0,0.0,0.0,0.0,0.0,0.0,0.0,0.0,0.0,0.0,0.0,0.0,0.0,0.0,0.0,0.0,0.0,0.0,0.0,0.0,0.0,0.0,0.0,0.0,0.0,0.0,0.0,0.0,0.0,0.0,0.0,0.0,0.0,0.0,0.0,0.0,0.0,0.0,0.0,0.0,0.0,0.0,0.0,0.0,0.0,0.0,0.0,0.0,0.0,0.0,0.0,0.0,0.0,0.0,0.0,0.0,0.0,0.0,0.0,0.0,0.0,-4.0725,-4.0798,-4.0858,-4.0891,-3.9307,-3.8422,0.0,0.0,0.0,0.0,0.0,0.0,0.0,0.0,0.0,0.0,0.0,0.0,0.0,0.0,0.0,0.0,0.0,0.0,0.0,0.0,0.0,0.0,0.0,0.0,0.0,0.0,0.0,0.0,0.0,0.0,0.0,0.0,0.0,0.0,0.0,0.0,0.0,0.0,0.0,0.0,0.0,0.0,0.0,0.0,0.0,0.0,0.0,0.0,0.0,0.0,0.0,0.0,0.0,0.0,0.0,0.0,0.0,0.0,0.0,0.0,0.0,0.0,0.0,0.0,0.0,0.0,0.0,0.0,0.0,0.0,0.0,0.0,0.0,0.0,0.0,0.0,0.0,0.0,0.0,0.0,0.0,0.0,0.0,0.0,0.0,0.0,0.0,0.0,0.0,0.0,0.0,0.0,0.0,0.0,0.0,0.0,0.0,0.0,0.0,0.0,0.0,0.0,0.0,0.0,0.0,0.0,0.0,0.0,0.0,-4.0575,-4.07,-4.0792,-4.0828,-3.9243,-3.8369,-3.8362,0.0,0.0,0.0,0.0,0.0,0.0,0.0,0.0,0.0,0.0,0.0,0.0,0.0,0.0,0.0,0.0,0.0,0.0,0.0,0.0,0.0,0.0,0.0,0.0,0.0,0.0,0.0,0.0,0.0,0.0,0.0,0.0,0.0,0.0,0.0,0.0,0.0,0.0,0.0,0.0,0.0,0.0,0.0,0.0,0.0,0.0,0.0,0.0,0.0,0.0,0.0,0.0,0.0,0.0,0.0,0.0,0.0,0.0,0.0,0.0,0.0,0.0,0.0,0.0,0.0,0.0,0.0,0.0,0.0,0.0,0.0,0.0,0.0,0.0,0.0,0.0,0.0,0.0,0.0,0.0,0.0,0.0,0.0,0.0,0.0,0.0,0.0,0.0,0.0,0.0,0.0,0.0,0.0,0.0,0.0,0.0,0.0,0.0,0.0,0.0,0.0,0.0,0.0,0.0,0.0,0.0,0.0,0.0,-4.0389,-4.0588,-4.0681,-4.0694,-3.9148,-3.8326,0.0,0.0,0.0,0.0,0.0,0.0,0.0,0.0,0.0,0.0,0.0,0.0,0.0,0.0,0.0,0.0,0.0,0.0,0.0,0.0,0.0,0.0,0.0,0.0,0.0,0.0,0.0,0.0,0.0,0.0,0.0,0.0,0.0,0.0,0.0,0.0,0.0,0.0,0.0,0.0,0.0,0.0,0.0,0.0,0.0,0.0,0.0,0.0,0.0,0.0,0.0,0.0,0.0,0.0,0.0,0.0,0.0,0.0,0.0,0.0,0.0,0.0,0.0,0.0,0.0,0.0,0.0,0.0,0.0,0.0,0.0,0.0,0.0,0.0,0.0,0.0,0.0,0.0,0.0,0.0,0.0,0.0,0.0,0.0,0.0,0.0,0.0,0.0,0.0,0.0,0.0,0.0,0.0,0.0,0.0,0.0,0.0,0.0,0.0,0.0,0.0,0.0,0.0,0.0,0.0,0.0,0.0,0.0,0.0,-4.0261,-4.04,-4.0527,-4.0577,-3.9069,-3.8244,0.0,0.0,0.0,0.0,0.0,0.0,0.0,0.0,0.0,0.0,0.0,0.0,0.0,0.0,0.0,0.0,0.0,0.0,0.0,0.0,0.0,0.0,0.0,0.0,0.0,0.0,0.0,0.0,0.0,0.0,0.0,0.0,0.0,0.0,0.0,0.0,0.0,0.0,0.0,0.0,0.0,0.0,0.0,0.0,0.0,0.0,0.0,0.0,0.0,0.0,0.0,0.0,0.0,0.0,0.0,0.0,0.0,0.0,0.0,0.0,0.0,0.0,0.0,0.0,0.0,0.0,0.0,0.0,0.0,0.0,0.0,0.0,0.0,0.0,0.0,0.0,0.0,0.0,0.0,0.0,0.0,0.0,0.0,0.0,0.0,0.0,0.0,0.0,0.0,0.0,0.0,0.0,0.0,0.0,0.0,0.0,0.0,0.0,0.0,0.0,0.0,0.0,0.0,0.0,0.0,0.0,0.0,0.0,-4.0008,-4.0109,-4.0215,-4.0334,-4.043,-3.9287,-3.8511,0.0,0.0,0.0,0.0,0.0,0.0,0.0,0.0,0.0,0.0,0.0,0.0,0.0,0.0,0.0,0.0,0.0,0.0,0.0,0.0,0.0,0.0,0.0,0.0,0.0,0.0,0.0,0.0,0.0,0.0,0.0,0.0,0.0,0.0,0.0,0.0,0.0,0.0,0.0,0.0,0.0,0.0,0.0,0.0,0.0,0.0,0.0,0.0,0.0,0.0,0.0,0.0,0.0,0.0,0.0,0.0,0.0,0.0,0.0,0.0,0.0,0.0,0.0,0.0,0.0,0.0,0.0,0.0,0.0,0.0,0.0,0.0,0.0,0.0,0.0,0.0,0.0,0.0,0.0,0.0,0.0,0.0,0.0,0.0,0.0,0.0,0.0,0.0,0.0,0.0,0.0,0.0,0.0,0.0,0.0,0.0,0.0,0.0,0.0,0.0,0.0,0.0,0.0,0.0,0.0,0.0,0.0,0.0,-3.9837,-3.9975,-4.0036,-4.0118,-4.0158,-3.9602,-3.8905,0.0,0.0,0.0,0.0,0.0,0.0,0.0,0.0,0.0,0.0,0.0,0.0,0.0,0.0,0.0,0.0,0.0,0.0,0.0,0.0,0.0,0.0,0.0,0.0,0.0,0.0,0.0,0.0,0.0,0.0,0.0,0.0,0.0,0.0,0.0,0.0,0.0,0.0,0.0,0.0,0.0,0.0,0.0,0.0,0.0,0.0,0.0,0.0,0.0,0.0,0.0,0.0,0.0,0.0,0.0,0.0,0.0,0.0,0.0,0.0,0.0,0.0,0.0,0.0,0.0,0.0,0.0,0.0,0.0,0.0,0.0,0.0,0.0,0.0,0.0,0.0,0.0,0.0,0.0,0.0,0.0,0.0,0.0,0.0,0.0,0.0,0.0,0.0,0.0,0.0,0.0,0.0,0.0,0.0,0.0,0.0,0.0,0.0,0.0,0.0,0.0,0.0,0.0,0.0,0.0,0.0,0.0,0.0,-3.9654,-3.9762,-3.9826,-3.9914,-4.0048,-3.9457,-3.8777,0.0,0.0,0.0,0.0,0.0,0.0,0.0,0.0,0.0,0.0,0.0,0.0,0.0,0.0,0.0,0.0,0.0,0.0,0.0,0.0,0.0,0.0,0.0,0.0,0.0,0.0,0.0,0.0,0.0,0.0,0.0,0.0,0.0,0.0,0.0,0.0,0.0,0.0,0.0,0.0,0.0,0.0,0.0,0.0,0.0,0.0,0.0,0.0,-4.0454,0.0,0.0,0.0,0.0,0.0,0.0,0.0,0.0,0.0,0.0,0.0,0.0,0.0,0.0,0.0,0.0,0.0,0.0,0.0,0.0,0.0,0.0,0.0,0.0,0.0,0.0,0.0,0.0,0.0,0.0,0.0,0.0,0.0,0.0,0.0,0.0,0.0,0.0,0.0,0.0,0.0,0.0,0.0,0.0,0.0,0.0,0.0,0.0,0.0,0.0,0.0,0.0,0.0,0.0,0.0,0.0,0.0,0.0,0.0,-3.9414,-3.9514,-3.9575,-3.9682,-3.984,-3.9542,-3.9071,0.0,0.0,0.0,0.0,0.0,0.0,0.0,0.0,0.0,0.0,0.0,0.0,0.0,0.0,0.0,0.0,0.0,0.0,0.0,0.0,0.0,0.0,0.0,0.0,0.0,0.0,0.0,0.0,0.0,0.0,0.0,0.0,0.0,0.0,0.0,0.0,0.0,0.0,0.0,0.0,0.0,0.0,0.0,0.0,0.0,0.0,0.0,0.0,0.0,0.0,0.0,0.0,0.0,0.0,0.0,0.0,0.0,0.0,0.0,0.0,0.0,0.0,0.0,0.0,0.0,0.0,0.0,0.0,0.0,0.0,0.0,0.0,0.0,0.0,0.0,0.0,0.0,0.0,0.0,0.0,0.0,0.0,0.0,0.0,0.0,0.0,0.0,0.0,0.0,0.0,0.0,0.0,0.0,0.0,0.0,0.0,0.0,0.0,0.0,0.0,0.0,0.0,0.0,0.0,0.0,0.0,0.0,-3.9073,-3.9183,-3.9232,-3.9311,-3.9439,-3.9616,-3.9647,-3.9452,-3.9002,0.0,0.0,0.0,0.0,0.0,0.0,0.0,0.0,0.0,0.0,0.0,0.0,0.0,0.0,0.0,0.0,0.0,0.0,0.0,0.0,0.0,0.0,0.0,0.0,0.0,0.0,0.0,0.0,0.0,0.0,0.0,0.0,0.0,0.0,0.0,0.0,0.0,0.0,-3.9433,-3.9544,0.0,0.0,0.0,0.0,0.0,0.0,0.0,0.0,-4.0158,0.0,0.0,0.0,0.0,0.0,0.0,0.0,0.0,0.0,0.0,0.0,0.0,0.0,0.0,0.0,0.0,0.0,0.0,0.0,0.0,0.0,0.0,0.0,0.0,0.0,0.0,0.0,0.0,0.0,0.0,0.0,0.0,0.0,0.0,0.0,0.0,0.0,0.0,0.0,0.0,0.0,0.0,0.0,0.0,0.0,0.0,0.0,0.0,0.0,0.0,0.0,0.0,0.0,0.0,0.0,0.0,-3.8588,-3.8815,-3.895,-3.8964,-3.9087,-3.9219,-3.9363,-3.9376,-3.9377,-3.9347,0.0,0.0,0.0,0.0,0.0,0.0,0.0,0.0,0.0,0.0,0.0,0.0,0.0,0.0,0.0,0.0,0.0,0.0,0.0,0.0,0.0,0.0,0.0,0.0,0.0,0.0,0.0,0.0,0.0,0.0,0.0,0.0,0.0,0.0,0.0,0.0,0.0,0.0,0.0,-3.9285,-3.9357,0.0,0.0,0.0,0.0,0.0,0.0,0.0,0.0,-3.9967,0.0,0.0,0.0,0.0,0.0,0.0,0.0,0.0,0.0,0.0,0.0,0.0,0.0,0.0,0.0,0.0,0.0,0.0,0.0,0.0,0.0,0.0,0.0,0.0,0.0,0.0,0.0,0.0,0.0,0.0,0.0,0.0,0.0,0.0,0.0,0.0,0.0,0.0,0.0,0.0,0.0,0.0,0.0,0.0,0.0,0.0,0.0,0.0,0.0,0.0,0.0,0.0,0.0,0.0,0.0,-3.83,-3.8525,-3.8634,-3.8652,-3.8766,-3.8913,-3.9087,-3.9101,-3.9156,0.0,0.0,0.0,0.0,0.0,0.0,0.0,0.0,0.0,0.0,0.0,0.0,0.0,0.0,0.0,0.0,0.0,0.0,0.0,0.0,0.0,0.0,0.0,0.0,0.0,0.0,0.0,0.0,0.0,0.0,0.0,0.0,0.0,0.0,0.0,0.0,0.0,0.0,0.0,0.0,-3.9003,-3.9082,-3.9087,0.0,0.0,0.0,0.0,0.0,0.0,-3.963,-3.9677,0.0,0.0,0.0,0.0,0.0,0.0,0.0,0.0,0.0,0.0,0.0,0.0,0.0,0.0,0.0,0.0,0.0,0.0,0.0,0.0,0.0,0.0,0.0,0.0,0.0,0.0,0.0,0.0,0.0,0.0,0.0,0.0,0.0,0.0,0.0,0.0,0.0,0.0,0.0,0.0,0.0,0.0,0.0,0.0,0.0,0.0,0.0,0.0,0.0,0.0,0.0,0.0,0.0,0.0,0.0,-3.8,-3.8203,-3.8285,-3.8302,-3.8428,-3.8588,-3.8777,-3.8788,-3.8862,0.0,0.0,0.0,0.0,0.0,0.0,0.0,0.0,0.0,0.0,0.0,0.0,0.0,0.0,0.0,0.0,0.0,0.0,0.0,0.0,0.0,0.0,0.0,0.0,0.0,0.0,0.0,0.0,0.0,0.0,0.0,0.0,0.0,0.0,0.0,0.0,0.0,0.0,0.0,0.0,0.0,-3.8773,-3.8803,-3.8902,0.0,0.0,0.0,0.0,-3.9259,-3.9298,0.0,0.0,0.0,0.0,0.0,0.0,0.0,0.0,0.0,0.0,0.0,0.0,0.0,0.0,0.0,0.0,0.0,0.0,0.0,0.0,0.0,0.0,0.0,0.0,0.0,0.0,0.0,0.0,0.0,0.0,0.0,0.0,0.0,0.0,0.0,0.0,0.0,0.0,0.0,0.0,0.0,0.0,0.0,0.0,0.0,0.0,0.0,0.0,0.0,0.0,0.0,0.0,0.0,0.0,0.0,0.0,-3.7649,-3.7845,-3.7969,-3.7969,-3.8086,-3.8236,-3.8372,-3.8433,-3.8512,0.0,0.0,0.0,0.0,0.0,0.0,0.0,0.0,0.0,0.0,0.0,0.0,0.0,0.0,0.0,0.0,0.0,0.0,0.0,0.0,0.0,0.0,0.0,0.0,0.0,0.0,0.0,0.0,0.0,0.0,0.0,0.0,0.0,0.0,0.0,0.0,0.0,0.0,0.0,0.0,0.0,-3.8387,-3.8446,-3.8525,-3.8585,0.0,0.0,-3.8866,-3.8862,-3.8979,0.0,0.0,0.0,0.0,0.0,0.0,0.0,0.0,0.0,0.0,0.0,0.0,0.0,0.0,0.0,0.0,0.0,0.0,0.0,0.0,0.0,0.0,0.0,0.0,0.0,0.0,0.0,0.0,0.0,0.0,0.0,0.0,0.0,0.0,0.0,0.0,0.0,0.0,0.0,0.0,0.0,0.0,0.0,0.0,0.0,0.0,0.0,0.0,0.0,0.0,0.0,0.0,0.0,0.0,0.0,-3.6992,-3.7147,-3.7337,-3.7466,-3.7576,-3.7632,-3.7792,-3.7932,-3.7984,-3.8069,0.0,0.0,0.0,0.0,0.0,0.0,0.0,0.0,0.0,0.0,0.0,0.0,0.0,0.0,0.0,0.0,0.0,0.0,0.0,0.0,0.0,0.0,0.0,0.0,0.0,0.0,0.0,0.0,0.0,0.0,0.0,0.0,0.0,0.0,0.0,0.0,0.0,0.0,0.0,0.0,0.0,0.0,-3.8001,-3.8068,0.0,0.0,0.0,-3.8385,-3.8499,0.0,0.0,0.0,0.0,0.0,0.0,0.0,0.0,0.0,0.0,0.0,0.0,0.0,0.0,0.0,0.0,0.0,0.0,0.0,0.0,0.0,0.0,0.0,0.0,0.0,0.0,0.0,0.0,0.0,0.0,0.0,0.0,0.0,0.0,0.0,0.0,0.0,0.0,0.0,0.0,0.0,0.0,0.0,0.0,0.0,0.0,0.0,0.0,0.0,0.0,0.0,0.0,0.0,0.0,0.0,0.0,0.0,-3.6635,-3.6853,-3.6992,-3.7087,-3.7204,-3.7319,-3.7468,-3.7522,0.0,0.0,0.0,0.0,0.0,0.0,0.0,0.0,0.0,0.0,0.0,0.0,0.0,0.0,0.0,0.0,0.0,0.0,0.0,0.0,0.0,0.0,0.0,0.0,0.0,0.0,0.0,-3.397,0.0,0.0,0.0,0.0,0.0,0.0,0.0,0.0,0.0,0.0,0.0,0.0,0.0,0.0,-3.7522,-3.7541,-3.7595,-3.7667,0.0,0.0,-3.7897,-3.8053,-3.8104,-3.8188,0.0,0.0,0.0,0.0,0.0,0.0,0.0,0.0,0.0,0.0,0.0,0.0,0.0,0.0,0.0,0.0,0.0,0.0,0.0,0.0,0.0,0.0,0.0,0.0,0.0,0.0,0.0,0.0,0.0,0.0,0.0,0.0,0.0,0.0,0.0,0.0,0.0,0.0,0.0,0.0,0.0,0.0,0.0,0.0,0.0,0.0,0.0,0.0,0.0,0.0,0.0,0.0,0.0,0.0,0.0,-3.6139,-3.6423,-3.6544,-3.6564,-3.6733,-3.6836,-3.6856,-3.7032,-3.7147,0.0,0.0,0.0,0.0,0.0,0.0,0.0,0.0,0.0,0.0,0.0,0.0,0.0,0.0,0.0,0.0,0.0,0.0,0.0,0.0,0.0,0.0,0.0,0.0,0.0,0.0,0.0,0.0,0.0,0.0,0.0,0.0,0.0,0.0,0.0,0.0,0.0,0.0,0.0,0.0,0.0,-3.7068,-3.7127,-3.7129,-3.7167,0.0,0.0,-3.7449,-3.7468,-3.7613,-3.7757,-3.7757,0.0,0.0,0.0,0.0,0.0,0.0,0.0,0.0,0.0,0.0,0.0,0.0,0.0,0.0,0.0,0.0,0.0,0.0,0.0,0.0,0.0,0.0,0.0,0.0,0.0,0.0,0.0,0.0,0.0,0.0,0.0,0.0,0.0,0.0,0.0,0.0,0.0,0.0,0.0,0.0,0.0,0.0,0.0,0.0,0.0,0.0,0.0,0.0,0.0,0.0,0.0,0.0,0.0,-3.5509,-3.56,-3.5761,-3.5893,-3.6084,-3.6135,-3.6224,-3.6388,-3.6451,-3.6553,0.0,0.0,0.0,0.0,0.0,0.0,0.0,0.0,0.0,0.0,0.0,0.0,0.0,0.0,0.0,0.0,0.0,0.0,0.0,0.0,0.0,0.0,0.0,0.0,0.0,0.0,0.0,0.0,-3.5108,-3.5394,-3.5599,0.0,0.0,0.0,0.0,0.0,0.0,0.0,0.0,0.0,0.0,-3.6371,-3.6474,-3.6495,0.0,0.0,-3.6814,-3.6856,-3.6915,-3.6974,-3.7071,-3.7188,-3.7245,0.0,0.0,0.0,0.0,0.0,0.0,0.0,0.0,0.0,0.0,0.0,0.0,0.0,0.0,0.0,0.0,0.0,0.0,0.0,0.0,0.0,0.0,0.0,0.0,0.0,0.0,0.0,0.0,0.0,0.0,0.0,0.0,0.0,0.0,0.0,0.0,0.0,0.0,0.0,0.0,0.0,0.0,0.0,0.0,0.0,0.0,0.0,0.0,0.0,0.0,0.0,0.0,-3.4906,-3.4994,-3.5118,-3.5287,-3.5476,-3.5538,-3.5655,-3.5771,-3.5815,-3.5941,0.0,0.0,0.0,0.0,0.0,0.0,0.0,0.0,0.0,0.0,0.0,0.0,0.0,0.0,0.0,0.0,0.0,0.0,0.0,0.0,0.0,0.0,0.0,0.0,0.0,0.0,0.0,0.0,-3.4894,-3.5102,-3.5008,0.0,0.0,0.0,0.0,0.0,0.0,0.0,0.0,0.0,0.0,-3.5732,-3.5798,-3.5837,-3.5881,-3.6088,-3.6174,-3.6259,-3.6305,-3.6367,-3.6416,-3.658,0.0,0.0,0.0,0.0,0.0,0.0,0.0,0.0,0.0,0.0,0.0,0.0,0.0,0.0,0.0,0.0,0.0,0.0,0.0,0.0,0.0,0.0,0.0,0.0,0.0,0.0,0.0,0.0,0.0,0.0,-3.1508,0.0,0.0,0.0,0.0,0.0,0.0,0.0,0.0,0.0,0.0,0.0,0.0,0.0,0.0,0.0,0.0,0.0,0.0,0.0,0.0,0.0,0.0,-3.43,-3.4325,-3.457,-3.4715,-3.4756,-3.497,-3.5111,-3.5111,-3.5171,-3.5293,-3.5424,0.0,0.0,0.0,0.0,0.0,0.0,0.0,0.0,0.0,0.0,0.0,0.0,0.0,0.0,0.0,0.0,0.0,0.0,0.0,0.0,0.0,0.0,0.0,0.0,0.0,0.0,-3.4682,-3.4578,-3.4505,0.0,0.0,0.0,0.0,0.0,0.0,0.0,0.0,0.0,0.0,-3.5201,-3.5224,-3.5224,-3.5207,-3.5207,-3.5247,-3.5453,-3.5616,-3.5616,-3.5776,-3.5912,0.0,0.0,0.0,0.0,0.0,0.0,0.0,0.0,0.0,0.0,0.0,0.0,0.0,0.0,0.0,0.0,0.0,0.0,0.0,0.0,0.0,0.0,0.0,0.0,0.0,0.0,0.0,-3.0792,-3.0881,0.0,0.0,0.0,0.0,0.0,0.0,0.0,0.0,0.0,0.0,0.0,-3.0911,-3.0925,0.0,0.0,0.0,0.0,0.0,0.0,0.0,0.0,0.0,0.0,0.0,0.0,-3.3549,-3.3745,-3.3848,-3.3975,-3.4176,-3.4234,-3.4374,-3.457,-3.4618,-3.4675,-3.4794,0.0,0.0,0.0,0.0,0.0,0.0,0.0,0.0,0.0,0.0,0.0,0.0,0.0,0.0,0.0,0.0,0.0,0.0,0.0,0.0,0.0,0.0,0.0,0.0,0.0,-3.4,0.0,0.0,0.0,0.0,0.0,0.0,0.0,0.0,0.0,0.0,0.0,-3.4456,-3.4358,-3.4391,-3.4505,-3.4578,-3.4602,-3.4634,0.0,0.0,0.0,0.0,0.0,0.0,0.0,0.0,0.0,0.0,0.0,0.0,0.0,0.0,-3.6336,-3.6801,-3.661,-3.6301,-3.6128,0.0,0.0,0.0,0.0,0.0,0.0,0.0,0.0,0.0,0.0,0.0,0.0,0.0,0.0,-2.9976,0.0,-3.016,0.0,0.0,0.0,0.0,0.0,0.0,0.0,0.0,-3.0249,-3.0235,-3.028,-3.0249,-3.0312,0.0,-3.0598,-3.1043,0.0,0.0,0.0,0.0,0.0,0.0,0.0,0.0,-3.2834,-3.3118,-3.3171,-3.3261,-3.3429,-3.3507,-3.361,-3.3841,-3.3975,-3.4075,-3.4151,-3.4201,-3.4226,0.0,0.0,0.0,0.0,0.0,0.0,0.0,0.0,0.0,0.0,0.0,0.0,0.0,0.0,0.0,0.0,0.0,0.0,0.0,0.0,0.0,0.0,0.0,-3.3182,0.0,0.0,0.0,0.0,0.0,0.0,0.0,0.0,0.0,-3.3429,-3.3585,-3.361,-3.3533,-3.3585,-3.3688,-3.3748,0.0,0.0,0.0,0.0,0.0,0.0,0.0,-3.4358,-3.4399,-3.4529,-3.4667,-3.4802,-3.4897,-3.4984,-3.5062,0.0,0.0,-3.5803,-3.5654,-3.527,-3.477,-3.396,-3.337,-3.3442,-3.3016,-3.2603,0.0,0.0,0.0,0.0,0.0,0.0,0.0,0.0,-2.9067,-2.9149,0.0,-2.9279,0.0,0.0,0.0,0.0,0.0,-2.9571,0.0,0.0,-2.9571,-2.9571,-2.9571,-2.9571,-2.9651,-2.9777,-2.9962,-3.016,-3.0312,-3.1073,0.0,0.0,0.0,0.0,0.0,0.0,-3.2247,-3.237,-3.2492,-3.2574,-3.2574,-3.2722,-3.283,-3.2996,-3.3261,-3.3435,-3.3477,-3.3565,-3.3658,-3.3668,-3.3642,0.0,0.0,0.0,0.0,0.0,0.0,0.0,0.0,0.0,0.0,0.0,0.0,0.0,0.0,0.0,0.0,0.0,0.0,0.0,0.0,-3.2504,0.0,0.0,0.0,0.0,0.0,0.0,0.0,0.0,0.0,0.0,-3.2625,-3.2734,-3.2761,-3.2761,0.0,0.0,0.0,0.0,-3.2815,-3.2953,-3.3087,-3.3219,-3.3408,-3.3565,-3.3642,-3.3668,0.0,0.0,-3.4025,-3.4275,-3.4448,-3.4448,-3.3891,-3.3631,-3.445,-3.4623,-3.4271,-3.2955,-3.2735,-3.2559,-3.1938,-3.2,-3.2161,-2.6812,0.0,0.0,0.0,0.0,-2.7875,-2.7973,-2.8183,-2.8183,-2.832,-2.8578,-2.8565,0.0,0.0,0.0,0.0,0.0,0.0,-2.8876,-2.8876,-2.8908,-2.8908,-2.8876,-2.8876,-2.8958,-2.9121,-2.9293,-2.9463,-2.9591,-2.9976,-3.0372,-3.0851,0.0,0.0,0.0,0.0,-3.1437,-3.161,-3.1737,-3.1879,-3.1936,-3.1992,-3.2076,-3.2216,-3.2468,-3.2578,-3.2578,-3.2699,-3.278,-3.278,-3.278,0.0,0.0,0.0,0.0,0.0,0.0,0.0,0.0,0.0,0.0,0.0,0.0,0.0,0.0,0.0,0.0,0.0,0.0,0.0,-3.1752,-3.1552,-3.1393,0.0,0.0,0.0,0.0,0.0,0.0,0.0,0.0,0.0,-3.0999,-3.1694,-3.2117,0.0,0.0,-3.2145,-3.2145,-3.2145,-3.2173,-3.2216,0.0,0.0,0.0,-3.2672,-3.2792,-3.29,-3.3007,-3.3071,-3.315,-3.3324,-3.3439,-3.3543,-3.3127,-3.2724,-3.2525,-3.2525,-3.2407,-3.2081,-3.1695,-3.1427,-3.137,-3.1385,-3.147,-2.5581,-2.6252,-2.6769,-2.7007,-2.704,-2.7074,-2.7142,-2.7242,-2.7229,-2.743,-2.7809,-2.7809,-2.7941,-2.8151,-2.8164,0.0,0.0,0.0,-2.8164,-2.8164,-2.8164,-2.8164,-2.8164,-2.8164,-2.8235,-2.8417,-2.8592,-2.8753,-2.8931,-2.9117,-2.9415,-2.9837,0.0,0.0,-3.0404,-3.0569,-3.0732,-3.0881,-3.1058,-3.1175,-3.1263,-3.1321,-3.1393,-3.1465,-3.1638,-3.1724,-3.1724,-3.1794,-3.1851,-3.1851,-3.1851,-3.1794,0.0,0.0,0.0,0.0,0.0,0.0,0.0,0.0,0.0,0.0,0.0,-3.1823,-3.1724,0.0,0.0,0.0,-3.119,-3.0999,-3.0822,-3.0643,0.0,0.0,0.0,0.0,0.0,0.0,0.0,-3.0021,-2.9898,-2.9837,-2.9822,-3.0374,-3.0881,-3.1117,-3.1292,-3.1393,-3.1393,0.0,-3.1393,-3.1451,-3.1465,-3.1537,-3.1695,-3.1809,-3.1879,-3.2048,-3.2228,-3.2367,-3.2367,-3.2492,-3.2536,-3.236,-3.1946,-3.1385,-3.0882,-3.0581,-3.0514,-3.0844,-3.0702,-3.0547,-3.0713,-3.0773,-3.0838,-2.4468,-2.4671,-2.5616,-2.6117,-2.6311,-2.6311,-2.6324,-2.6324,-2.6311,-2.6552,-2.6905,-2.6905,-2.7121,-2.7423,-2.7436,0.0,-2.7423,-2.7436,-2.739,-2.739,-2.7436,-2.7423,-2.7436,-2.7423,-2.7556,-2.7789,-2.7875,-2.8039,-2.8254,-2.8411,-2.8522,-2.8522,-2.9131,-2.9526,-2.9685,-2.9915,-3.0099,-3.019,-3.0417,-3.0507,-3.0507,-3.0643,-3.0688,-3.0718,-3.0837,-3.0896,-3.0911,-3.0911,-3.094,-3.094,-3.094,-3.0911,-3.0911,0.0,0.0,0.0,0.0,0.0,0.0,0.0,0.0,0.0,0.0,0.0,0.0,0.0,0.0,0.0,-3.0146,0.0,-2.9976,-2.9808,0.0,0.0,0.0,-2.9216,-2.9202,-2.9085,-2.9004,-2.9035,0.0,0.0,-2.9004,0.0,-2.9275,-2.9993,-3.0326,-3.0507,-3.0507,-3.0507,-3.0568,-3.0688,-3.0688,-3.0748,-3.0881,-3.0925,-3.1029,-3.1219,-3.1423,-3.1581,-3.1595,-3.1618,-3.1546,-3.1183,-3.0479,-2.9898,-2.9579,-2.9005,-2.8654,-2.9357,-2.9716,-2.9913,-2.9973,-3.0128,-3.0079,-2.3692,-2.3911,-2.4286,-2.4886,-2.5546,-2.5558,-2.5546,-2.5546,-2.5546,-2.5769,-2.6154,-2.6176,-2.6336,-2.6667,-2.6667,-2.6667,-2.6654,-2.6667,-2.6654,-2.6667,-2.6667,-2.6735,-2.6884,-2.6884,-2.7087,-2.7403,-2.7456,-2.7523,-2.7689,-2.7723,-2.7756,-2.7756,-2.7921,-2.8314,-2.8862,-2.918,-2.9338,-2.9383,-2.9682,-2.982,-2.9851,-2.9867,-2.9867,-2.9867,-3.0038,-3.0085,-3.0085,-3.0237,-3.0312,-3.0312,-3.0312,-3.0237,-3.0085,-3.0085,0.0,0.0,0.0,0.0,0.0,0.0,0.0,0.0,0.0,-3.0054,-2.9962,0.0,-2.9577,0.0,-2.9216,-2.9058,-2.8899,-2.8739,0.0,0.0,-2.8352,-2.832,-2.8287,-2.8254,-2.8268,-2.8268,-2.817,-2.8118,-2.8118,-2.8105,-2.817,-2.8384,-2.9107,-2.9608,-2.9591,-2.973,-2.9851,-2.9867,-2.9898,-2.9915,-3.0054,-3.0221,-3.0372,-3.0493,-3.0583,-3.0673,-3.0836,-3.0587,-3.0347,-3.0182,-2.9456,-2.8858,-2.8681,-2.8278,-2.8044,-2.8229,-2.8716,-2.9227,-2.9425,-2.9187,-2.8893,-2.2927,-2.3224,-2.3335,-2.374,-2.4299,-2.4671,-2.4826,-2.4826,-2.4897,-2.5099,-2.537,-2.5571,-2.5734,-2.5896,-2.5908,-2.5931,-2.5908,-2.5896,-2.5978,-2.6047,-2.6047,-2.6164,-2.6336,-2.6349,-2.6508,-2.6829,-2.6829,-2.6884,-2.7007,-2.7007,-2.7007,-2.7007,-2.7087,-2.7356,-2.7756,-2.8346,-2.8605,-2.8592,-2.8958,-2.9162,-2.9162,-2.9162,-2.9162,-2.9162,-2.923,-2.9261,-2.9261,-2.9387,-2.9418,-2.9418,-2.9418,-2.9355,-2.9139,-2.9153,-2.9012,0.0,0.0,0.0,0.0,0.0,0.0,0.0,0.0,0.0,0.0,0.0,-2.8688,-2.8527,-2.8254,-2.8045,-2.7927,-2.7782,-2.7663,-2.7577,-2.7464,-2.741,-2.741,-2.733,-2.7284,-2.731,-2.7229,-2.7162,-2.7162,-2.7196,-2.7175,-2.7162,-2.7762,-2.8338,-2.8757,-2.8976,-2.9053,-2.9131,-2.9162,-2.9194,-2.9275,-2.9418,-2.956,-2.9716,-2.9596,-2.9519,-2.97,-2.9303,-2.8915,-2.8668,-2.8228,-2.7822,-2.7583,-2.7432,-2.7321,-2.7444,-2.7795,-2.8154,-2.8342,-2.8196,-2.804,-2.2252,-2.2553,-2.259,-2.274,-2.2916,-2.3666,-2.4007,-2.408,-2.4309,-2.4478,-2.4612,-2.4981,-2.517,-2.517,-2.5206,-2.5206,-2.5206,-2.5218,-2.5312,-2.5512,-2.55,-2.5618,-2.5793,-2.5793,-2.5886,-2.6082,-2.6094,-2.6151,-2.6289,-2.6289,-2.6324,-2.6346,-2.6508,-2.6577,-2.6624,-2.7377,-2.7842,-2.7941,-2.8295,-2.8444,-2.8457,-2.8457,-2.8457,-2.8457,-2.8457,-2.8457,-2.8457,-2.8457,-2.8457,-2.8457,-2.8425,-2.8346,-2.8157,-2.8157,-2.8026,0.0,-2.7842,0.0,0.0,0.0,0.0,0.0,0.0,0.0,0.0,-2.7894,-2.7729,-2.7623,-2.7263,-2.7027,-2.6994,-2.6905,-2.679,-2.6756,-2.6633,-2.6508,-2.6508,-2.6358,-2.6242,-2.6255,-2.6242,-2.6277,-2.6289,-2.6242,-2.6242,-2.6277,-2.6461,-2.6973,-2.7762,-2.8045,-2.8235,-2.8425,-2.8457,-2.8457,-2.8476,-2.8546,-2.868,-2.8775,-2.8547,-2.8302,-2.8444,-2.797,-2.7439,-2.7089,-2.7017,-2.6885,-2.6437,-2.6498,-2.6642,-2.6759,-2.6894,-2.7005,-2.7146,-2.7257,-2.7045,-2.1655,-2.1759,-2.2073,-2.2252,-2.2289,-2.2628,-2.3038,-2.3482,-2.3677,-2.3861,-2.4068,-2.4286,-2.4394,-2.4406,-2.4586,-2.467,-2.467,-2.4814,-2.4897,-2.4969,-2.4957,-2.5016,-2.5158,-2.5158,-2.5264,-2.5453,-2.5488,-2.5558,-2.5746,-2.5746,-2.5851,-2.5968,-2.605,-2.605,-2.6084,0.0,0.0,0.0,-2.7656,-2.7723,-2.7703,-2.7736,-2.7723,-2.7723,-2.7736,0.0,-2.7703,-2.7689,-2.7723,-2.7703,-2.7543,0.0,0.0,0.0,0.0,0.0,0.0,0.0,0.0,0.0,0.0,0.0,-2.6208,-2.6358,-2.6939,-2.6735,-2.653,-2.6496,-2.6277,-2.607,-2.5921,-2.5873,-2.5804,-2.5616,-2.5594,-2.5558,-2.5558,-2.5511,-2.5511,-2.5523,-2.5511,-2.5511,-2.5511,-2.5523,-2.5523,-2.5558,-2.5699,-2.5955,-2.6289,-2.6994,-2.7477,-2.7656,-2.7676,-2.7723,-2.7689,-2.7716,-2.7643,-2.7595,-2.7534,-2.7381,-2.7209,-2.6695,-2.6255,-2.6108,-2.5923,-2.5772,-2.5646,-2.5838,-2.6069,-2.6082,-2.5912,-2.5908,-2.6416,-2.632,-2.5963,-2.1108,0.0,-2.154,-2.1655,0.0,-2.1883,-2.2176,-2.259,-2.2964,-2.3346,-2.3593,-2.3714,-2.3824,-2.3886,-2.4007,-2.4043,-2.4043,-2.4152,-2.4273,-2.4345,-2.4345,-2.449,-2.4754,-2.4754,-2.4862,-2.504,-2.5052,-2.5087,-2.5194,-2.5194,-2.5242,-2.5348,-2.543,-2.5453,-2.5465,-2.5664,-2.6151,-2.6939,-2.6939,-2.6973,-2.6939,-2.6973,-2.6973,-2.6952,0.0,0.0,0.0,0.0,0.0,0.0,0.0,0.0,0.0,0.0,0.0,-2.6,-2.6013,-2.5978,-2.5861,-2.5721,-2.5581,-2.5464,-2.5135,-2.5218,-2.5943,-2.5769,-2.5616,-2.5616,-2.537,-2.5158,-2.5064,-2.4969,-2.4862,-2.4754,-2.4743,-2.4754,-2.4743,-2.4754,-2.4754,-2.4754,-2.4766,-2.4754,-2.4754,-2.4754,-2.4778,-2.4897,-2.4981,-2.5147,-2.5465,-2.6186,-2.6756,-2.6926,-2.6704,-2.6563,-2.6524,-2.6392,-2.633,-2.6282,-2.6107,-2.5999,-2.5978,-2.5448,-2.4991,-2.502,-2.4968,-2.4951,-2.4979,-2.5231,-2.5481,-2.5425,-2.5227,-2.497,-2.507,-2.499,-2.4804,-2.0566,-2.075,-2.0974,-2.1089,-2.1079,-2.132,-2.1543,-2.1845,0.0,0.0,0.0,-2.3161,-2.3224,-2.3372,-2.3446,-2.3446,-2.3482,-2.3556,-2.3666,-2.3861,-2.3861,-2.4007,-2.4345,-2.4345,-2.4429,-2.4574,-2.461,-2.461,-2.4646,-2.4646,-2.4646,-2.4718,-2.4826,-2.4874,-2.4874,-2.5016,-2.5406,-2.6013,-2.6139,-2.6208,-2.6208,-2.622,-2.6208,-2.6208,-2.6208,-2.6208,-2.622,-2.622,-2.6208,-2.6208,-2.6047,-2.5838,-2.5676,-2.5477,-2.5288,-2.5135,-2.5099,-2.5111,-2.5099,-2.4886,-2.4647,-2.4432,-2.4141,-2.4298,-2.5028,-2.4874,-2.4767,-2.4731,-2.4443,-2.4227,-2.4238,-2.4105,-2.4007,-2.397,-2.397,-2.397,-2.397,-2.4007,-2.4007,-2.397,-2.4007,-2.4018,-2.4043,-2.4043,-2.4127,-2.4286,-2.4277,-2.4328,-2.4637,-2.5303,-2.5881,-2.5809,-2.5507,-2.5315,-2.5298,-2.5146,-2.4975,-2.5084,-2.4813,-2.4558,-2.4572,-2.4252,-2.3995,-2.4037,-2.4176,-2.4321,-2.4408,-2.465,-2.4823,-2.4757,-2.4491,-2.4104,-2.3539,-2.3515,-2.3548,-2.002,-2.0059,-2.0313,-2.0527,-2.0693,-2.0905,-2.128,-2.1836,-2.223,-2.2478,-2.2515,-2.2515,-2.2542,-2.258,-2.274,-2.2927,-2.3113,-2.3261,-2.3446,0.0,-2.3641,-2.3677,-2.374,-2.3714,-2.374,-2.3787,-2.3787,-2.3861,-2.4007,-2.4055,-2.4116,-2.4273,-2.4298,-2.4298,-2.4334,-2.4334,-2.4406,-2.4503,-2.5135,-2.5441,-2.5441,-2.5441,-2.5441,-2.5488,-2.5441,-2.5441,-2.5441,-2.5441,-2.5453,-2.5453,-2.5111,-2.4898,-2.4862,-2.4563,-2.437,-2.437,-2.437,-2.437,-2.4345,-2.3995,-2.3629,-2.3287,-2.3187,-2.3519,-2.4261,-2.3995,-2.3813,-2.3765,-2.3471,-2.3213,-2.3213,-2.3187,-2.3187,-2.3187,-2.3198,-2.315,-2.3187,-2.3187,-2.3187,-2.3187,-2.3187,-2.3261,-2.3409,-2.3398,-2.3475,-2.3624,-2.35,-2.3303,-2.3271,-2.4043,-2.4558,-2.4274,-2.4114,-2.4131,-2.4263,-2.4304,-2.4114,-2.3966,-2.3891,-2.3704,-2.351,-2.3376,-2.3318,-2.345,-2.3658,-2.3793,-2.3923,-2.4128,-2.4092,-2.3849,-2.3444,-2.2964,-2.2477,-2.2243,-2.2183,-1.9587,-1.9618,-1.9942,-2.0271,-2.0611,-2.1162,-2.1619,-2.2029,-2.2318,-2.2582,-2.2767,-2.2767,-2.2934,-2.3179,-2.3246,-2.3335,-2.3429,-2.3258,-2.3243,-2.3297,-2.3084,-2.3065,-2.3261,-2.3261,-2.3409,-2.3593,-2.3593,-2.3629,-2.3714,-2.3714,-2.3776,-2.3849,-2.3861,-2.3849,-2.3861,-2.3861,-2.3872,-2.3897,-2.4442,-2.4718,-2.4718,-2.4683,-2.4707,-2.4683,-2.473,-2.4718,-2.4718,-2.4683,-2.4718,-2.4683,-2.4419,-2.4202,-2.4118,-2.3838,-2.3677,-2.3556,-2.3567,-2.3556,-2.3556,-2.3187,-2.2815,-2.2553,-2.2402,-2.2478,-2.2863,-2.3027,-2.3113,-2.3113,-2.274,-2.2515,-2.2515,-2.2402,-2.2327,-2.2327,-2.2365,-2.2365,-2.2365,-2.2478,-2.2515,-2.2515,-2.2628,-2.2703,-2.2804,-2.2587,-2.2498,-2.2674,-2.2515,-2.2225,-2.188,-2.2297,-2.2898,-2.3246,-2.3134,-2.3022,-2.3173,-2.3019,-2.2874,-2.2747,-2.2816,-2.2843,-2.272,-2.2714,-2.2818,-2.2982,-2.312,-2.3241,-2.3373,-2.3582,-2.3502,-2.3098,-2.2711,-2.2258,-2.1863,-2.1571,-2.1633,-1.9246,-1.9399,-1.9678,-2.012,-2.0696,-2.1444,-2.1928,-2.2239,-2.2443,-2.2815,-2.3125,-2.3012,-2.3214,-2.3577,-2.3577,-2.3627,-2.3695,-2.3366,-2.3197,-2.3222,-2.2785,-2.2713,-2.2993,-2.2917,-2.3027,-2.3298,-2.3335,-2.3346,-2.3335,-2.3346,-2.3346,-2.3335,-2.3335,-2.3335,-2.3335,-2.3335,-2.3335,-2.3335,-2.3641,-2.3897,-2.4055,-2.4055,-2.4043,-2.4007,-2.4007,-2.397,-2.3945,-2.3934,-2.3934,-2.3934,-2.374,-2.3556,-2.3409,-2.3224,-2.3001,-2.2852,-2.2777,-2.2777,-2.2665,-2.2365,-2.2101,-2.1921,-2.1769,-2.1655,-2.1645,-2.2014,-2.2317,-2.2365,-2.2111,-2.1873,-2.1873,-2.1769,-2.1655,-2.1665,-2.1655,-2.1693,-2.1693,-2.1797,-2.1921,-2.1911,-2.2035,-2.2107,-2.2035,-2.175,-2.1553,-2.1528,-2.1404,-2.1176,-2.0851,-2.0742,-2.1252,-2.1878,-2.205,-2.1962,-2.2069,-2.1917,-2.1777,-2.1769,-2.1937,-2.2073,-2.2173,-2.2247,-2.2309,-2.2494,-2.2647,-2.2757,-2.2787,-2.2905,-2.2812,-2.2356,-2.1969,-2.1649,-2.129,-2.1152,-2.1267,-1.9057,-1.9539,-1.9639,-2.0081,-2.0862,-2.1504,-2.1992,-2.2211,-2.2602,-2.3037,-2.3352,-2.2833,-2.2706,-2.2879,-2.292,-2.3185,-2.3549,-2.3505,-2.3564,-2.3671,-2.3264,-2.3041,-2.3047,-2.2691,-2.2478,-2.2574,-2.2553,-2.259,-2.259,-2.2553,-2.2505,-2.2515,-2.2515,-2.2542,-2.2515,-2.2553,-2.2515,-2.2505,-2.2553,-2.2927,-2.3593,-2.3629,-2.3556,-2.3372,-2.3372,-2.3298,-2.315,-2.3113,-2.3113,-2.3075,-2.2927,-2.2826,-2.2777,-2.259,-2.2402,-2.2214,-2.2187,-2.2035,-2.1693,-2.1617,-2.1502,-2.132,-2.1244,-2.1167,-2.1021,-2.1021,-2.1223,-2.1464,-2.1397,-2.1282,-2.1292,-2.1244,-2.1205,-2.1205,-2.1205,-2.1244,-2.1244,-2.1292,-2.1272,-2.1282,-2.1328,-2.1255,-2.1135,-2.0977,-2.0752,-2.0351,-2.0353,-2.0266,-1.9949,-1.9853,-1.9952,-2.0314,-2.052,-2.0899,-2.1069,-2.1056,-2.1158,-2.1368,-2.1451,-2.1569,-2.1675,-2.1781,-2.1824,-2.2018,-2.2154,-2.2309,-2.2323,-2.2249,-2.191,-2.153,-2.1152,-2.079,-2.0579,-2.06,-2.0896,-1.8953,-1.9236,-1.9725,-2.0461,-2.1239,-2.1755,-2.2108,-2.2345,-2.2639,-2.2925,-2.3071,-2.2893,-2.3043,-2.3382,-2.3382,-2.3593,-2.3887,-2.3619,-2.3629,-2.3803,-2.3404,-2.3213,-2.329,-2.2857,-2.2702,-2.2785,-2.2541,-2.2402,-2.2392,-2.2402,-2.2392,-2.2392,-2.2392,-2.2392,-2.2392,-2.2392,-2.2392,-2.2392,-2.2392,-2.2515,-2.2703,-2.2815,-2.2852,-2.2777,-2.2777,-2.274,-2.2628,-2.2553,-2.2478,-2.244,-2.23,-2.2111,-2.1997,-2.1911,-2.1769,-2.1578,-2.1589,-2.1464,-2.1185,-2.1031,-2.0886,-2.0664,-2.0537,-2.0411,-2.0323,-2.0333,-2.0401,-2.0527,-2.0605,-2.0664,-2.0664,-2.0527,-2.0459,-2.0459,-2.042,-2.0459,-2.042,-2.0576,-2.0693,-2.0789,-2.0687,-2.0639,-2.0633,-2.0234,-1.9712,-1.9295,-1.9229,-1.9248,-1.9273,-1.9308,-1.945,-1.9671,-1.9933,-2.0205,-2.0496,-2.0722,-2.0818,-2.0946,-2.0978,-2.1042,-2.1201,-2.1328,-2.1454,-2.1569,-2.1737,-2.1874,-2.1968,-2.1698,-2.133,-2.0844,-2.0338,-2.0022,-1.9939,-2.0093,-2.041,-1.8984,-1.9337,-2.015,-2.0939,-2.1571,-2.1868,-2.2097,-2.2362,-2.2574,-2.2706,-2.2847,-2.3013,-2.3266,-2.358,-2.3667,-2.3851,-2.4026,-2.3722,-2.3716,-2.3928,-2.3505,-2.3421,-2.3532,-2.3133,-2.2993,-2.3058,-2.2773,-2.2541,-2.2414,-2.2294,-2.2252,-2.2214,-2.2214,-2.2214,-2.2138,-2.2138,-2.2101,-2.2063,-2.2063,-2.1987,-2.1883,-2.1987,-2.2101,-2.2138,-2.2149,-2.2138,-2.2073,-2.1911,-2.1845,-2.1845,-2.1731,-2.1578,-2.1425,-2.1349,-2.1195,-2.0974,-2.0896,-2.077,-2.0634,-2.0479,-2.0333,-2.0186,-1.999,-1.9872,-1.9824,-1.9824,-1.9784,-1.9784,-1.9902,-2.0029,-2.0147,-2.002,-1.9902,-1.9912,-1.9912,-1.9912,-1.9951,-2.0098,-2.0216,-2.0198,-2.0041,-1.9927,-1.9892,-1.9358,-1.8774,-1.8548,-1.8526,-1.8583,-1.8841,-1.8942,-1.9008,-1.9274,-1.9374,-1.9681,-2.0074,-2.0237,-2.041,-2.0508,-2.0496,-2.0582,-2.0743,-2.0935,-2.1063,-2.1158,-2.136,-2.1451,-2.1487,-2.1223,-2.0635,-2.0165,-1.9743,-1.9447,-1.95,-1.972,-1.9901,-1.9186,-2.014,-2.0944,-2.1445,-2.1713,-2.1722,-2.1874,-2.2141,-2.2353,-2.2574,-2.2794,-2.3003,-2.3144,-2.3188,-2.3416,-2.3624,-2.3797,-2.379,-2.391,-2.4094,-2.3696,-2.3617,-2.3857,-2.3421,-2.3204,-2.3193,-2.313,-2.2912,-2.2499,-2.2094,-2.1845,-2.1838,-2.188,-2.1772,-2.1658,-2.163,-2.1446,-2.1369,-2.1359,-2.1282,-2.1244,-2.1244,-2.1397,-2.1502,-2.154,-2.1502,-2.132,-2.1282,-2.1254,-2.1244,-2.1205,-2.1195,-2.1156,-2.0992,-2.076,-2.0381,-2.0108,-1.9981,-1.9981,-1.9942,-1.9942,-1.9902,-1.9824,-1.9794,-1.9597,-1.9566,-1.9478,-1.9341,-1.935,-1.9499,-1.9784,-1.9824,-1.9824,-1.9863,-1.9863,-1.9863,-1.9863,-1.9816,-1.9704,-1.9478,-1.9364,-1.9114,-1.8634,-1.8236,-1.8184,-1.8255,-1.8381,-1.8482,-1.8506,-1.8539,-1.8573,-1.8674,-1.8908,-1.9241,-1.9539,-1.9802,-1.9846,-1.9944,-2.0129,-2.0172,-2.0388,-2.0572,-2.0658,-2.0786,-2.0914,-2.1017,-2.1006,-2.0572,-1.9837,-1.9388,-1.92,-1.9054,-1.9133,-1.9434,-1.9617,-1.9834,-2.0713,-2.0998,-2.1365,-2.1696,-2.1687,-2.1776,-2.1874,-2.222,-2.2432,-2.2618,-2.2916,-2.3101,-2.3101,-2.3188,-2.3363,-2.359,-2.359,-2.3721,-2.3917,-2.3755,-2.3738,-2.3772,-2.3534,-2.3412,-2.3371,-2.3247,-2.302,-2.2705,-2.2391,-2.225,-2.224,-2.225,-2.2068,-2.1746,-2.1696,-2.1536,-2.1245,-2.1215,-2.1138,-2.1022,-2.1022,-2.1012,-2.0915,-2.1167,-2.1282,-2.1215,-2.1051,-2.0935,-2.0799,-2.0693,-2.0537,-2.0381,-2.0284,-2.0216,-2.0059,-1.9981,-1.9824,-1.9754,-1.9715,-1.9597,-1.9359,-1.9311,-1.924,-1.9051,-1.9011,-1.9011,-1.8931,-1.8922,-1.9002,-1.9121,-1.9359,-1.9499,-1.9499,-1.9499,-1.9499,-1.9444,-1.9286,-1.9093,-1.9051,-1.8788,-1.833,-1.7983,-1.7728,-1.771,-1.7803,-1.7896,-1.8022,-1.8168,-1.8279,-1.8371,-1.8482,-1.8617,-1.8774,-1.8841,-1.9341,-1.9648,-1.9681,-1.9769,-1.9802,-1.9944,-2.0194,-2.0313,-2.0388,-2.0518,-2.0578,-2.0568,-2.0205,-1.9396,-1.87,-1.8533,-1.8682,-1.8801,-1.904,-1.9186,-2.0329,-2.0934,-2.0997,-2.1275,-2.1687,-2.1687,-2.1687,-2.1785,-2.2167,-2.2397,-2.2476,-2.2882,-2.3101,-2.3101,-2.3101,-2.3188,-2.3363,-2.3363,-2.3493,-2.3711,-2.3711,-2.3711,-2.3747,-2.3657,-2.361,-2.3539,-2.334,-2.3115,-2.292,-2.2624,-2.2482,-2.2472,-2.2482,-2.2301,-2.198,-2.181,-2.153,-2.1251,-2.1092,-2.0886,-2.0741,-2.0712,-2.0586,-2.045,-2.0654,-2.0819,-2.0896,-2.0693,-2.0537,-2.0372,-2.0264,-2.0069,-1.9824,-1.9794,-1.9754,-1.9696,-1.9627,-1.9548,-1.9399,-1.9329,-1.917,-1.8931,-1.8891,-1.8851,-1.87,-1.8709,-1.8709,-1.8709,-1.8709,-1.8709,-1.874,-1.8962,-1.9121,-1.9112,-1.9112,-1.9152,-1.9173,-1.8845,-1.8614,-1.8406,-1.8015,-1.7661,-1.7458,-1.7401,-1.7461,-1.7461,-1.7598,-1.7691,-1.7837,-1.7964,-1.8134,-1.8236,-1.8347,-1.8438,-1.8539,-1.8875,-1.9175,-1.9241,-1.9407,-1.945,-1.9539,-1.9791,-1.9944,-1.9987,-2.0063,-2.0147,-2.0037,-1.9715,-1.9048,-1.8237,-1.8139,-1.8344,-1.8479,-1.864,-1.8801,-2.0546,-2.0997,-2.0997,-2.1275,-2.1687,-2.1687,-2.1687,-2.1776,-2.223,-2.2397,-2.2476,-2.2872,-2.3101,-2.3101,-2.3101,-2.3101,-2.3144,-2.3144,-2.3285,-2.345,-2.3493,-2.359,-2.3744,-2.3747,-2.376,-2.375,-2.3398,-2.3207,-2.3167,-2.2772,-2.253,-2.2511,-2.2581,-2.2438,-2.2215,-2.1827,-2.148,-2.1203,-2.0889,-2.0566,-2.0333,-2.0303,-2.0186,-1.9981,-1.9981,-2.0059,-2.0303,-2.0059,-1.9981,-1.9942,-1.9902,-1.9784,-1.9636,-1.9557,-1.9527,-1.9311,-1.9152,-1.9002,-1.9002,-1.8851,-1.878,-1.87,-1.8692,-1.8692,-1.862,-1.862,-1.862,-1.862,-1.862,-1.866,-1.866,-1.866,-1.8692,-1.87,-1.878,-1.8851,-1.8899,-1.8641,-1.8176,-1.7651,-1.7228,-1.704,-1.7141,-1.721,-1.7245,-1.7401,-1.747,-1.7495,-1.7529,-1.7657,-1.7716,-1.7818,-1.7998,-1.8202,-1.8303,-1.8405,-1.8607,-1.8774,-1.8975,-1.9075,-1.9208,-1.9396,-1.9561,-1.9638,-1.9769,-1.9836,-1.9472,-1.913,-1.8799,-1.8182,-1.8148,-1.8014,-1.8127,-1.8302,-1.8491,-2.0555,-2.0997,-2.0997,-2.1266,-2.1687,-2.1687,-2.1687,-2.1731,-2.222,-2.2397,-2.2476,-2.2872,-2.3101,-2.3101,-2.3101,-2.3101,-2.3101,-2.3101,-2.3144,-2.3232,-2.3232,-2.3276,-2.3363,-2.3493,-2.3667,-2.3744,-2.3537,-2.3424,-2.3342,-2.3041,-2.2916,-2.2916,-2.2896,-2.2716,-2.2441,-2.2252,-2.1916,-2.1229,-2.0934,-2.0642,-2.0342,-2.0108,-1.9981,-1.9902,-1.9754,-1.9754,-1.9833,-1.9872,-1.9833,-1.9715,-1.9685,-1.9597,-1.9429,-1.928,-1.9161,-1.9073,-1.8931,-1.8772,-1.8772,-1.8732,-1.8612,-1.8523,-1.8491,-1.8411,-1.825,-1.8241,-1.8241,-1.8241,-1.8201,-1.8201,-1.821,-1.821,-1.8371,-1.866,-1.8709,-1.8683,-1.8674,-1.833,-1.7667,-1.7044,-1.6903,-1.6943,-1.6968,-1.7003,-1.7047,-1.7116,-1.722,-1.7279,-1.7314,-1.7461,-1.7564,-1.7598,-1.7794,-1.793,-1.7998,-1.81,-1.8269,-1.8438,-1.8607,-1.8774,-1.8908,-1.9042,-1.9175,-1.9341,-1.944,-1.936,-1.8996,-1.8685,-1.8397,-1.8103,-1.7901,-1.7835,-1.7844,-1.7975,-1.8193,-2.0555,-2.0997,-2.0997,-2.1275,-2.1687,-2.1687,-2.1741,-2.1865,-2.222,-2.2432,-2.2618,-2.2925,-2.3101,-2.3101,-2.3101,-2.3101,-2.3101,-2.3101,-2.3101,-2.3101,-2.3101,-2.3101,-2.3091,-2.3276,-2.3416,-2.3493,-2.3416,-2.3363,-2.3363,-2.3188,-2.3091,-2.3091,-2.3101,-2.2964,-2.2691,-2.2578,-2.2165,-2.1605,-2.1134,-2.0715,-2.0286,-1.9948,-1.9745,-1.9666,-1.9557,-1.9518,-1.9518,-1.9627,-1.9627,-1.9478,-1.9439,-1.9311,-1.9192,-1.9002,-1.8891,-1.8851,-1.8723,-1.8612,-1.8571,-1.8491,-1.8362,-1.8273,-1.8241,-1.8201,-1.8031,-1.7991,-1.7991,-1.7991,-1.8031,-1.7991,-1.7991,-1.7991,-1.8161,-1.8371,-1.8411,-1.8421,-1.8325,-1.795,-1.7484,-1.6956,-1.6755,-1.6788,-1.6795,-1.6874,-1.6908,-1.6943,-1.7003,-1.7107,-1.7141,-1.7245,-1.7314,-1.7426,-1.7554,-1.7657,-1.7657,-1.7794,-1.7954,-1.8134,-1.8303,-1.8472,-1.8617,-1.8741,-1.8875,-1.9042,-1.9208,-1.9131,-1.8829,-1.8569,-1.83,-1.7995,-1.7678,-1.7539,-1.7507,-1.77,-1.7893,-2.06,-2.0997,-2.0997,-2.1275,-2.1687,-2.1687,-2.182,-2.2097,-2.2318,-2.253,-2.2803,-2.3013,-2.3101,-2.3101,-2.3101,-2.3101,-2.3101,-2.3101,-2.3101,-2.3101,-2.3101,-2.3101,-2.3091,-2.3135,-2.3188,-2.3178,-2.3135,-2.3135,-2.3144,-2.3101,-2.3101,-2.3101,-2.3101,-2.3101,-2.2974,-2.2691,-2.2421,-2.2019,-2.1329,-2.073,-2.0255,-1.9857,-1.9545,-1.935,-1.9341,-1.9301,-1.9341,-1.9341,-1.9301,-1.9271,-1.9121,-1.9042,-1.8971,-1.8772,-1.87,-1.8652,-1.8482,-1.8402,-1.8322,-1.8201,-1.8031,-1.8031,-1.804,-1.7991,-1.7991,-1.7991,-1.7991,-1.7991,-1.7991,-1.7991,-1.7991,-1.7991,-1.804,-1.7991,-1.8072,-1.8014,-1.7809,-1.7643,-1.7386,-1.7016,-1.6768,-1.6666,-1.6764,-1.6886,-1.6938,-1.6908,-1.6934,-1.6943,-1.6978,-1.7072,-1.7176,-1.7279,-1.7348,-1.7417,-1.7451,-1.7623,-1.7759,-1.7828,-1.7998,-1.8168,-1.8381,-1.8472,-1.8607,-1.8774,-1.8911,-1.8849,-1.8762,-1.8533,-1.8202,-1.7856,-1.7549,-1.7255,-1.7239,-1.7434,-1.7562,-2.0736,-2.0997,-2.1195,-2.1472,-2.1687,-2.1687,-2.183,-2.2097,-2.2309,-2.2574,-2.2794,-2.3023,-2.3101,-2.3101,-2.3101,-2.3101,-2.3101,-2.3101,-2.3101,-2.3101,-2.3101,-2.3101,-2.3101,-2.3101,-2.3101,-2.3101,-2.3101,-2.3101,-2.3101,-2.3101,-2.3101,-2.3101,-2.3101,-2.3101,-2.3062,-2.2843,-2.2563,-2.2164,-2.1636,-2.0926,-2.0285,-1.9964,-1.9644,-1.9311,-1.9301,-1.9301,-1.9253,-1.9143,-1.9073,-1.9082,-1.9042,-1.8931,-1.8772,-1.8612,-1.8482,-1.8442,-1.8282,-1.8112,-1.8121,-1.804,-1.7991,-1.7991,-1.7991,-1.7991,-1.7991,-1.7991,-1.7991,-1.7991,-1.7991,-1.7991,-1.7991,-1.7991,-1.7991,-1.7991,-1.7991,-1.7903,-1.7704,-1.7661,-1.7567,-1.7237,-1.7302,-1.7252,-1.7135,-1.7188,-1.7248,-1.7046,-1.6963,-1.6945,-1.7016,-1.6943,-1.7038,-1.7038,-1.7107,-1.721,-1.7314,-1.7451,-1.7564,-1.7598,-1.7735,-1.7896,-1.81,-1.8279,-1.8414,-1.8539,-1.865,-1.8622,-1.8641,-1.8568,-1.8176,-1.7758,-1.7508,-1.7272,-1.7116,-1.7149,-1.7228,-2.0826,-2.0997,-2.1302,-2.1517,-2.1696,-2.183,-2.2008,-2.223,-2.2485,-2.2706,-2.2925,-2.3057,-2.3101,-2.3101,-2.3101,-2.3101,-2.3101,-2.3101,-2.3101,-2.3101,-2.3101,-2.3101,-2.3101,-2.3101,-2.3101,-2.3101,-2.3101,-2.3101,-2.3101,-2.3101,-2.3101,-2.3101,-2.3101,-2.3101,-2.3091,-2.2916,-2.2654,-2.2274,-2.1782,-2.115,-2.0615,-2.0122,-1.9833,-1.9549,-1.9421,-1.9262,-1.9183,-1.9073,-1.9002,-1.8962,-1.8843,-1.8683,-1.8571,-1.8362,-1.8241,-1.8233,-1.808,-1.7991,-1.7991,-1.7991,-1.7991,-1.7991,-1.7991,-1.7991,-1.7991,-1.7991,-1.7991,-1.7991,-1.7991,-1.7991,-1.7991,-1.7991,-1.7991,-1.7991,-1.7991,-1.7954,-1.7715,-1.7687,-1.7592,-1.7452,-1.745,-1.7516,-1.734,-1.7505,-1.7542,-1.7432,-1.7293,-1.7238,-1.7174,-1.7027,-1.6908,-1.6943,-1.6978,-1.7038,-1.7141,-1.7245,-1.7382,-1.7426,-1.7529,-1.7691,-1.7896,-1.8076,-1.8212,-1.8347,-1.8381,-1.8452,-1.8509,-1.8469,-1.8124,-1.777,-1.7531,-1.7284,-1.7077,-1.6935,-1.7016,-2.0871,-2.1042,-2.1293,-2.1526,-2.1741,-2.1963,-2.2185,-2.2441,-2.2671,-2.2872,-2.3057,-2.3101,-2.3101,-2.3101,-2.3101,-2.3101,-2.3101,-2.3101,-2.3101,-2.3101,-2.3101,-2.3101,-2.3101,-2.3101,-2.3101,-2.3101,-2.3101,-2.3101,-2.3101,-2.3101,-2.3101,-2.3101,-2.3101,-2.3101,-2.3003,-2.2838,-2.2618,-2.2303,-2.1786,-2.138,-2.0949,-2.0466,-2.0118,-1.9824,-1.9476,-1.921,-1.9082,-1.8971,-1.8913,-1.8913,-1.8594,-1.8442,-1.8353,-1.8121,-1.804,-1.804,-1.804,-1.7991,-1.7991,-1.7991,-1.7991,-1.7991,-1.7991,-1.7991,-1.7991,-1.7991,-1.7991,-1.7991,-1.7991,-1.7991,-1.7991,-1.7991,-1.7991,-1.7991,-1.7991,-1.7991,-1.7931,-1.7732,-1.7565,-1.7557,-1.741,-1.7445,-1.7546,-1.7725,-1.7913,-1.7798,-1.766,-1.7532,-1.7394,-1.7229,-1.7055,-1.6908,-1.6908,-1.6908,-1.6968,-1.7072,-1.7176,-1.7245,-1.7358,-1.7529,-1.7769,-1.794,-1.8042,-1.8144,-1.8178,-1.8269,-1.8442,-1.8288,-1.8036,-1.7841,-1.7646,-1.7246,-1.6926,-1.6863,-1.6911,-2.1105,-2.1338,-2.1562,-2.1651,-2.1741,-2.2008,-2.223,-2.2441,-2.2706,-2.2925,-2.3047,-2.3101,-2.3101,-2.3101,-2.3101,-2.3101,-2.3101,-2.3101,-2.3101,-2.3101,-2.3101,-2.3101,-2.3101,-2.3101,-2.3101,-2.3101,-2.3101,-2.3101,-2.3101,-2.3101,-2.3101,-2.3101,-2.3101,-2.3013,-2.2838,-2.2618,-2.2407,-2.2122,-2.1808,-2.1454,-2.1172,-2.0924,-2.0503,-1.9948,-1.95,-1.9219,-1.9002,-1.8851,-1.8692,-1.8563,-1.8442,-1.8273,-1.8152,-1.8031,-1.7991,-1.7991,-1.7991,-1.7991,-1.7991,-1.7991,-1.7991,-1.7991,-1.7991,-1.7991,-1.7991,-1.7991,-1.7991,-1.7991,-1.7991,-1.7991,-1.7991,-1.7991,-1.7991,-1.7991,-1.7991,-1.7991,-1.7983,-1.7914,-1.7886,-1.79,-1.7999,-1.8105,-1.797,-1.8145,-1.821,-1.8126,-1.7981,-1.7844,-1.766,-1.7477,-1.7238,-1.7055,-1.6908,-1.6908,-1.6943,-1.6968,-1.7038,-1.7107,-1.721,-1.7289,-1.7529,-1.7691,-1.7794,-1.7896,-1.7964,-1.809,-1.8226,-1.8297,-1.8122,-1.7931,-1.7737,-1.7313,-1.6992,-1.6868,-1.6738,-2.115,-2.1392,-2.1616,-2.1776,-2.1909,-2.2141,-2.2353,-2.2618,-2.2838,-2.3013,-2.3101,-2.3101,-2.3101,-2.3101,-2.3101,-2.3101,-2.3101,-2.3101,-2.3101,-2.3101,-2.3101,-2.3101,-2.3101,-2.3101,-2.3101,-2.3101,-2.3101,-2.3101,-2.3101,-2.3101,-2.3101,-2.3101,-2.3101,-2.3013,-2.2794,-2.253,-2.2318,-2.2097,-2.183,-2.1568,-2.1429,-2.1181,-2.0732,-2.004,-1.9655,-1.941,-1.8909,-1.878,-1.8531,-1.8282,-1.8201,-1.8152,-1.804,-1.7991,-1.7991,-1.7991,-1.7991,-1.7991,-1.7991,-1.7991,-1.7991,-1.7991,-1.7991,-1.7991,-1.7991,-1.7991,-1.7991,-1.7991,-1.7991,-1.7991,-1.7991,-1.7991,-1.7991,-1.7991,-1.7991,-1.7991,-1.7991,-1.7991,-1.7991,-1.8031,-1.8086,-1.824,-1.8364,-1.8464,-1.8671,-1.8627,-1.8429,-1.8293,-1.8091,-1.7871,-1.7486,-1.7238,-1.7018,-1.6917,-1.6908,-1.6943,-1.6934,-1.7003,-1.7038,-1.7081,-1.7185,-1.7348,-1.7476,-1.7623,-1.7759,-1.7852,-1.7944,-1.8037,-1.8128,-1.7998,-1.7734,-1.7335,-1.7063,-1.694,-1.6748,-2.1195,-2.1437,-2.1696,-2.1874,-2.2141,-2.2362,-2.2583,-2.2794,-2.3003,-2.3091,-2.3101,-2.3101,-2.3101,-2.3101,-2.3101,-2.3101,-2.3101,-2.3101,-2.3101,-2.3101,-2.3101,-2.3101,-2.3101,-2.3101,-2.3101,-2.3101,-2.3101,-2.3101,-2.3101,-2.3101,-2.3101,-2.3101,-2.3101,-2.2916,-2.275,-2.253,-2.2264,-2.2008,-2.182,-2.1678,-2.1614,-2.1339,-2.0888,-2.0356,-1.9893,-1.9516,-1.899,-1.8722,-1.8491,-1.8031,-1.7991,-1.7991,-1.7991,-1.7991,-1.7991,-1.7991,-1.7991,-1.7991,-1.7991,-1.7991,-1.7991,-1.7991,-1.7991,-1.7991,-1.7991,-1.7991,-1.7991,-1.7991,-1.7991,-1.7991,-1.7991,-1.7991,-1.7991,-1.7991,-1.7991,-1.7991,-1.7991,-1.7991,-1.7991,-1.7991,-1.808,-1.8189,-1.8479,-1.8643,-1.8966,-1.9137,-1.8932,-1.8715,-1.8504,-1.8201,-1.7779,-1.7358,-1.7101,-1.6936,-1.6908,-1.6908,-1.6943,-1.6943,-1.6934,-1.6943,-1.6943,-1.7081,-1.7245,-1.7417,-1.7554,-1.7647,-1.7716,-1.7784,-1.7876,-1.7872,-1.7783,-1.7474,-1.7241,-1.7024,-1.6827,-2.1472,-2.1642,-2.1919,-2.2052,-2.2185,-2.253,-2.275,-2.2838,-2.3003,-2.3101,-2.3101,-2.3101,-2.3101,-2.3101,-2.3101,-2.3101,-2.3101,-2.3101,-2.3101,-2.3101,-2.3101,-2.3101,-2.3101,-2.3101,-2.3101,-2.3101,-2.3101,-2.3101,-2.3101,-2.3101,-2.3101,-2.3101,-2.3101,-2.2916,-2.2574,-2.2397,-2.2176,-2.1865,-2.1731,-2.1687,-2.1659,-2.1568,-2.1293,-2.0787,-2.0278,-1.9725,-1.924,-1.886,-1.8491,-1.8072,-1.7991,-1.7991,-1.7991,-1.7991,-1.7991,-1.7991,-1.7991,-1.7991,-1.7991,-1.7991,-1.7991,-1.7991,-1.7991,-1.7991,-1.7991,-1.7991,-1.7991,-1.7991,-1.7991,-1.7991,-1.7991,-1.7991,-1.7991,-1.7991,-1.7991,-1.7991,-1.7991,-1.7991,-1.7991,-1.7991,-1.804,-1.8161,-1.85,-1.874,-1.8962,-1.9143,-1.9125,-1.8944,-1.876,-1.8403,-1.7972,-1.755,-1.7138,-1.7009,-1.6908,-1.6908,-1.6908,-1.6908,-1.6908,-1.6908,-1.6908,-1.6908,-1.7047,-1.722,-1.7392,-1.7495,-1.7564,-1.7598,-1.7657,-1.7731,-1.7692,-1.762,-1.7408,-1.7164,-1.7115,-2.1526,-2.1741,-2.1963,-2.2141,-2.2309,-2.2627,-2.2882,-2.296,-2.3057,-2.3101,-2.3101,-2.3101,-2.3101,-2.3101,-2.3101,-2.3101,-2.3101,-2.3101,-2.3101,-2.3101,-2.3101,-2.3101,-2.3101,-2.3101,-2.3101,-2.3101,-2.3101,-2.3101,-2.3101,-2.3101,-2.3101,-2.3101,-2.3101,-2.2882,-2.2485,-2.2397,-2.2132,-2.182,-2.1687,-2.1687,-2.1687,-2.1687,-2.1458,-2.1099,-2.0741,-2.0189,-1.9506,-1.9167,-1.8765,-1.8285,-1.8072,-1.8031,-1.7991,-1.7991,-1.7991,-1.7991,-1.7991,-1.7991,-1.7991,-1.7991,-1.7991,-1.7991,-1.7991,-1.7991,-1.7991,-1.7991,-1.7991,-1.7991,-1.7991,-1.7991,-1.7991,-1.7991,-1.7991,-1.7991,-1.7991,-1.7991,-1.7991,-1.7991,-1.8031,-1.8031,-1.804,-1.821,-1.858,-1.878,-1.8922,-1.9112,-1.9253,-1.9164,-1.8981,-1.8614,-1.8192,-1.7724,-1.7303,-1.7037,-1.6936,-1.6908,-1.6908,-1.6908,-1.6908,-1.6908,-1.6908,-1.6908,-1.6943,-1.7047,-1.7185,-1.7323,-1.7392,-1.7426,-1.7486,-1.7554,-1.7565,-1.7513,-1.749,-1.7363,-1.7291,-2.1571,-2.1776,-2.2052,-2.2274,-2.2485,-2.2759,-2.2969,-2.3091,-2.3101,-2.3101,-2.3101,-2.3101,-2.3101,-2.3101,-2.3101,-2.3101,-2.3101,-2.3101,-2.3101,-2.3101,-2.3101,-2.3101,-2.3101,-2.3101,-2.3101,-2.3101,-2.3101,-2.3101,-2.3101,-2.3101,-2.3101,-2.3101,-2.3101,-2.2882,-2.2485,-2.2397,-2.2087,-2.182,-2.1687,-2.1687,-2.1687,-2.1668,-2.1549,-2.1245,-2.1145,-2.0683,-1.9976,-1.9519,-1.9067,-1.8603,-1.8262,-1.8072,-1.8031,-1.7991,-1.7991,-1.7991,-1.7991,-1.7991,-1.7991,-1.7991,-1.7991,-1.7991,-1.7991,-1.7991,-1.7991,-1.7991,-1.7991,-1.7991,-1.7991,-1.7991,-1.7991,-1.7991,-1.7991,-1.7991,-1.7991,-1.7991,-1.7991,-1.8031,-1.808,-1.808,-1.804,-1.829,-1.862,-1.8851,-1.9002,-1.9143,-1.9292,-1.9292,-1.91,-1.8834,-1.8421,-1.7908,-1.7477,-1.7119,-1.6963,-1.6908,-1.6908,-1.6908,-1.6908,-1.6908,-1.6908,-1.6908,-1.6943,-1.6943,-1.7012,-1.7151,-1.722,-1.7254,-1.7314,-1.7358,-1.7436,-1.7457,-1.7445,-1.7427,-1.735,-2.183,-2.2097,-2.2264,-2.253,-2.275,-2.2969,-2.3091,-2.3091,-2.3101,-2.3101,-2.3101,-2.3101,-2.3101,-2.3101,-2.3101,-2.3101,-2.3101,-2.3101,-2.3101,-2.3101,-2.3101,-2.3101,-2.3101,-2.3101,-2.3101,-2.3101,-2.3101,-2.3101,-2.3101,-2.3101,-2.3101,-2.3101,-2.3047,-2.2872,-2.2441,-2.2397,-2.2176,-2.1776,-2.1687,-2.1687,-2.1687,-2.1687,-2.1641,-2.1513,-2.1284,-2.0976,-2.0531,-1.9988,-1.9445,-1.9009,-1.8554,-1.8276,-1.8031,-1.7991,-1.7991,-1.7991,-1.7991,-1.7991,-1.8008,-1.7991,-1.7991,-1.7991,-1.7991,-1.7991,-1.7991,-1.7991,-1.7991,-1.7991,-1.7991,-1.7991,-1.7991,-1.7991,-1.7991,-1.7991,-1.7991,-1.7991,-1.7991,-1.8112,-1.8161,-1.8282,-1.8322,-1.8442,-1.87,-1.8882,-1.9073,-1.9183,-1.9292,-1.9292,-1.9201,-1.8916,-1.865,-1.8155,-1.7651,-1.7275,-1.7064,-1.7,-1.6908,-1.6908,-1.6908,-1.6908,-1.6908,-1.6908,-1.6908,-1.6943,-1.6978,-1.6978,-1.7047,-1.7081,-1.7116,-1.7151,-1.722,-1.7358,-1.7486,-1.741,-1.7324,-2.2008,-2.2141,-2.2485,-2.2706,-2.2803,-2.3013,-2.3101,-2.3101,-2.3101,-2.3101,-2.3101,-2.3101,-2.3101,-2.3101,-2.3101,-2.3101,-2.3101,-2.3101,-2.3101,-2.3101,-2.3101,-2.3101,-2.3101,-2.3101,-2.3101,-2.3101,-2.3101,-2.3101,-2.3101,-2.3101,-2.3101,-2.3101,-2.3091,-2.2872,-2.2441,-2.2397,-2.2132,-2.183,-2.1687,-2.1687,-2.1687,-2.1687,-2.1687,-2.1687,-2.1495,-2.1268,-2.0898,-2.056,-2.0087,-1.97,-1.9267,-1.8974,-1.884,-1.8774,-1.8691,-1.8691,-1.8691,-1.8494,-1.8126,-1.8025,-1.8008,-1.7991,-1.7991,-1.7991,-1.7991,-1.7991,-1.7991,-1.7991,-1.7991,-1.7991,-1.7991,-1.7991,-1.7991,-1.7991,-1.7991,-1.8031,-1.8072,-1.8193,-1.8313,-1.8434,-1.8594,-1.8723,-1.8851,-1.8962,-1.9112,-1.9222,-1.9292,-1.9292,-1.9173,-1.8935,-1.8687,-1.8412,-1.7899,-1.7422,-1.7238,-1.7119,-1.6945,-1.6917,-1.6908,-1.6908,-1.6908,-1.6908,-1.6908,-1.6908,-1.6943,-1.6943,-1.6908,-1.6943,-1.7012,-1.7003,-1.7038,-1.7141,-1.7254,-1.7304,-1.7263,-2.2264,-2.2318,-2.2662,-2.2847,-2.2882,-2.3047,-2.3101,-2.3101,-2.3101,-2.3101,-2.3101,-2.3101,-2.3101,-2.3101,-2.3101,-2.3101,-2.3101,-2.3101,-2.3101,-2.3101,-2.3101,-2.3101,-2.3101,-2.3101,-2.3101,-2.3101,-2.3101,-2.3101,-2.3101,-2.3101,-2.3101,-2.3101,-2.3101,-2.2828,-2.252,-2.2353,-2.2176,-2.1731,-2.1687,-2.1687,-2.1687,-2.1687,-2.1687,-2.1687,-2.165,-2.154,-2.1275,-2.0978,-2.063,-2.0314,-1.992,-1.9611,-1.9493,-1.9297,-1.9187,-1.9187,-1.9135,-1.8888,-1.8511,-1.8273,-1.8111,-1.8025,-1.7991,-1.7991,-1.7991,-1.7991,-1.7991,-1.7991,-1.7991,-1.7991,-1.7991,-1.7991,-1.7991,-1.7991,-1.7991,-1.8031,-1.8112,-1.8273,-1.8474,-1.8683,-1.8843,-1.8953,-1.9042,-1.9082,-1.9152,-1.9253,-1.9292,-1.9292,-1.9173,-1.8999,-1.8825,-1.8614,-1.833,-1.7798,-1.7422,-1.7257,-1.7073,-1.6919,-1.6945,-1.6908,-1.6874,-1.6908,-1.6908,-1.6908,-1.6874,-1.6908,-1.6908,-1.6908,-1.6908,-1.6943,-1.6968,-1.6943,-1.7012,-1.7063,-1.7123,-2.2759,-2.2759,-2.2794,-2.2891,-2.3057,-2.3101,-2.3101,-2.3101,-2.3101,-2.3101,-2.3101,-2.3101,-2.3101,-2.3144,-2.3144,-2.3144,-2.3144,-2.3101,-2.3101,-2.3101,-2.3101,-2.3101,-2.3101,-2.3101,-2.3101,-2.3101,-2.3101,-2.3101,-2.3101,-2.3101,-2.3101,-2.3101,-2.3101,-2.2794,-2.253,-2.2299,-2.2087,-2.1776,-2.1687,-2.1687,-2.1687,-2.1687,-2.1687,-2.1687,-2.1687,-2.1659,-2.1667,-2.1312,-2.1032,-2.0811,-2.0431,-2.0202,-2.0066,-1.9825,-1.9704,-1.9661,-1.9575,-1.9402,-1.9135,-1.8741,-1.8382,-1.8168,-1.7991,-1.7991,-1.7991,-1.7991,-1.7991,-1.7991,-1.7991,-1.7991,-1.7991,-1.7991,-1.7991,-1.8072,-1.8152,-1.8193,-1.8273,-1.8393,-1.8643,-1.8882,-1.9042,-1.9112,-1.9152,-1.9183,-1.9183,-1.9292,-1.9292,-1.9292,-1.9292,-1.9155,-1.9017,-1.8852,-1.8724,-1.8284,-1.7669,-1.7458,-1.7376,-1.7166,-1.7021,-1.6956,-1.6874,-1.6874,-1.6769,-1.6804,-1.6726,-1.6839,-1.6874,-1.6769,-1.6769,-1.6874,-1.6908,-1.6874,-1.6874,-1.6968,-1.6968,-2.2891,-2.2969,-2.2969,-2.3057,-2.3101,-2.3101,-2.3101,-2.3101,-2.3101,-2.3101,-2.3101,-2.3091,-2.3188,-2.3319,-2.3363,-2.3319,-2.3319,-2.3363,-2.3232,-2.3144,-2.3101,-2.3101,-2.3101,-2.3101,-2.3101,-2.3101,-2.3101,-2.3101,-2.3101,-2.3101,-2.3101,-2.3101,-2.3101,-2.2794,-2.253,-2.2176,-2.1865,-2.1776,-2.1687,-2.1687,-2.1687,-2.1687,-2.1687,-2.1687,-2.1687,-2.1687,-2.1659,-2.1549,-2.1432,-2.1271,-2.1047,-2.0887,-2.0711,-2.0483,-2.0395,-2.0351,-2.0263,-2.0123,-1.9817,-1.9367,-1.8827,-1.8417,-1.8153,-1.8008,-1.8074,-1.8,-1.8,-1.7991,-1.8031,-1.808,-1.804,-1.804,-1.808,-1.8193,-1.8313,-1.8353,-1.8474,-1.8594,-1.8754,-1.9002,-1.9112,-1.9222,-1.9262,-1.9253,-1.9292,-1.9292,-1.9292,-1.9292,-1.9292,-1.9292,-1.9155,-1.9045,-1.8916,-1.8742,-1.8164,-1.7917,-1.7734,-1.7423,-1.7169,-1.7034,-1.6917,-1.6569,-1.65,-1.6525,-1.6631,-1.6658,-1.6623,-1.6569,-1.6586,-1.6656,-1.6726,-1.676,-1.6795,-1.6874,-1.6839,-2.2969,-2.3091,-2.3101,-2.3101,-2.3101,-2.3101,-2.3101,-2.3101,-2.3101,-2.3144,-2.3232,-2.3222,-2.3353,-2.3537,-2.359,-2.3547,-2.3503,-2.345,-2.3319,-2.3178,-2.3101,-2.3101,-2.3101,-2.3101,-2.3101,-2.3101,-2.3101,-2.3101,-2.3101,-2.3101,-2.3101,-2.3101,-2.3057,-2.2838,-2.2397,-2.1954,-2.1687,-2.1687,-2.1687,-2.1687,-2.1687,-2.1687,-2.1687,-2.1687,-2.1687,-2.1687,-2.1687,-2.1641,-2.165,-2.1606,-2.1552,-2.149,-2.141,-2.1293,-2.1141,-2.1096,-2.1015,-2.0891,-2.0536,-1.9947,-1.928,-1.8935,-1.8557,-1.8361,-1.8194,-1.8158,-1.8152,-1.8161,-1.8201,-1.821,-1.821,-1.8282,-1.8331,-1.8451,-1.8482,-1.8563,-1.8723,-1.8843,-1.8953,-1.9112,-1.9183,-1.9253,-1.9253,-1.9292,-1.9292,-1.9292,-1.9292,-1.9292,-1.9292,-1.9292,-1.9274,-1.9173,-1.9091,-1.8907,-1.8687,-1.8355,-1.8006,-1.7633,-1.7415,-1.7225,-1.7,-1.6688,-1.6625,-1.6874,-1.6884,-1.6555,-1.6466,-1.6493,-1.6483,-1.6473,-1.6508,-1.6551,-1.6551,-1.6595,-1.663,-2.3091,-2.3101,-2.3101,-2.3101,-2.3101,-2.3101,-2.3101,-2.3101,-2.3144,-2.3276,-2.345,-2.3503,-2.358,-2.3754,-2.3807,-2.3764,-2.3624,-2.3537,-2.3406,-2.3222,-2.3091,-2.3091,-2.3101,-2.3101,-2.3101,-2.3101,-2.3101,-2.3101,-2.3101,-2.3101,-2.3101,-2.3091,-2.3047,-2.2838,-2.2388,-2.1909,-2.1741,-2.1687,-2.1687,-2.1687,-2.1687,-2.1687,-2.1687,-2.1687,-2.1687,-2.1687,-2.1687,-2.1687,-2.1687,-2.1696,-2.1696,-2.1651,-2.1607,-2.1482,-2.1392,-2.1392,-2.1141,-2.1024,-2.0917,-2.0287,-1.9874,-1.9511,-1.9188,-1.8896,-1.8676,-1.8536,-1.8498,-1.8577,-1.8588,-1.8656,-1.8678,-1.866,-1.862,-1.8652,-1.8692,-1.8763,-1.8922,-1.9033,-1.9152,-1.9183,-1.9222,-1.9292,-1.9292,-1.9292,-1.9292,-1.9292,-1.9292,-1.9292,-1.9292,-1.9292,-1.9292,-1.9265,-1.9191,-1.9021,-1.8809,-1.8593,-1.8281,-1.7936,-1.7608,-1.7416,-1.7289,-1.7063,-1.7098,-1.7296,-1.7091,-1.6727,-1.6597,-1.6501,-1.6527,-1.6553,-1.6369,-1.6351,-1.6351,-1.6377,-1.6456,-2.3101,-2.3101,-2.3101,-2.3101,-2.3101,-2.3101,-2.3101,-2.3144,-2.3276,-2.3493,-2.3667,-2.3711,-2.3841,-2.398,-2.4067,-2.4024,-2.3937,-2.3711,-2.357,-2.3363,-2.3178,-2.3091,-2.3101,-2.3101,-2.3101,-2.3101,-2.3101,-2.3101,-2.3101,-2.3101,-2.3101,-2.3091,-2.2969,-2.2706,-2.2353,-2.1954,-2.1687,-2.1687,-2.1687,-2.1687,-2.1687,-2.1687,-2.1687,-2.1687,-2.1687,-2.1687,-2.1687,-2.1687,-2.1687,-2.1687,-2.1687,-2.1687,-2.1687,-2.1607,-2.1607,-2.1607,-2.1454,-2.1454,-2.1436,-2.1128,-2.0825,-2.0321,-1.9812,-1.9574,-1.9428,-1.9417,-1.9256,-1.9085,-1.9082,-1.9025,-1.8771,-1.8727,-1.8709,-1.8851,-1.8922,-1.8993,-1.9152,-1.9183,-1.9222,-1.9262,-1.9292,-1.9292,-1.9292,-1.9292,-1.9292,-1.9292,-1.9292,-1.9292,-1.9292,-1.9292,-1.9292,-1.9292,-1.9216,-1.9101,-1.894,-1.8683,-1.8431,-1.8086,-1.7793,-1.7561,-1.7433,-1.7386,-1.724,-1.724,-1.7093,-1.6891,-1.6781,-1.6685,-1.6707,-1.6664,-1.6506,-1.6325,-1.6325,-1.6325,-1.6342,-2.3101,-2.3091,-2.3188,-2.3232,-2.3232,-2.3222,-2.3266,-2.3363,-2.3537,-2.3711,-2.3884,-2.3927,-2.4067,-2.4239,-2.4282,-2.4249,-2.4163,-2.3937,-2.3667,-2.3493,-2.3232,-2.3144,-2.3101,-2.3101,-2.3101,-2.3101,-2.3101,-2.3101,-2.3101,-2.3101,-2.3101,-2.3057,-2.2925,-2.2662,-2.2353,-2.2043,-2.1776,-2.1731,-2.1687,-2.1687,-2.1687,-2.1687,-2.1687,-2.1687,-2.1687,-2.1687,-2.1687,-2.1687,-2.1687,-2.1687,-2.1687,-2.1687,-2.1687,-2.1687,-2.1687,-2.1687,-2.1687,-2.1687,-2.1668,-2.1615,-2.129,-2.1004,-2.0487,-2.0204,-2.0081,-1.9947,-1.9829,-1.971,-1.9689,-1.9546,-1.9339,-1.9259,-1.9273,-1.9435,-1.9484,-1.9574,-1.9597,-1.9664,-1.9518,-1.9531,-1.9356,-1.9338,-1.932,-1.9292,-1.9292,-1.9292,-1.9292,-1.9292,-1.9292,-1.9292,-1.9292,-1.9292,-1.9222,-1.9067,-1.8948,-1.8731,-1.8479,-1.8241,-1.797,-1.7718,-1.7692,-1.7644,-1.7428,-1.7261,-1.7222,-1.7166,-1.6973,-1.6884,-1.6913,-1.681,-1.6661,-1.6503,-1.635,-1.6289,-1.6289,-2.3101,-2.3144,-2.3373,-2.3503,-2.3503,-2.3547,-2.3624,-2.3797,-2.3797,-2.3937,-2.4206,-2.4196,-2.4292,-2.4464,-2.4497,-2.4368,-2.4206,-2.3937,-2.3721,-2.3493,-2.3232,-2.3135,-2.3101,-2.3101,-2.3101,-2.3101,-2.3101,-2.3101,-2.3101,-2.3101,-2.3101,-2.3057,-2.2969,-2.2706,-2.2441,-2.2176,-2.1954,-2.1785,-2.1687,-2.1687,-2.1687,-2.1687,-2.1687,-2.1687,-2.1687,-2.1687,-2.1687,-2.1687,-2.1687,-2.1687,-2.1687,-2.1687,-2.1687,-2.1687,-2.1687,-2.1687,-2.1687,-2.1687,-2.1687,-2.1687,-2.1687,-2.1416,-2.1127,-2.0807,-2.0612,-2.0546,-2.0418,-2.0325,-2.0328,-2.0376,-2.0336,-2.03,-2.0263,-2.0314,-2.0314,-2.0305,-2.0268,-2.0168,-1.9976,-1.9793,-1.9567,-1.9467,-1.9439,-1.9402,-1.9375,-1.9292,-1.9292,-1.9292,-1.9292,-1.9292,-1.9292,-1.9253,-1.9183,-1.9033,-1.8882,-1.8683,-1.8487,-1.8193,-1.8086,-1.7883,-1.7912,-1.7894,-1.7766,-1.7638,-1.7578,-1.7475,-1.7355,-1.7218,-1.7098,-1.7025,-1.6999,-1.6762,-1.6631,-1.6344,-1.6213,-2.3406,-2.3416,-2.3624,-2.3721,-2.3754,-2.3894,-2.4024,-2.4067,-2.411,-2.4206,-2.4411,-2.4411,-2.4464,-2.4507,-2.4507,-2.4454,-2.4282,-2.4024,-2.3851,-2.358,-2.3266,-2.3144,-2.3101,-2.3101,-2.3101,-2.3101,-2.3101,-2.3101,-2.3101,-2.3101,-2.3101,-2.3101,-2.3013,-2.2784,-2.252,-2.2344,-2.2043,-2.183,-2.1731,-2.1687,-2.1687,-2.1687,-2.1687,-2.1687,-2.1687,-2.1687,-2.1687,-2.1687,-2.1687,-2.1687,-2.1687,-2.1687,-2.1687,-2.1687,-2.1687,-2.1687,-2.1687,-2.1687,-2.1687,-2.1687,-2.1687,-2.1687,-2.1496,-2.1461,-2.1344,-2.1207,-2.1051,-2.0957,-2.0857,-2.0863,-2.0753,-2.0741,-2.0732,-2.0741,-2.0741,-2.0689,-2.0644,-2.0558,-2.0365,-2.0122,-1.9888,-1.9778,-1.9723,-1.9558,-1.9522,-1.9375,-1.9301,-1.932,-1.9292,-1.9292,-1.9253,-1.9222,-1.9073,-1.8922,-1.8763,-1.8571,-1.8362,-1.8144,-1.808,-1.7991,-1.7957,-1.794,-1.7983,-1.7963,-1.7826,-1.7809,-1.7809,-1.7655,-1.7475,-1.7535,-1.7501,-1.7175,-1.6858,-1.661,-1.6351,-2.3634,-2.3624,-2.3851,-2.4013,-2.411,-2.4239,-2.4335,-2.4335,-2.4325,-2.4411,-2.4507,-2.4507,-2.4507,-2.4507,-2.4507,-2.4497,-2.4454,-2.4013,-2.3797,-2.3667,-2.3319,-2.3188,-2.3101,-2.3101,-2.3101,-2.3101,-2.3101,-2.3101,-2.3101,-2.3101,-2.3101,-2.3101,-2.3101,-2.2882,-2.2662,-2.2441,-2.222,-2.1954,-2.1776,-2.1731,-2.1687,-2.1687,-2.1687,-2.1687,-2.1687,-2.1687,-2.1687,-2.1687,-2.1687,-2.1687,-2.1687,-2.1687,-2.1687,-2.1687,-2.1687,-2.1687,-2.1687,-2.1687,-2.1687,-2.1687,-2.1687,-2.1687,-2.1687,-2.1668,-2.1668,-2.1533,-2.1467,-2.1366,-2.1312,-2.1291,-2.1135,-2.1007,-2.1025,-2.0991,-2.0991,-2.0991,-2.0952,-2.0851,-2.0686,-2.0461,-2.0305,-2.0177,-2.0021,-1.9861,-1.9714,-1.9659,-1.9558,-1.9476,-1.9393,-1.9292,-1.9222,-1.9143,-1.8962,-1.8772,-1.8612,-1.8451,-1.8241,-1.808,-1.8031,-1.7991,-1.7991,-1.7991,-1.7991,-1.7991,-1.7974,-1.7948,-1.7914,-1.794,-1.7854,-1.788,-1.7837,-1.7646,-1.7312,-1.6957,-1.6752,-2.3841,-2.3841,-2.412,-2.4325,-2.4507,-2.4507,-2.4497,-2.4507,-2.4507,-2.4507,-2.4507,-2.4507,-2.4507,-2.4507,-2.4507,-2.4507,-2.4368,-2.4013,-2.3797,-2.3797,-2.3319,-2.3101,-2.3101,-2.3101,-2.3101,-2.3101,-2.3101,-2.3101,-2.3101,-2.3101,-2.3101,-2.3101,-2.3101,-2.2969,-2.275,-2.2574,-2.2353,-2.2052,-2.1865,-2.1776,-2.1731,-2.1687,-2.1687,-2.1687,-2.1687,-2.1687,-2.1687,-2.1687,-2.1687,-2.1687,-2.1687,-2.1687,-2.1687,-2.1687,-2.1687,-2.1687,-2.1687,-2.1687,-2.1687,-2.1687,-2.1687,-2.1687,-2.1687,-2.1687,-2.1687,-2.1687,-2.1595,-2.1577,-2.1513,-2.1504,-2.1385,-2.1348,-2.1357,-2.1357,-2.1357,-2.1357,-2.1321,-2.1255,-2.1117,-2.0882,-2.0732,-2.0613,-2.0512,-2.0319,-2.0099,-2.0008,-1.9934,-1.9806,-1.9655,-1.9509,-1.9252,-1.9132,-1.89,-1.87,-1.8482,-1.8322,-1.8121,-1.7991,-1.7991,-1.7991,-1.7991,-1.7991,-1.7991,-1.7991,-1.7991,-1.7991,-1.7983,-1.7991,-1.7991,-1.7965,-1.7948,-1.7974,-1.7726,-1.7367,-1.7145,-2.411,-2.411,-2.4325,-2.4454,-2.4507,-2.4507,-2.4507,-2.4507,-2.4507,-2.4507,-2.4507,-2.4507,-2.4507,-2.4507,-2.4507,-2.4507,-2.4411,-2.4013,-2.3841,-2.3667,-2.3319,-2.3101,-2.3101,-2.3101,-2.3101,-2.3101,-2.3101,-2.3169,-2.3237,-2.3188,-2.313,-2.313,-2.3179,-2.3139,-2.2915,-2.2773,-2.2542,-2.2239,-2.2052,-2.1874,-2.1785,-2.1731,-2.1687,-2.1687,-2.1687,-2.1687,-2.1687,-2.1687,-2.1687,-2.1687,-2.1687,-2.1687,-2.1687,-2.1687,-2.1687,-2.1687,-2.1687,-2.1687,-2.1687,-2.1687,-2.1687,-2.1687,-2.1687,-2.1687,-2.1687,-2.1687,-2.1687,-2.1687,-2.1687,-2.1687,-2.1687,-2.1687,-2.1687,-2.1687,-2.1687,-2.1687,-2.1687,-2.1577,-2.1458,-2.1328,-2.1117,-2.1016,-2.0924,-2.0769,-2.053,-2.0429,-2.0351,-2.0278,-2.019,-2.0003,-1.9516,-1.9304,-1.8883,-1.8638,-1.8411,-1.8233,-1.8072,-1.7991,-1.7991,-1.7991,-1.7991,-1.7991,-1.7991,-1.7991,-1.7991,-1.7991,-1.7991,-1.7991,-1.7991,-1.7991,-1.7951,-1.7951,-1.7951,-1.7638,-1.7547,-2.4325,-2.4325,-2.4454,-2.4507,-2.4507,-2.4507,-2.4507,-2.4507,-2.4507,-2.4507,-2.4507,-2.4507,-2.4507,-2.4507,-2.4507,-2.4507,-2.4411,-2.4013,-2.3841,-2.3667,-2.3363,-2.3178,-2.3101,-2.311,-2.3101,-2.311,-2.3344,-2.3506,-2.3603,-2.3676,-2.3705,-2.3627,-2.3627,-2.3504,-2.3264,-2.3108,-2.2824,-2.2416,-2.2248,-2.2052,-2.1874,-2.1785,-2.1687,-2.1687,-2.1687,-2.1687,-2.1687,-2.1687,-2.1687,-2.1687,-2.1687,-2.1687,-2.1687,-2.1687,-2.1687,-2.1687,-2.1687,-2.1687,-2.1687,-2.1687,-2.1687,-2.1687,-2.1687,-2.1687,-2.1687,-2.1687,-2.1687,-2.1687,-2.1687,-2.1687,-2.1687,-2.1687,-2.1687,-2.1687,-2.1687,-2.1687,-2.1687,-2.1641,-2.1586,-2.1531,-2.1403,-2.1385,-2.1321,-2.1302,-2.1099,-2.0814,-2.0787,-2.0607,-2.0546,-2.0455,-1.9976,-1.9522,-1.9153,-1.8591,-1.821,-1.8112,-1.8031,-1.7991,-1.8017,-1.7991,-1.7991,-1.7991,-1.7991,-1.7991,-1.7991,-1.7991,-1.7991,-1.7991,-1.7991,-1.7991,-1.791,-1.7821,-1.7829,-1.7838,-1.7637,-2.4497,-2.4507,-2.4507,-2.4507,-2.4507,-2.4507,-2.4507,-2.4507,-2.4507,-2.4507,-2.4507,-2.4507,-2.4507,-2.4507,-2.4507,-2.4507,-2.4368,-2.4013,-2.3841,-2.3667,-2.3319,-2.3144,-2.313,-2.3169,-2.3296,-2.3471,-2.374,-2.4014,-2.4248,-2.4258,-2.4248,-2.4394,-2.4346,-2.4219,-2.391,-2.357,-2.3246,-2.2828,-2.2545,-2.2248,-2.2008,-2.183,-2.1741,-2.1687,-2.1687,-2.1687,-2.1687,-2.1687,-2.1687,-2.1687,-2.1687,-2.1687,-2.1687,-2.1687,-2.1687,-2.1687,-2.1687,-2.1687,-2.1687,-2.1687,-2.1687,-2.1687,-2.1687,-2.1687,-2.1687,-2.1687,-2.1687,-2.1687,-2.1687,-2.1687,-2.1687,-2.1687,-2.1687,-2.1687,-2.1687,-2.1687,-2.1687,-2.1687,-2.1687,-2.1687,-2.1678,-2.1659,-2.1659,-2.1659,-2.1513,-2.1273,-2.1099,-2.0943,-2.0775,-2.0641,-2.0361,-1.9906,-1.95,-1.8891,-1.8363,-1.8177,-1.822,-1.8111,-1.8168,-1.8051,-1.7991,-1.7991,-1.7991,-1.7991,-1.7991,-1.7991,-1.7991,-1.7991,-1.7991,-1.7951,-1.7853,-1.7772,-1.7627,-1.7595,-1.7522,-2.4507,-2.4507,-2.4507,-2.4507,-2.4507,-2.4507,-2.4507,-2.4507,-2.4507,-2.4507,-2.4507,-2.4507,-2.4507,-2.4507,-2.4507,-2.4507,-2.4411,-2.4013,-2.3841,-2.3711,-2.3319,-2.3144,-2.3237,-2.3555,-2.3848,-2.4072,-2.4228,-2.4346,-2.4668,-2.457,-2.4453,-2.4512,-2.4482,-2.4394,-2.4297,-2.3926,-2.3599,-2.3233,-2.285,-2.2495,-2.2141,-2.1919,-2.1731,-2.1687,-2.1687,-2.1687,-2.1687,-2.1687,-2.1687,-2.1687,-2.1687,-2.1687,-2.1687,-2.1687,-2.1687,-2.1687,-2.1687,-2.1687,-2.1687,-2.1687,-2.1687,-2.1687,-2.1687,-2.1687,-2.1687,-2.1687,-2.1687,-2.1687,-2.1687,-2.1687,-2.1687,-2.1687,-2.1687,-2.1687,-2.1687,-2.1687,-2.1687,-2.1687,-2.1687,-2.1687,-2.1687,-2.1678,-2.1678,-2.1678,-2.1668,-2.153,-2.152,-2.133,-2.1249,-2.0986,-2.0677,-2.0289,-1.9826,-1.9497,-1.9033,-1.8596,-1.8511,-1.84,-1.8288,-1.822,-1.8143,-1.8,-1.7991,-1.7991,-1.7991,-1.7991,-1.7991,-1.7991,-1.791,-1.7821,-1.7764,-1.7674,-1.7538,-1.74,-1.7278]},{"header":{"parameterUnit":"m.s-1","parameterCategory":1,"la1":31.0,"la2":29.5877,"lo1":-88.7671,"lo2":-86.6584,"dy":0.0162,"dx":0.0185,"nx":115,"ny":88,"refTime":"2023-04-04T00:00:00:Z","depth":0,"parameterNumber":3,"parameterNumberName":"V-component_of_WINDS"},"data":[0.0,0.0,0.0,0.0,0.0,0.0,0.0,0.0,0.0,0.0,0.0,0.0,0.0,0.0,0.0,0.0,0.0,0.0,0.0,0.0,0.0,0.0,0.0,0.0,0.0,0.0,0.0,0.0,0.0,0.0,0.0,0.0,0.0,0.0,0.0,0.0,0.0,0.0,0.0,0.0,0.0,0.0,0.0,0.0,0.0,0.0,0.0,0.0,0.0,0.0,0.0,0.0,0.0,0.0,0.0,0.0,0.0,0.0,0.0,0.0,0.0,0.0,0.0,0.0,0.0,0.0,0.0,0.0,0.0,0.0,0.0,0.0,0.0,0.0,0.0,0.0,0.0,0.0,0.0,0.0,0.0,0.0,0.0,0.0,0.0,0.0,0.0,0.0,0.0,0.0,0.0,0.0,0.0,0.0,0.0,0.0,0.0,0.0,0.0,0.0,0.0,0.0,0.0,0.0,0.0,0.0,0.0,0.0,0.0,0.0,0.0,0.0,0.0,0.0,0.0,0.0,0.0,0.0,0.0,0.0,0.0,0.0,0.0,0.0,0.0,0.0,0.0,0.0,0.0,0.0,0.0,0.0,0.0,0.0,0.0,0.0,0.0,0.0,0.0,0.0,0.0,0.0,0.0,0.0,0.0,0.0,0.0,0.0,0.0,0.0,0.0,0.0,0.0,0.0,0.0,0.0,0.0,0.0,0.0,0.0,0.0,0.0,0.0,0.0,0.0,0.0,0.0,0.0,0.0,0.0,0.0,0.0,0.0,0.0,0.0,0.0,0.0,0.0,0.0,0.0,0.0,0.0,0.0,0.0,0.0,0.0,0.0,0.0,0.0,0.0,0.0,0.0,0.0,0.0,0.0,0.0,0.0,0.0,0.0,0.0,0.0,0.0,0.0,0.0,0.0,0.0,0.0,0.0,0.0,0.0,0.0,0.0,0.0,0.0,0.0,0.0,0.0,0.0,0.0,0.0,0.0,0.0,0.0,0.0,0.0,0.0,0.0,0.0,0.0,0.0,0.0,0.0,0.0,0.0,0.0,0.0,0.0,0.0,0.0,0.0,0.0,0.0,0.0,0.0,0.0,0.0,0.0,0.0,0.0,0.0,0.0,0.0,0.0,0.0,0.0,0.0,0.0,0.0,0.0,0.0,0.0,0.0,0.0,0.0,0.0,0.0,0.0,0.0,0.0,0.0,0.0,0.0,0.0,0.0,0.0,0.0,0.0,0.0,0.0,0.0,0.0,0.0,0.0,0.0,0.0,0.0,0.0,0.0,0.0,0.0,0.0,0.0,0.0,0.0,0.0,0.0,0.0,0.0,0.0,0.0,0.0,0.0,0.0,0.0,0.0,0.0,0.0,0.0,0.0,0.0,0.0,0.0,0.0,0.0,0.0,0.0,0.0,0.0,0.0,0.0,0.0,0.0,0.0,0.0,0.0,0.0,0.0,0.0,0.0,0.0,0.0,0.0,0.0,0.0,0.0,0.0,0.0,0.0,0.0,0.0,0.0,0.0,0.0,0.0,0.0,0.0,0.0,0.0,0.0,0.0,0.0,0.0,0.0,0.0,0.0,0.0,0.0,0.0,0.0,0.0,0.0,0.0,0.0,0.0,0.0,0.0,0.0,0.0,0.0,0.0,0.0,0.0,0.0,0.0,0.0,0.0,0.0,0.0,0.0,0.0,0.0,0.0,0.0,0.0,0.0,0.0,0.0,0.0,0.0,0.0,0.0,0.0,0.0,0.0,0.0,0.0,0.0,0.0,0.0,0.0,0.0,0.0,0.0,0.0,0.0,0.0,0.0,0.0,0.0,0.0,0.0,0.0,0.0,0.0,0.0,0.0,0.0,0.0,0.0,0.0,0.0,0.0,0.0,0.0,0.0,0.0,0.0,0.0,0.0,0.0,0.0,0.0,0.0,0.0,0.0,0.0,0.0,0.0,0.0,0.0,0.0,0.0,0.0,0.0,0.0,0.0,0.0,0.0,0.0,0.0,0.0,0.0,0.0,0.0,0.0,0.0,0.0,0.0,0.0,0.0,0.0,0.0,0.0,0.0,0.0,0.0,0.0,0.0,0.0,0.0,0.0,0.0,0.0,0.0,0.0,0.0,0.0,0.0,0.0,0.0,0.0,0.0,0.0,0.0,0.0,0.0,0.0,0.0,0.0,0.0,0.0,0.0,0.0,0.0,0.0,0.0,0.0,0.0,0.0,0.0,0.0,0.0,0.0,0.0,0.0,0.0,0.0,0.0,0.0,0.0,0.0,0.0,0.0,0.0,0.0,0.0,0.0,0.0,0.0,0.0,0.0,0.0,0.0,0.0,0.0,0.0,0.0,0.0,0.0,0.0,0.0,0.0,0.0,0.0,0.0,0.0,0.0,0.0,0.0,0.0,0.0,0.0,0.0,0.0,0.0,0.0,0.0,0.0,0.0,0.0,0.0,0.0,0.0,0.0,0.0,0.0,0.0,0.0,0.0,0.0,0.0,0.0,0.0,0.0,0.0,0.0,0.0,0.0,0.0,0.0,0.0,0.0,0.0,0.0,0.0,0.0,0.0,0.0,0.0,0.0,0.0,0.0,0.0,0.0,0.0,0.0,0.0,0.0,0.0,0.0,0.0,0.0,0.0,0.0,0.0,0.0,0.0,0.0,0.0,0.0,0.0,0.0,0.0,0.0,0.0,0.0,0.0,0.0,0.0,0.0,0.0,0.0,0.0,0.0,0.0,0.0,0.0,0.0,0.0,0.0,0.0,0.0,0.0,0.0,0.0,0.0,0.0,0.0,0.0,0.0,0.0,0.0,0.0,0.0,0.0,0.0,0.0,0.0,0.0,0.0,0.0,0.0,0.0,0.0,0.0,0.0,0.0,0.0,0.0,0.0,0.0,0.0,0.0,0.0,0.0,0.0,0.0,0.0,0.0,0.0,0.0,0.0,0.0,0.0,0.0,0.0,0.0,0.0,0.0,0.0,0.0,0.0,0.0,0.0,0.0,0.0,0.0,0.0,0.0,0.0,0.0,0.0,0.0,0.0,0.0,0.0,0.0,0.0,0.0,0.0,0.0,0.0,0.0,0.0,0.0,0.0,0.0,0.0,0.0,0.0,0.0,0.0,0.0,0.0,0.0,0.0,0.0,0.0,0.0,0.0,0.0,0.0,0.0,0.0,0.0,0.0,0.0,0.0,0.0,0.0,0.0,0.0,0.0,0.0,0.0,0.0,0.0,0.0,0.0,0.0,0.0,0.0,0.0,0.0,0.0,0.0,0.0,0.0,0.0,0.0,0.0,0.0,0.0,0.0,0.0,0.0,0.0,0.0,0.0,0.0,0.0,0.0,0.0,0.0,0.0,0.0,0.0,0.0,0.0,0.0,0.0,0.0,0.0,0.0,0.0,0.0,0.0,0.0,0.0,0.0,0.0,0.0,0.0,0.0,0.0,0.0,0.0,0.0,0.0,0.0,0.0,0.0,0.0,0.0,0.0,0.0,0.0,0.0,0.0,0.0,0.0,0.0,0.0,0.0,0.0,0.0,0.0,0.0,0.0,0.0,0.0,0.0,0.0,0.0,0.0,0.0,0.0,0.0,0.0,0.0,0.0,0.0,0.0,0.0,0.0,0.0,0.0,0.0,0.0,0.0,0.0,0.0,0.0,0.0,0.0,0.0,0.0,0.0,0.0,0.0,0.0,0.0,0.0,0.0,0.0,0.0,0.0,0.0,0.0,0.0,0.0,0.0,0.0,0.0,0.0,0.0,0.0,0.0,0.0,0.0,0.0,0.0,0.0,0.0,0.0,0.0,0.0,0.0,0.0,0.0,0.0,0.0,0.0,0.0,0.0,0.0,0.0,0.0,0.0,0.0,0.0,0.0,0.0,0.0,0.0,0.0,0.0,0.0,0.0,0.0,0.0,0.0,0.0,0.0,0.0,0.0,0.0,0.0,0.0,0.0,0.0,0.0,0.0,0.0,0.0,0.0,0.0,0.0,0.0,0.0,0.0,0.0,0.0,0.0,0.0,0.0,0.0,0.0,0.0,0.0,0.0,0.0,0.0,0.0,0.0,0.0,0.0,0.0,0.0,0.0,0.0,0.0,0.0,0.0,0.0,0.0,0.0,0.0,0.0,0.0,0.0,0.0,0.0,0.0,0.0,0.0,0.0,0.0,0.0,0.0,0.0,0.0,0.0,0.0,0.0,0.0,0.0,0.0,0.0,0.0,0.0,0.0,0.0,0.0,0.0,0.0,0.0,0.0,0.0,0.0,0.0,0.0,0.0,0.0,0.0,0.0,-0.0393,0.0,0.0,0.0,0.0,0.0,0.0,0.0,0.0,0.0,0.0,0.0,0.0,0.0,0.0,0.0,0.0,0.0,0.0,0.0,0.0,0.0,0.0,0.0,0.0,0.0,0.0,0.0,0.0,0.0,0.0,0.0,0.0,0.0,0.0,0.0,0.0,0.0,0.0,0.0,0.0,0.0,0.0,0.0,0.0,0.0,0.0,0.0,0.0,0.0,0.0,0.0,0.0,0.0,0.0,0.0,0.0,0.0,0.0,0.0,0.0,0.0,0.0,0.0,0.0,0.0,0.0,0.0,0.0,0.0,0.0,0.0,0.0,0.0,0.0,0.0,0.0,0.0,0.0,0.0,0.0,0.0,0.0,0.0,0.0,0.0,0.0,0.0,0.0,0.0,0.0,0.0,0.0,0.0,0.0,0.0,0.0,0.0,0.0,0.0,0.0,0.0,0.0,0.0,0.0,0.0,0.0,0.0,0.0,0.0,0.0,0.1506,0.1077,0.0655,0.0202,-0.012,0.0,0.0,0.0,0.0,0.0,0.0,0.0,0.0,0.0,0.0,0.0,0.0,0.0,0.0,0.0,0.0,0.0,0.0,0.0,0.0,0.0,0.0,0.0,0.0,0.0,0.0,0.0,0.0,0.0,0.0,0.0,0.0,0.0,0.0,0.0,0.0,0.0,0.0,0.0,0.0,0.0,0.0,0.0,0.0,0.0,0.0,0.0,0.0,0.0,0.0,0.0,0.0,0.0,0.0,0.0,0.0,0.0,0.0,0.0,0.0,0.0,0.0,0.0,0.0,0.0,0.0,0.0,0.0,0.0,0.0,0.0,0.0,0.0,0.0,0.0,0.0,0.0,0.0,0.0,0.0,0.0,0.0,0.0,0.0,0.0,0.0,0.0,0.0,0.0,0.0,0.0,0.0,0.0,0.0,0.0,0.0,0.0,0.0,0.0,0.0,0.0,0.0,0.0,0.0,0.0,0.0,0.0,0.0,0.0,0.0,0.0,0.0,0.1036,0.0571,0.004,0.0,0.0,0.0,0.0,0.0,0.0,0.0,0.0,0.0,0.0,0.0,0.0,0.0,0.0,0.0,0.0,0.0,0.0,0.0,0.0,0.0,0.0,0.0,0.0,0.0,0.0,0.0,0.0,0.0,0.0,0.0,0.0,0.0,0.0,0.0,0.0,0.0,0.0,0.0,0.0,0.0,0.0,0.0,0.0,0.0,0.0,0.0,0.0,0.0,0.0,0.0,0.0,0.0,0.0,0.0,0.0,0.0,0.0,0.0,0.0,0.0,0.0,0.0,0.0,0.0,0.0,0.0,0.0,0.0,0.0,0.0,0.0,0.0,0.0,0.0,0.0,0.0,0.0,0.0,0.0,0.0,0.0,0.0,0.0,0.0,0.0,0.0,0.0,0.0,0.0,0.0,0.0,0.0,0.0,0.0,0.0,0.0,0.0,0.0,0.0,0.0,0.0,0.0,0.0,0.0,0.0,0.0,0.0,0.0,0.0,0.2385,0.143,0.1356,0.0,0.0079,0.0,0.0,0.0,0.0,0.0,0.0,0.0,0.0,0.0,0.0,0.0,0.0,0.0,0.0,0.0,0.0,0.0,0.0,0.0,0.0,0.0,0.0,0.0,0.0,0.0,0.0,0.0,0.0,0.0,0.0,0.0,0.0,0.0,0.0,0.0,0.0,0.0,0.0,0.0,0.0,0.0,0.0,0.0,0.0,0.0,0.0,0.0,0.0,0.0,0.0,0.0,0.0,0.0,0.0,0.0,0.0,0.0,0.0,0.0,0.0,0.0,0.0,0.0,0.0,0.0,0.0,0.0,0.0,0.0,0.0,0.0,0.0,0.0,0.0,0.0,0.0,0.0,0.0,0.0,0.0,0.0,0.0,0.0,0.0,0.0,0.0,0.0,0.0,0.0,0.0,0.0,0.0,0.0,0.0,0.0,0.0,0.0,0.0,0.0,0.0,0.0,0.0,0.0,0.0,0.0,0.0,0.0,0.0,0.0,0.0,0.2722,0.2301,0.1712,0.1035,0.0,0.0,0.0,0.0,0.0,0.0,0.0,0.0,0.0,0.0,0.0,0.0,0.0,0.0,0.0,0.0,0.0,0.0,0.0,0.0,0.0,0.0,0.0,0.0,0.0,0.0,0.0,0.0,0.0,0.0,0.0,0.0,0.0,0.0,0.0,0.0,0.0,0.0,0.0,0.0,0.0,0.0,0.0,0.0,0.0,0.0,0.0,0.0,0.0,0.0,0.0,0.0,0.0,0.0,0.0,0.0,0.0,0.0,0.0,0.0,0.0,0.0,0.0,0.0,0.0,0.0,0.0,0.0,0.0,0.0,0.0,0.0,0.0,0.0,0.0,0.0,0.0,0.0,0.0,0.0,0.0,0.0,0.0,0.0,0.0,0.0,0.0,0.0,0.0,0.0,0.0,0.0,0.0,0.0,0.0,0.0,0.0,0.0,0.0,0.0,0.0,0.0,0.0,0.0,0.0,0.0,0.0,0.0,0.0,0.0,0.3539,0.2994,0.2662,0.1843,0.1123,0.057,0.0,0.0,0.0,0.0,0.0,0.0,0.0,0.0,0.0,0.0,0.0,0.0,0.0,0.0,0.0,0.0,0.0,0.0,0.0,0.0,0.0,0.0,0.0,0.0,0.0,0.0,0.0,0.0,0.0,0.0,0.0,0.0,0.0,0.0,0.0,0.0,0.0,0.0,0.0,0.0,0.0,0.0,0.0,0.0,0.0,0.0,0.0,0.0,0.0,0.0,0.0,0.0,0.0,0.0,0.0,0.0,0.0,0.0,0.0,0.0,0.0,0.0,0.0,0.0,0.0,0.0,0.0,0.0,0.0,0.0,0.0,0.0,0.0,0.0,0.0,0.0,0.0,0.0,0.0,0.0,0.0,0.0,0.0,0.0,0.0,0.0,0.0,0.0,0.0,0.0,0.0,0.0,0.0,0.0,0.0,0.0,0.0,0.0,0.0,0.0,0.0,0.0,0.0,0.0,0.0,0.0,0.0,0.0,0.4342,0.3983,0.3282,0.2178,0.166,0.1248,0.0,0.0,0.0,0.0,0.0,0.0,0.0,0.0,0.0,0.0,0.0,0.0,0.0,0.0,0.0,0.0,0.0,0.0,0.0,0.0,0.0,0.0,0.0,0.0,0.0,0.0,0.0,0.0,0.0,0.0,0.0,0.0,0.0,0.0,0.0,0.0,0.0,0.0,0.0,0.0,0.0,0.0,0.0,0.0,0.0,0.0,0.0,0.0,0.0,0.0,0.0,0.0,0.0,0.0,0.0,0.0,0.0,0.0,0.0,0.0,0.0,0.0,0.0,0.0,0.0,0.0,0.0,0.0,0.0,0.0,0.0,0.0,0.0,0.0,0.0,0.0,0.0,0.0,0.0,0.0,0.0,0.0,0.0,0.0,0.0,0.0,0.0,0.0,0.0,0.0,0.0,0.0,0.0,0.0,0.0,0.0,0.0,0.0,0.0,0.0,0.0,0.0,0.0,0.0,0.0,0.0,0.0,0.0,0.0,0.5186,0.434,0.3481,0.2657,0.2228,0.18,0.0,0.0,0.0,0.0,0.0,0.0,0.0,0.0,0.0,0.0,0.0,0.0,0.0,0.0,0.0,0.0,0.0,0.0,0.0,0.0,0.0,0.0,0.0,0.0,0.0,0.0,0.0,0.0,0.0,0.0,0.0,0.0,0.0,0.0,0.0,0.0,0.0,0.0,0.0,0.0,0.0,0.0,0.0,0.0,0.0,0.0,0.0,0.0,0.0,0.0,0.0,0.0,0.0,0.0,0.0,0.0,0.0,0.0,0.0,0.0,0.0,0.0,0.0,0.0,0.0,0.0,0.0,0.0,0.0,0.0,0.0,0.0,0.0,0.0,0.0,0.0,0.0,0.0,0.0,0.0,0.0,0.0,0.0,0.0,0.0,0.0,0.0,0.0,0.0,0.0,0.0,0.0,0.0,0.0,0.0,0.0,0.0,0.0,0.0,0.0,0.0,0.0,0.0,0.0,0.0,0.0,0.0,0.0,0.0,0.5589,0.0,0.376,0.3132,0.2711,0.2271,0.0,0.0,0.0,0.0,0.0,0.0,0.0,0.0,0.0,0.0,0.0,0.0,0.0,0.0,0.0,0.0,0.0,0.0,0.0,0.0,0.0,0.0,0.0,0.0,0.0,0.0,0.0,0.0,0.0,0.0,0.0,0.0,0.0,0.0,0.0,0.0,0.0,0.0,0.0,0.0,0.0,0.0,0.0,0.0,0.0,0.0,0.0,0.0,0.0,0.0,0.0,0.0,0.0,0.0,0.0,0.0,0.0,0.0,0.0,0.0,0.0,0.0,0.0,0.0,0.0,0.0,0.0,0.0,0.0,0.0,0.0,0.0,0.0,0.0,0.0,0.0,0.0,0.0,0.0,0.0,0.0,0.0,0.0,0.0,0.0,0.0,0.0,0.0,0.0,0.0,0.0,0.0,0.0,0.0,0.0,0.0,0.0,0.0,0.0,0.0,0.0,0.0,0.0,0.0,0.0,0.0,0.0,0.0,0.6523,0.546,0.4701,0.4121,0.3628,0.3056,0.2608,0.0,0.0,0.0,0.0,0.0,0.0,0.0,0.0,0.0,0.0,0.0,0.0,0.0,0.0,0.0,0.0,0.0,0.0,0.0,0.0,0.0,0.0,0.0,0.0,0.0,0.0,0.0,0.0,0.0,0.0,0.0,0.0,0.0,0.0,0.0,0.0,0.0,0.0,0.0,0.0,0.0,0.0,0.0,0.0,0.0,0.0,0.0,0.0,0.0,0.0,0.0,0.0,0.0,0.0,0.0,0.0,0.0,0.0,0.0,0.0,0.0,0.0,0.0,0.0,0.0,0.0,0.0,0.0,0.0,0.0,0.0,0.0,0.0,0.0,0.0,0.0,0.0,0.0,0.0,0.0,0.0,0.0,0.0,0.0,0.0,0.0,0.0,0.0,0.0,0.0,0.0,0.0,0.0,0.0,0.0,0.0,0.0,0.0,0.0,0.0,0.0,0.0,0.0,0.0,0.0,0.0,0.0,0.0,0.0,0.5633,0.5235,0.4746,0.4072,0.3612,0.3193,0.0,0.0,0.0,0.0,0.0,0.0,0.0,0.0,0.0,0.0,0.0,0.0,0.0,0.0,0.0,0.0,0.0,0.0,0.0,0.0,0.0,0.0,0.0,0.0,0.0,0.0,0.0,0.0,0.0,0.0,0.0,0.0,0.0,0.0,0.0,0.0,0.0,0.0,0.0,0.0,0.0,0.0,0.0,0.0,0.0,0.0,0.0,0.0,0.0,0.0,0.0,0.0,0.0,0.0,0.0,0.0,0.0,0.0,0.0,0.0,0.0,0.0,0.0,0.0,0.0,0.0,0.0,0.0,0.0,0.0,0.0,0.0,0.0,0.0,0.0,0.0,0.0,0.0,0.0,0.0,0.0,0.0,0.0,0.0,0.0,0.0,0.0,0.0,0.0,0.0,0.0,0.0,0.0,0.0,0.0,0.0,0.0,0.0,0.0,0.0,0.0,0.0,0.0,0.0,0.0,0.0,0.0,0.0,0.0,0.6381,0.5811,0.528,0.4832,0.4254,0.3779,0.3441,0.0,0.0,0.0,0.0,0.0,0.0,0.0,0.0,0.0,0.0,0.0,0.0,0.0,0.0,0.0,0.0,0.0,0.0,0.0,0.0,0.0,0.0,0.0,0.0,0.0,0.0,0.0,0.0,0.0,0.0,0.0,0.0,0.0,0.0,0.0,0.0,0.0,0.0,0.0,0.0,0.0,0.0,0.0,0.0,0.0,0.0,0.0,0.0,0.0,0.0,0.0,0.0,0.0,0.0,0.0,0.0,0.0,0.0,0.0,0.0,0.0,0.0,0.0,0.0,0.0,0.0,0.0,0.0,0.0,0.0,0.0,0.0,0.0,0.0,0.0,0.0,0.0,0.0,0.0,0.0,0.0,0.0,0.0,0.0,0.0,0.0,0.0,0.0,0.0,0.0,0.0,0.0,0.0,0.0,0.0,0.0,0.0,0.0,0.0,0.0,0.0,0.0,0.0,0.0,0.0,0.0,0.0,0.0,0.7577,0.6428,0.5808,0.5719,0.4894,0.4367,0.0,0.0,0.0,0.0,0.0,0.0,0.0,0.0,0.0,0.0,0.0,0.0,0.0,0.0,0.0,0.0,0.0,0.0,0.0,0.0,0.0,0.0,0.0,0.0,0.0,0.0,0.0,0.0,0.0,0.0,0.0,0.0,0.0,0.0,0.0,0.0,0.0,0.0,0.0,0.0,0.0,0.0,0.0,0.0,0.0,0.0,0.0,0.0,0.0,0.0,0.0,0.0,0.0,0.0,0.0,0.0,0.0,0.0,0.0,0.0,0.0,0.0,0.0,0.0,0.0,0.0,0.0,0.0,0.0,0.0,0.0,0.0,0.0,0.0,0.0,0.0,0.0,0.0,0.0,0.0,0.0,0.0,0.0,0.0,0.0,0.0,0.0,0.0,0.0,0.0,0.0,0.0,0.0,0.0,0.0,0.0,0.0,0.0,0.0,0.0,0.0,0.0,0.0,0.0,0.0,0.0,0.0,0.0,0.0,0.8328,0.7625,0.6918,0.6245,0.5491,0.5035,0.0,0.0,0.0,0.0,0.0,0.0,0.0,0.0,0.0,0.0,0.0,0.0,0.0,0.0,0.0,0.0,0.0,0.0,0.0,0.0,0.0,0.0,0.0,0.0,0.0,0.0,0.0,0.0,0.0,0.0,0.0,0.0,0.0,0.0,0.0,0.0,0.0,0.0,0.0,0.0,0.0,0.0,0.0,0.0,0.0,0.0,0.0,0.0,0.0,0.0,0.0,0.0,0.0,0.0,0.0,0.0,0.0,0.0,0.0,0.0,0.0,0.0,0.0,0.0,0.0,0.0,0.0,0.0,0.0,0.0,0.0,0.0,0.0,0.0,0.0,0.0,0.0,0.0,0.0,0.0,0.0,0.0,0.0,0.0,0.0,0.0,0.0,0.0,0.0,0.0,0.0,0.0,0.0,0.0,0.0,0.0,0.0,0.0,0.0,0.0,0.0,0.0,0.0,0.0,0.0,0.0,0.0,0.0,0.9467,0.903,0.864,0.8069,0.7356,0.6398,0.5798,0.0,0.0,0.0,0.0,0.0,0.0,0.0,0.0,0.0,0.0,0.0,0.0,0.0,0.0,0.0,0.0,0.0,0.0,0.0,0.0,0.0,0.0,0.0,0.0,0.0,0.0,0.0,0.0,0.0,0.0,0.0,0.0,0.0,0.0,0.0,0.0,0.0,0.0,0.0,0.0,0.0,0.0,0.0,0.0,0.0,0.0,0.0,0.0,0.0,0.0,0.0,0.0,0.0,0.0,0.0,0.0,0.0,0.0,0.0,0.0,0.0,0.0,0.0,0.0,0.0,0.0,0.0,0.0,0.0,0.0,0.0,0.0,0.0,0.0,0.0,0.0,0.0,0.0,0.0,0.0,0.0,0.0,0.0,0.0,0.0,0.0,0.0,0.0,0.0,0.0,0.0,0.0,0.0,0.0,0.0,0.0,0.0,0.0,0.0,0.0,0.0,0.0,0.0,0.0,0.0,0.0,0.0,0.0,1.0164,0.9689,0.9519,0.917,0.8719,0.7429,0.6554,0.0,0.0,0.0,0.0,0.0,0.0,0.0,0.0,0.0,0.0,0.0,0.0,0.0,0.0,0.0,0.0,0.0,0.0,0.0,0.0,0.0,0.0,0.0,0.0,0.0,0.0,0.0,0.0,0.0,0.0,0.0,0.0,0.0,0.0,0.0,0.0,0.0,0.0,0.0,0.0,0.0,0.0,0.0,0.0,0.0,0.0,0.0,0.0,0.0,0.0,0.0,0.0,0.0,0.0,0.0,0.0,0.0,0.0,0.0,0.0,0.0,0.0,0.0,0.0,0.0,0.0,0.0,0.0,0.0,0.0,0.0,0.0,0.0,0.0,0.0,0.0,0.0,0.0,0.0,0.0,0.0,0.0,0.0,0.0,0.0,0.0,0.0,0.0,0.0,0.0,0.0,0.0,0.0,0.0,0.0,0.0,0.0,0.0,0.0,0.0,0.0,0.0,0.0,0.0,0.0,0.0,0.0,0.0,1.0857,1.0376,1.0207,0.9859,0.9384,0.8162,0.7274,0.0,0.0,0.0,0.0,0.0,0.0,0.0,0.0,0.0,0.0,0.0,0.0,0.0,0.0,0.0,0.0,0.0,0.0,0.0,0.0,0.0,0.0,0.0,0.0,0.0,0.0,0.0,0.0,0.0,0.0,0.0,0.0,0.0,0.0,0.0,0.0,0.0,0.0,0.0,0.0,0.0,0.0,0.0,0.0,0.0,0.0,0.0,0.0,0.7224,0.0,0.0,0.0,0.0,0.0,0.0,0.0,0.0,0.0,0.0,0.0,0.0,0.0,0.0,0.0,0.0,0.0,0.0,0.0,0.0,0.0,0.0,0.0,0.0,0.0,0.0,0.0,0.0,0.0,0.0,0.0,0.0,0.0,0.0,0.0,0.0,0.0,0.0,0.0,0.0,0.0,0.0,0.0,0.0,0.0,0.0,0.0,0.0,0.0,0.0,0.0,0.0,0.0,0.0,0.0,0.0,0.0,0.0,0.0,1.1628,1.1284,1.1068,1.0679,1.0072,0.9402,0.8662,0.0,0.0,0.0,0.0,0.0,0.0,0.0,0.0,0.0,0.0,0.0,0.0,0.0,0.0,0.0,0.0,0.0,0.0,0.0,0.0,0.0,0.0,0.0,0.0,0.0,0.0,0.0,0.0,0.0,0.0,0.0,0.0,0.0,0.0,0.0,0.0,0.0,0.0,0.0,0.0,0.0,0.0,0.0,0.0,0.0,0.0,0.0,0.0,0.0,0.0,0.0,0.0,0.0,0.0,0.0,0.0,0.0,0.0,0.0,0.0,0.0,0.0,0.0,0.0,0.0,0.0,0.0,0.0,0.0,0.0,0.0,0.0,0.0,0.0,0.0,0.0,0.0,0.0,0.0,0.0,0.0,0.0,0.0,0.0,0.0,0.0,0.0,0.0,0.0,0.0,0.0,0.0,0.0,0.0,0.0,0.0,0.0,0.0,0.0,0.0,0.0,0.0,0.0,0.0,0.0,0.0,0.0,1.279,1.2448,1.2229,1.1972,1.1542,1.0847,1.0809,1.0249,0.9139,0.0,0.0,0.0,0.0,0.0,0.0,0.0,0.0,0.0,0.0,0.0,0.0,0.0,0.0,0.0,0.0,0.0,0.0,0.0,0.0,0.0,0.0,0.0,0.0,0.0,0.0,0.0,0.0,0.0,0.0,0.0,0.0,0.0,0.0,0.0,0.0,0.0,0.0,1.1494,1.1106,0.0,0.0,0.0,0.0,0.0,0.0,0.0,0.0,0.8811,0.0,0.0,0.0,0.0,0.0,0.0,0.0,0.0,0.0,0.0,0.0,0.0,0.0,0.0,0.0,0.0,0.0,0.0,0.0,0.0,0.0,0.0,0.0,0.0,0.0,0.0,0.0,0.0,0.0,0.0,0.0,0.0,0.0,0.0,0.0,0.0,0.0,0.0,0.0,0.0,0.0,0.0,0.0,0.0,0.0,0.0,0.0,0.0,0.0,0.0,0.0,0.0,0.0,0.0,0.0,0.0,1.4188,1.3555,1.3222,1.3179,1.2747,1.2272,1.18,1.1757,1.1477,1.0866,0.0,0.0,0.0,0.0,0.0,0.0,0.0,0.0,0.0,0.0,0.0,0.0,0.0,0.0,0.0,0.0,0.0,0.0,0.0,0.0,0.0,0.0,0.0,0.0,0.0,0.0,0.0,0.0,0.0,0.0,0.0,0.0,0.0,0.0,0.0,0.0,0.0,0.0,0.0,1.2057,1.1752,0.0,0.0,0.0,0.0,0.0,0.0,0.0,0.0,0.9641,0.0,0.0,0.0,0.0,0.0,0.0,0.0,0.0,0.0,0.0,0.0,0.0,0.0,0.0,0.0,0.0,0.0,0.0,0.0,0.0,0.0,0.0,0.0,0.0,0.0,0.0,0.0,0.0,0.0,0.0,0.0,0.0,0.0,0.0,0.0,0.0,0.0,0.0,0.0,0.0,0.0,0.0,0.0,0.0,0.0,0.0,0.0,0.0,0.0,0.0,0.0,0.0,0.0,0.0,0.0,1.4894,1.4356,1.4062,1.4068,1.3633,1.3209,1.2747,1.2705,1.2534,0.0,0.0,0.0,0.0,0.0,0.0,0.0,0.0,0.0,0.0,0.0,0.0,0.0,0.0,0.0,0.0,0.0,0.0,0.0,0.0,0.0,0.0,0.0,0.0,0.0,0.0,0.0,0.0,0.0,0.0,0.0,0.0,0.0,0.0,0.0,0.0,0.0,0.0,0.0,0.0,1.3003,1.2699,1.2747,0.0,0.0,0.0,0.0,0.0,0.0,1.0944,1.0771,0.0,0.0,0.0,0.0,0.0,0.0,0.0,0.0,0.0,0.0,0.0,0.0,0.0,0.0,0.0,0.0,0.0,0.0,0.0,0.0,0.0,0.0,0.0,0.0,0.0,0.0,0.0,0.0,0.0,0.0,0.0,0.0,0.0,0.0,0.0,0.0,0.0,0.0,0.0,0.0,0.0,0.0,0.0,0.0,0.0,0.0,0.0,0.0,0.0,0.0,0.0,0.0,0.0,0.0,0.0,1.5643,1.5193,1.4985,1.4943,1.4559,1.4188,1.3779,1.3688,1.3476,0.0,0.0,0.0,0.0,0.0,0.0,0.0,0.0,0.0,0.0,0.0,0.0,0.0,0.0,0.0,0.0,0.0,0.0,0.0,0.0,0.0,0.0,0.0,0.0,0.0,0.0,0.0,0.0,0.0,0.0,0.0,0.0,0.0,0.0,0.0,0.0,0.0,0.0,0.0,0.0,0.0,1.373,1.3646,1.33,0.0,0.0,0.0,0.0,1.2143,1.2015,0.0,0.0,0.0,0.0,0.0,0.0,0.0,0.0,0.0,0.0,0.0,0.0,0.0,0.0,0.0,0.0,0.0,0.0,0.0,0.0,0.0,0.0,0.0,0.0,0.0,0.0,0.0,0.0,0.0,0.0,0.0,0.0,0.0,0.0,0.0,0.0,0.0,0.0,0.0,0.0,0.0,0.0,0.0,0.0,0.0,0.0,0.0,0.0,0.0,0.0,0.0,0.0,0.0,0.0,0.0,0.0,1.6566,1.6113,1.5922,1.5922,1.5484,1.511,1.4922,1.4657,1.4447,0.0,0.0,0.0,0.0,0.0,0.0,0.0,0.0,0.0,0.0,0.0,0.0,0.0,0.0,0.0,0.0,0.0,0.0,0.0,0.0,0.0,0.0,0.0,0.0,0.0,0.0,0.0,0.0,0.0,0.0,0.0,0.0,0.0,0.0,0.0,0.0,0.0,0.0,0.0,0.0,0.0,1.4831,1.4566,1.4356,1.4139,0.0,0.0,1.3525,1.3476,1.3137,0.0,0.0,0.0,0.0,0.0,0.0,0.0,0.0,0.0,0.0,0.0,0.0,0.0,0.0,0.0,0.0,0.0,0.0,0.0,0.0,0.0,0.0,0.0,0.0,0.0,0.0,0.0,0.0,0.0,0.0,0.0,0.0,0.0,0.0,0.0,0.0,0.0,0.0,0.0,0.0,0.0,0.0,0.0,0.0,0.0,0.0,0.0,0.0,0.0,0.0,0.0,0.0,0.0,0.0,0.0,1.7942,1.7619,1.7212,1.6976,1.6828,1.6509,1.6139,1.5858,1.5733,1.5526,0.0,0.0,0.0,0.0,0.0,0.0,0.0,0.0,0.0,0.0,0.0,0.0,0.0,0.0,0.0,0.0,0.0,0.0,0.0,0.0,0.0,0.0,0.0,0.0,0.0,0.0,0.0,0.0,0.0,0.0,0.0,0.0,0.0,0.0,0.0,0.0,0.0,0.0,0.0,0.0,0.0,0.0,1.5692,1.5477,0.0,0.0,0.0,1.4783,1.4538,0.0,0.0,0.0,0.0,0.0,0.0,0.0,0.0,0.0,0.0,0.0,0.0,0.0,0.0,0.0,0.0,0.0,0.0,0.0,0.0,0.0,0.0,0.0,0.0,0.0,0.0,0.0,0.0,0.0,0.0,0.0,0.0,0.0,0.0,0.0,0.0,0.0,0.0,0.0,0.0,0.0,0.0,0.0,0.0,0.0,0.0,0.0,0.0,0.0,0.0,0.0,0.0,0.0,0.0,0.0,0.0,0.0,1.8616,1.8224,1.7942,1.7789,1.7497,1.7204,1.6878,1.6804,0.0,0.0,0.0,0.0,0.0,0.0,0.0,0.0,0.0,0.0,0.0,0.0,0.0,0.0,0.0,0.0,0.0,0.0,0.0,0.0,0.0,0.0,0.0,0.0,0.0,0.0,0.0,1.6248,0.0,0.0,0.0,0.0,0.0,0.0,0.0,0.0,0.0,0.0,0.0,0.0,0.0,0.0,1.6804,1.6714,1.6591,1.6427,0.0,0.0,1.594,1.5616,1.5492,1.5284,0.0,0.0,0.0,0.0,0.0,0.0,0.0,0.0,0.0,0.0,0.0,0.0,0.0,0.0,0.0,0.0,0.0,0.0,0.0,0.0,0.0,0.0,0.0,0.0,0.0,0.0,0.0,0.0,0.0,0.0,0.0,0.0,0.0,0.0,0.0,0.0,0.0,0.0,0.0,0.0,0.0,0.0,0.0,0.0,0.0,0.0,0.0,0.0,0.0,0.0,0.0,0.0,0.0,0.0,0.0,1.952,1.9112,1.8922,1.8882,1.8465,1.8215,1.8175,1.7813,1.7619,0.0,0.0,0.0,0.0,0.0,0.0,0.0,0.0,0.0,0.0,0.0,0.0,0.0,0.0,0.0,0.0,0.0,0.0,0.0,0.0,0.0,0.0,0.0,0.0,0.0,0.0,0.0,0.0,0.0,0.0,0.0,0.0,0.0,0.0,0.0,0.0,0.0,0.0,0.0,0.0,0.0,1.7829,1.7659,1.761,1.7529,0.0,0.0,1.6919,1.6878,1.655,1.627,1.627,0.0,0.0,0.0,0.0,0.0,0.0,0.0,0.0,0.0,0.0,0.0,0.0,0.0,0.0,0.0,0.0,0.0,0.0,0.0,0.0,0.0,0.0,0.0,0.0,0.0,0.0,0.0,0.0,0.0,0.0,0.0,0.0,0.0,0.0,0.0,0.0,0.0,0.0,0.0,0.0,0.0,0.0,0.0,0.0,0.0,0.0,0.0,0.0,0.0,0.0,0.0,0.0,0.0,2.076,2.0605,2.0284,2.005,1.9745,1.9569,1.9362,1.9094,1.8975,1.8776,0.0,0.0,0.0,0.0,0.0,0.0,0.0,0.0,0.0,0.0,0.0,0.0,0.0,0.0,0.0,0.0,0.0,0.0,0.0,0.0,0.0,0.0,0.0,0.0,0.0,0.0,0.0,0.0,1.9812,2.0178,2.045,0.0,0.0,0.0,0.0,0.0,0.0,0.0,0.0,0.0,0.0,1.9085,1.8886,1.8847,0.0,0.0,1.8304,1.8175,1.8055,1.7934,1.7732,1.744,1.7318,0.0,0.0,0.0,0.0,0.0,0.0,0.0,0.0,0.0,0.0,0.0,0.0,0.0,0.0,0.0,0.0,0.0,0.0,0.0,0.0,0.0,0.0,0.0,0.0,0.0,0.0,0.0,0.0,0.0,0.0,0.0,0.0,0.0,0.0,0.0,0.0,0.0,0.0,0.0,0.0,0.0,0.0,0.0,0.0,0.0,0.0,0.0,0.0,0.0,0.0,0.0,0.0,2.1759,2.1655,2.1415,2.1098,2.0741,2.0673,2.043,2.0187,2.0109,1.9923,0.0,0.0,0.0,0.0,0.0,0.0,0.0,0.0,0.0,0.0,0.0,0.0,0.0,0.0,0.0,0.0,0.0,0.0,0.0,0.0,0.0,0.0,0.0,0.0,0.0,0.0,0.0,0.0,2.107,2.1405,2.1558,0.0,0.0,0.0,0.0,0.0,0.0,0.0,0.0,0.0,0.0,2.0216,2.0099,2.007,1.9991,1.9696,1.9539,1.9381,1.9253,1.9134,1.8957,1.8638,0.0,0.0,0.0,0.0,0.0,0.0,0.0,0.0,0.0,0.0,0.0,0.0,0.0,0.0,0.0,0.0,0.0,0.0,0.0,0.0,0.0,0.0,0.0,0.0,0.0,0.0,0.0,0.0,0.0,0.0,2.638,0.0,0.0,0.0,0.0,0.0,0.0,0.0,0.0,0.0,0.0,0.0,0.0,0.0,0.0,0.0,0.0,0.0,0.0,0.0,0.0,0.0,0.0,2.2703,2.2665,2.2289,2.2063,2.2035,2.1693,2.1464,2.1464,2.129,2.1049,2.0867,0.0,0.0,0.0,0.0,0.0,0.0,0.0,0.0,0.0,0.0,0.0,0.0,0.0,0.0,0.0,0.0,0.0,0.0,0.0,0.0,0.0,0.0,0.0,0.0,0.0,0.0,2.2042,2.2241,2.2354,0.0,0.0,0.0,0.0,0.0,0.0,0.0,0.0,0.0,0.0,2.1203,2.1165,2.1165,2.1155,2.1155,2.1126,2.0779,2.0459,2.0459,2.0138,1.9855,0.0,0.0,0.0,0.0,0.0,0.0,0.0,0.0,0.0,0.0,0.0,0.0,0.0,0.0,0.0,0.0,0.0,0.0,0.0,0.0,0.0,0.0,0.0,0.0,0.0,0.0,0.0,2.7242,2.7142,0.0,0.0,0.0,0.0,0.0,0.0,0.0,0.0,0.0,0.0,0.0,2.7108,2.7121,0.0,0.0,0.0,0.0,0.0,0.0,0.0,0.0,0.0,0.0,0.0,0.0,2.3765,2.3519,2.3372,2.3187,2.2889,2.2767,2.259,2.2289,2.2214,2.209,2.1901,0.0,0.0,0.0,0.0,0.0,0.0,0.0,0.0,0.0,0.0,0.0,0.0,0.0,0.0,0.0,0.0,0.0,0.0,0.0,0.0,0.0,0.0,0.0,0.0,0.0,2.315,0.0,0.0,0.0,0.0,0.0,0.0,0.0,0.0,0.0,0.0,0.0,2.2429,2.258,2.2494,2.2354,2.2241,2.2203,2.2117,0.0,0.0,0.0,0.0,0.0,0.0,0.0,0.0,0.0,0.0,0.0,0.0,0.0,0.0,1.9067,1.8198,1.7609,1.7169,1.6847,0.0,0.0,0.0,0.0,0.0,0.0,0.0,0.0,0.0,0.0,0.0,0.0,0.0,0.0,2.8137,0.0,2.7941,0.0,0.0,0.0,0.0,0.0,0.0,0.0,0.0,2.7901,2.7888,2.7868,2.7901,2.7776,0.0,2.743,2.6926,0.0,0.0,0.0,0.0,0.0,0.0,0.0,0.0,2.4743,2.4394,2.4322,2.4166,2.39,2.379,2.3644,2.3313,2.3187,2.3038,2.2927,2.2852,2.2815,0.0,0.0,0.0,0.0,0.0,0.0,0.0,0.0,0.0,0.0,0.0,0.0,0.0,0.0,0.0,0.0,0.0,0.0,0.0,0.0,0.0,0.0,0.0,2.4274,0.0,0.0,0.0,0.0,0.0,0.0,0.0,0.0,0.0,2.39,2.368,2.3644,2.3754,2.368,2.3534,2.3412,0.0,0.0,0.0,0.0,0.0,0.0,0.0,2.258,2.2446,2.2317,2.2138,2.1852,2.17,2.1596,2.1433,0.0,0.0,1.9238,1.856,1.8068,1.7716,1.7024,1.6411,1.6175,1.5571,1.5117,0.0,0.0,0.0,0.0,0.0,0.0,0.0,0.0,2.9131,2.9022,0.0,2.8835,0.0,0.0,0.0,0.0,0.0,2.8619,0.0,0.0,2.8619,2.8619,2.8619,2.8619,2.8509,2.832,2.8124,2.7941,2.7776,2.6892,0.0,0.0,0.0,0.0,0.0,0.0,2.5535,2.5347,2.5158,2.5052,2.5052,2.4826,2.4683,2.4527,2.4166,2.3959,2.3934,2.3776,2.3677,2.3629,2.3666,0.0,0.0,0.0,0.0,0.0,0.0,0.0,0.0,0.0,0.0,0.0,0.0,0.0,0.0,0.0,0.0,0.0,0.0,0.0,0.0,2.5111,0.0,0.0,0.0,0.0,0.0,0.0,0.0,0.0,0.0,0.0,2.4921,2.4779,2.4743,2.4743,0.0,0.0,0.0,0.0,2.4671,2.4551,2.4371,2.419,2.3995,2.3776,2.3666,2.3629,0.0,0.0,2.3113,2.274,2.2478,2.2478,2.2009,2.1219,1.994,1.9439,1.8948,1.822,1.7727,1.7312,1.6982,1.6569,1.6123,3.1116,0.0,0.0,0.0,0.0,3.0221,3.0129,2.996,2.996,2.9777,2.9529,2.9515,0.0,0.0,0.0,0.0,0.0,0.0,2.932,2.932,2.9289,2.9289,2.932,2.932,2.9212,2.8994,2.8849,2.8702,2.8514,2.8137,2.7709,2.7175,0.0,0.0,0.0,0.0,2.6496,2.6289,2.6104,2.5931,2.5861,2.5791,2.5687,2.5511,2.5253,2.5111,2.5111,2.4921,2.4814,2.4814,2.4814,0.0,0.0,0.0,0.0,0.0,0.0,0.0,0.0,0.0,0.0,0.0,0.0,0.0,0.0,0.0,0.0,0.0,0.0,0.0,2.6117,2.6358,2.6517,0.0,0.0,0.0,0.0,0.0,0.0,0.0,0.0,0.0,2.6947,2.6126,2.5604,0.0,0.0,2.5569,2.5569,2.5569,2.5534,2.5511,0.0,0.0,0.0,2.4957,2.4767,2.4623,2.4479,2.436,2.4251,2.4045,2.3852,2.3706,2.3142,2.2386,2.1528,2.0373,1.952,1.9039,1.8577,1.8144,1.793,1.7666,1.7354,3.216,3.1564,3.1204,3.0999,3.097,3.094,3.0881,3.0792,3.0777,3.0598,3.0282,3.0282,3.016,2.9991,3.0005,0.0,0.0,0.0,3.0005,3.0005,3.0005,3.0005,3.0005,3.0005,2.9884,2.9685,2.9543,2.9387,2.9184,2.9053,2.878,2.8314,0.0,0.0,2.7617,2.7464,2.731,2.7142,2.6939,2.6803,2.6701,2.6633,2.6517,2.6402,2.6255,2.6151,2.6151,2.6035,2.5965,2.5965,2.5965,2.6035,0.0,0.0,0.0,0.0,0.0,0.0,0.0,0.0,0.0,0.0,0.0,2.6,2.6151,0.0,0.0,0.0,2.6756,2.7007,2.7209,2.741,0.0,0.0,0.0,0.0,0.0,0.0,0.0,2.8118,2.8249,2.8314,2.83,2.765,2.7082,2.6871,2.6667,2.6517,2.6517,0.0,2.6517,2.6449,2.6402,2.6346,2.6186,2.6047,2.5931,2.5721,2.5464,2.5288,2.5288,2.5158,2.4909,2.4496,2.3909,2.3224,2.2489,2.1364,2.0389,1.9887,1.9419,1.9042,1.8959,1.8674,1.8301,3.2991,3.2815,3.2132,3.1752,3.1566,3.1566,3.1581,3.1581,3.1566,3.1364,3.1087,3.1087,3.0925,3.0657,3.0672,0.0,3.0657,3.0672,3.0687,3.0687,3.0672,3.0657,3.0672,3.0657,3.0538,3.0326,3.0221,3.0068,2.9839,2.9744,2.9665,2.9665,2.9067,2.8638,2.8417,2.8203,2.8006,2.7908,2.7689,2.759,2.759,2.741,2.733,2.7297,2.7162,2.7095,2.7108,2.7108,2.7074,2.7074,2.7074,2.7108,2.7108,0.0,0.0,0.0,0.0,0.0,0.0,0.0,0.0,0.0,0.0,0.0,0.0,0.0,0.0,0.0,2.7927,0.0,2.8137,2.8287,0.0,0.0,0.0,2.8899,2.8885,2.9085,2.9194,2.9162,0.0,0.0,2.9194,0.0,2.8894,2.8091,2.7789,2.759,2.759,2.759,2.7523,2.733,2.733,2.7263,2.7142,2.7061,2.6973,2.6782,2.6543,2.6324,2.6277,2.6064,2.566,2.5083,2.4462,2.3782,2.2955,2.2357,2.169,2.0796,2.028,1.9987,1.9933,1.9519,1.8979,3.3601,3.3445,3.3198,3.2726,3.2188,3.2203,3.2188,3.2188,3.2188,3.2035,3.1798,3.1754,3.1596,3.1292,3.1292,3.1292,3.1277,3.1292,3.1277,3.1292,3.1292,3.1234,3.1131,3.1131,3.0955,3.0702,3.0628,3.0568,3.0417,3.0387,3.0357,3.0357,3.0205,2.9837,2.9306,2.899,2.883,2.8812,2.8476,2.836,2.8327,2.8281,2.8281,2.8281,2.8072,2.7993,2.7993,2.7829,2.7776,2.7776,2.7776,2.7829,2.7993,2.7993,0.0,0.0,0.0,0.0,0.0,0.0,0.0,0.0,0.0,2.8026,2.8124,0.0,2.85,0.0,2.8899,2.9058,2.9216,2.9373,0.0,0.0,2.9747,2.9777,2.9808,2.9839,2.9853,2.9853,2.9946,3.0021,3.0021,3.0007,2.9946,2.9716,2.898,2.8468,2.8514,2.8398,2.8327,2.8281,2.8249,2.8203,2.8026,2.7875,2.7709,2.7577,2.7477,2.7377,2.7222,2.6647,2.6149,2.5892,2.4936,2.4161,2.3854,2.3207,2.2659,2.2304,2.1639,2.0944,2.07,2.0153,1.958,3.4151,3.3949,3.3873,3.3591,3.314,3.2888,3.2796,3.2796,3.2742,3.2563,3.2327,3.2219,3.2064,3.1908,3.1923,3.1879,3.1923,3.1908,3.1866,3.1809,3.1809,3.1739,3.1596,3.1611,3.1452,3.1205,3.1205,3.1131,3.0999,3.0999,3.0999,3.0999,3.0955,3.0717,3.0357,2.9806,2.9557,2.9543,2.9212,2.9035,2.9035,2.9035,2.9035,2.9035,2.8912,2.8881,2.8881,2.8753,2.872,2.872,2.872,2.8785,2.8949,2.8962,2.9075,0.0,0.0,0.0,0.0,0.0,0.0,0.0,0.0,0.0,0.0,0.0,2.9449,2.9605,2.9839,3.0009,3.0146,3.0253,3.0388,3.0493,3.0569,3.0643,3.0643,3.0688,3.0703,3.0732,3.0777,3.0837,3.0837,3.0807,3.0851,3.0837,3.0297,2.9732,2.9328,2.9166,2.9117,2.9067,2.9035,2.9004,2.8894,2.872,2.8546,2.8384,2.8085,2.7769,2.7575,2.6969,2.638,2.5984,2.5305,2.4615,2.4296,2.3846,2.3437,2.3233,2.2811,2.2145,2.1357,2.0769,2.0186,3.4594,3.4399,3.4374,3.4275,3.4134,3.3642,3.3424,3.3372,3.3229,3.3081,3.2884,3.2629,3.2508,3.2508,3.248,3.248,3.248,3.2496,3.2398,3.229,3.2274,3.2206,3.2066,3.2066,3.1966,3.1781,3.1796,3.1724,3.161,3.161,3.1581,3.1537,3.1452,3.1394,3.138,3.0673,3.0251,3.016,2.9882,2.9713,2.9727,2.9727,2.9727,2.9727,2.9727,2.9727,2.9727,2.9727,2.9727,2.9727,2.9758,2.9806,2.9931,2.9931,3.0054,0.0,3.0251,0.0,0.0,0.0,0.0,0.0,0.0,0.0,0.0,3.0176,3.0328,3.0477,3.0748,3.0955,3.0984,3.1087,3.116,3.119,3.1321,3.1452,3.1452,3.1552,3.1623,3.1638,3.1623,3.1595,3.161,3.1623,3.1623,3.1595,3.1466,3.1029,3.0297,3.0009,2.9884,2.9758,2.9727,2.9727,2.9682,2.956,2.9376,2.9091,2.8547,2.7934,2.7649,2.7128,2.6497,2.5932,2.5582,2.5181,2.4545,2.4334,2.4147,2.3989,2.369,2.3115,2.2031,2.1296,2.0612,3.4994,3.4906,3.4732,3.4594,3.457,3.4349,3.4075,3.3771,3.3658,3.3529,3.3356,3.3198,3.3118,3.3134,3.3,3.2962,3.2962,3.2854,3.2816,3.2761,3.2746,3.2676,3.2492,3.2492,3.241,3.2287,3.2259,3.2203,3.2079,3.2079,3.1994,3.1925,3.1883,3.1883,3.1855,0.0,0.0,0.0,3.0447,3.0387,3.0431,3.0401,3.0387,3.0387,3.0401,0.0,3.0431,3.0417,3.0387,3.0431,3.0523,0.0,0.0,0.0,0.0,0.0,0.0,0.0,0.0,0.0,0.0,0.0,3.1652,3.1552,3.1058,3.1234,3.1408,3.1437,3.1595,3.1766,3.1938,3.1951,3.2007,3.2132,3.2176,3.2203,3.2203,3.2216,3.2216,3.2231,3.2216,3.2216,3.2216,3.2231,3.2231,3.2203,3.2092,3.191,3.161,3.0984,3.0583,3.0447,3.0403,3.0387,3.0417,3.0313,2.9903,2.9334,2.9015,2.854,2.7809,2.7165,2.6775,2.6509,2.5923,2.5381,2.5203,2.5006,2.4793,2.4751,2.4163,2.3328,2.2512,2.1745,2.0978,3.5304,0.0,3.5065,3.4994,0.0,3.4851,3.4643,3.4374,3.4126,3.3889,3.3694,3.3633,3.3555,3.3487,3.3424,3.3398,3.3398,3.3319,3.3256,3.3203,3.3203,3.3096,3.285,3.285,3.2769,3.2633,3.2648,3.2621,3.2539,3.2539,3.2527,3.2444,3.233,3.2287,3.2302,3.212,3.1724,3.1058,3.1058,3.1029,3.1058,3.1029,3.1029,3.1073,0.0,0.0,0.0,0.0,0.0,0.0,0.0,0.0,0.0,0.0,0.0,3.1823,3.1838,3.1866,3.1936,3.2048,3.216,3.2228,3.2535,3.2496,3.1894,3.2035,3.2132,3.2132,3.2327,3.2492,3.259,3.2687,3.2769,3.285,3.2834,3.285,3.2834,3.285,3.285,3.285,3.2866,3.285,3.285,3.285,3.2807,3.2742,3.2703,3.2551,3.2302,3.1695,3.119,3.1043,3.0719,3.0557,3.0513,3.0161,2.9826,2.9189,2.8741,2.8311,2.7797,2.717,2.6741,2.6714,2.6253,2.5837,2.581,2.5619,2.5425,2.537,2.4682,2.3852,2.3175,2.2158,2.1091,3.5622,3.5492,3.5429,3.536,3.5344,3.5222,3.5155,3.5129,0.0,0.0,0.0,3.4016,3.3949,3.3848,3.3797,3.3797,3.3771,3.372,3.3642,3.3529,3.3529,3.3424,3.3203,3.3203,3.3165,3.3058,3.3032,3.3032,3.3005,3.3005,3.3005,3.2951,3.2796,3.2711,3.2711,3.2602,3.2299,3.1838,3.1709,3.1652,3.1652,3.1667,3.1652,3.1652,3.1652,3.1652,3.1667,3.1667,3.1652,3.1652,3.1809,3.1979,3.2135,3.2318,3.2441,3.2535,3.2563,3.2578,3.2563,3.2726,3.2857,3.3018,3.3303,3.3214,3.2617,3.2711,3.2792,3.2819,3.3033,3.3193,3.3208,3.333,3.3424,3.345,3.345,3.345,3.345,3.3424,3.3424,3.345,3.3424,3.344,3.3398,3.3398,3.3361,3.3198,3.3035,3.2803,3.24,3.1882,3.1466,3.117,3.0736,3.0438,3.0351,2.9968,2.9372,2.9047,2.8481,2.8003,2.7652,2.7231,2.6884,2.6873,2.6616,2.6484,2.6404,2.6204,2.5987,2.5861,2.514,2.4315,2.3693,2.2462,2.125,3.5932,3.591,3.5812,3.5644,3.5571,3.5402,3.5679,3.6074,3.4979,3.4448,3.4423,3.4423,3.4382,3.4358,3.4275,3.4151,3.4025,3.3924,3.3797,0.0,3.3684,3.3658,3.3591,3.3633,3.3591,3.3581,3.3581,3.3529,3.3424,3.3414,3.3346,3.3256,3.3214,3.3214,3.3187,3.3187,3.3134,3.3038,3.2535,3.2272,3.2272,3.2272,3.2272,3.2259,3.2272,3.2272,3.2272,3.2272,3.2287,3.2287,3.2504,3.2668,3.2695,3.2969,3.316,3.316,3.316,3.316,3.3203,3.3408,3.3668,3.3882,3.3975,3.3745,3.324,3.3408,3.3539,3.3549,3.3755,3.3933,3.3933,3.3975,3.3975,3.3975,3.3991,3.4,3.3975,3.3975,3.3975,3.3975,3.3975,3.3924,3.3822,3.3806,3.3681,3.3505,3.2946,3.2222,3.1593,3.1404,3.1152,3.0654,3.0383,3.0269,3.0164,3.008,2.958,2.8944,2.8726,2.8374,2.7771,2.7552,2.7423,2.7335,2.7155,2.7011,2.6922,2.6738,2.6349,2.5856,2.5086,2.4305,2.3582,2.2585,2.1704,3.617,3.6131,3.5975,3.6105,3.6429,3.6654,3.6885,3.7028,3.642,3.605,3.591,3.591,3.5827,3.5693,3.5626,3.5591,3.5482,3.5056,3.4785,3.4702,3.4304,3.4034,3.3924,3.3924,3.3822,3.3694,3.3694,3.3668,3.3633,3.3633,3.3565,3.3513,3.3529,3.3513,3.3529,3.3529,3.3545,3.3503,3.3107,3.2877,3.2877,3.2904,3.2861,3.2904,3.2893,3.2877,3.2877,3.2904,3.2877,3.2904,3.3076,3.3235,3.3272,3.3497,3.3658,3.372,3.3736,3.372,3.372,3.3975,3.4226,3.4399,3.4497,3.4448,3.4217,3.4059,3.4025,3.4025,3.4275,3.4423,3.4423,3.4497,3.4546,3.4546,3.4521,3.4521,3.4521,3.4448,3.4423,3.4423,3.4349,3.43,3.4209,3.3884,3.3591,3.3379,3.2683,3.1814,3.1031,3.0973,3.0945,3.0709,3.0353,3.007,2.9929,2.9529,2.9147,2.8725,2.862,2.8398,2.7995,2.7925,2.7865,2.7755,2.7615,2.7514,2.7427,2.7248,2.6799,2.6165,2.5334,2.4558,2.3755,2.288,2.2062,3.6485,3.6581,3.6431,3.6769,3.7433,3.7999,3.8173,3.8038,3.81,3.797,3.7736,3.7369,3.706,3.683,3.683,3.6821,3.6662,3.6153,3.5891,3.5758,3.5086,3.4644,3.4412,3.4298,3.4059,3.3899,3.3873,3.3889,3.3873,3.3889,3.3889,3.3873,3.3873,3.3873,3.3873,3.3873,3.3873,3.3873,3.3684,3.3503,3.3414,3.3414,3.3398,3.3424,3.3424,3.345,3.3492,3.3477,3.3477,3.3477,3.3591,3.372,3.3822,3.3949,3.4101,3.4201,3.425,3.425,3.4325,3.4521,3.4691,3.4828,3.4923,3.4994,3.4977,3.4723,3.4529,3.4521,3.4707,3.4835,3.4835,3.4923,3.4994,3.5011,3.4994,3.497,3.497,3.4883,3.4828,3.4811,3.4756,3.4617,3.4339,3.3895,3.3348,3.2758,3.2185,3.1468,3.0768,3.0606,3.0635,3.0601,3.0211,2.9816,2.9688,2.9217,2.8833,2.8692,2.8589,2.8508,2.8381,2.8348,2.8299,2.8152,2.8029,2.7915,2.789,2.754,2.7006,2.6292,2.544,2.4631,2.3801,2.3083,2.2361,3.7002,3.7434,3.7426,3.7767,3.8322,3.8995,3.917,3.9159,3.9746,3.9901,3.9446,3.8095,3.7419,3.7245,3.7311,3.7194,3.6964,3.6807,3.6723,3.6537,3.5824,3.548,3.5405,3.4775,3.4448,3.4431,3.4399,3.4374,3.4374,3.4399,3.4407,3.4423,3.4423,3.4382,3.4423,3.4399,3.4423,3.4407,3.4399,3.4151,3.3694,3.3668,3.372,3.3848,3.3848,3.3899,3.4,3.4025,3.4025,3.405,3.4151,3.4242,3.425,3.4374,3.4497,3.4618,3.4659,3.4756,3.497,3.5018,3.5088,3.5222,3.5268,3.5314,3.5333,3.5333,3.5234,3.5111,3.5175,3.5245,3.5261,3.5268,3.5291,3.5291,3.5291,3.5268,3.5268,3.5261,3.5228,3.5245,3.5148,3.4941,3.4236,3.3898,3.321,3.1868,3.1566,3.1133,3.05,3.0353,3.0288,3.0117,2.9788,2.9571,2.9402,2.9316,2.9121,2.8943,2.8858,2.8818,2.8763,2.8708,2.87,2.8501,2.842,2.8299,2.8064,2.7598,2.6816,2.6118,2.5264,2.4342,2.3466,2.3029,2.2655,3.7603,3.7854,3.8196,3.8582,3.9118,3.986,4.0089,4.0002,4.0218,4.0213,4.0062,3.9353,3.8925,3.8722,3.8722,3.8594,3.8413,3.7982,3.7722,3.7543,3.6825,3.6437,3.6295,3.5621,3.521,3.5086,3.471,3.4497,3.448,3.4497,3.448,3.448,3.448,3.448,3.448,3.448,3.448,3.448,3.448,3.4423,3.43,3.4226,3.4201,3.425,3.425,3.4275,3.4349,3.4399,3.4448,3.4472,3.4586,3.4707,3.478,3.4811,3.4923,3.5041,3.5058,3.5111,3.5258,3.535,3.5458,3.5611,3.5661,3.5711,3.5739,3.5756,3.5694,3.5644,3.56,3.5611,3.5611,3.5644,3.5706,3.5706,3.5728,3.5706,3.5728,3.5639,3.5571,3.547,3.5032,3.4605,3.4085,3.3345,3.2405,3.1332,3.1074,3.0879,3.0471,3.038,3.0312,3.0146,2.9973,2.9814,2.9614,2.9457,2.9389,2.9298,2.9275,2.9229,2.9114,2.9021,2.8928,2.8818,2.8716,2.8636,2.8565,2.7835,2.7057,2.6146,2.4948,2.3968,2.3553,2.337,2.312,3.8286,3.8678,3.9229,3.9589,3.9937,4.0487,4.0697,4.0551,4.0412,4.0337,4.028,4.0163,3.9995,3.9833,3.9781,3.9694,3.9497,3.8996,3.8702,3.8479,3.7799,3.7391,3.7206,3.6488,3.6091,3.5934,3.549,3.5128,3.4931,3.466,3.4594,3.4618,3.4618,3.4618,3.4667,3.4667,3.4691,3.4715,3.4715,3.4763,3.4851,3.4763,3.4691,3.4667,3.4683,3.4667,3.4732,3.4811,3.4875,3.4875,3.4947,3.5041,3.5135,3.5182,3.5274,3.5429,3.5475,3.5526,3.556,3.565,3.5756,3.5861,3.5971,3.6036,3.6041,3.6041,3.6062,3.6062,3.5997,3.5949,3.5883,3.5932,3.5997,3.6014,3.6014,3.6014,3.5993,3.5888,3.5732,3.5428,3.4888,3.4255,3.3686,3.2618,3.1556,3.11,3.0908,3.0851,3.0671,3.0609,3.0568,3.0401,3.0338,3.0162,2.9902,2.9792,2.9697,2.963,2.9614,2.9531,2.9418,2.9282,2.919,2.9121,2.8998,2.8858,2.8709,2.8101,2.6953,2.5984,2.4875,2.3961,2.3867,2.3711,2.356,3.8905,4.0176,4.0775,4.0868,4.0836,4.0853,4.0817,4.0673,4.0534,4.0412,4.0288,4.0146,4.0087,4.0062,3.9952,3.9807,3.9703,3.9594,3.9499,3.9318,3.8668,3.8258,3.8086,3.7391,3.7044,3.7027,3.6836,3.6489,3.5918,3.5273,3.4875,3.4949,3.5015,3.5013,3.5084,3.5124,3.5168,3.5215,3.5198,3.5245,3.5268,3.5268,3.5175,3.5088,3.5065,3.5088,3.5222,3.5245,3.5285,3.5268,3.5291,3.5274,3.5297,3.5373,3.5509,3.5751,3.5905,3.5954,3.5954,3.5975,3.5975,3.5997,3.6041,3.6079,3.6187,3.6225,3.6251,3.628,3.6297,3.6195,3.6062,3.6041,3.6041,3.6019,3.6019,3.6019,3.6019,3.5933,3.5638,3.5138,3.4755,3.4044,3.2768,3.1825,3.1337,3.1069,3.0972,3.0912,3.0875,3.0855,3.0834,3.0773,3.063,3.0422,3.0231,3.006,3.0055,2.9989,2.9842,2.9766,2.9665,2.9586,2.9502,2.9412,2.9321,2.9127,2.8846,2.7929,2.6504,2.5497,2.4853,2.4224,2.4162,2.3946,2.3797,4.011,4.0871,4.1099,4.1041,4.0912,4.0894,4.0847,4.0817,4.0607,4.0468,4.0387,4.0196,4.0113,4.0113,4.0062,3.9961,3.9849,3.9849,3.9772,3.9609,3.9341,3.9215,3.908,3.831,3.7926,3.7859,3.7385,3.702,3.687,3.6628,3.6577,3.656,3.6577,3.6367,3.6014,3.593,3.5753,3.5358,3.5308,3.5354,3.5423,3.5423,3.5406,3.5418,3.5314,3.5245,3.5308,3.5383,3.5452,3.5487,3.5571,3.5661,3.5751,3.5761,3.5822,3.591,3.5954,3.6041,3.6101,3.6122,3.6187,3.6314,3.6318,3.6377,3.6499,3.652,3.652,3.6561,3.6544,3.6502,3.644,3.6314,3.6195,3.6195,3.6195,3.6195,3.6092,3.5799,3.5349,3.4905,3.4158,3.2983,3.2193,3.1575,3.1383,3.1308,3.1232,3.1137,3.1075,3.1032,3.0955,3.0912,3.0831,3.0712,3.0671,3.0359,3.0184,3.0162,3.0081,3.006,2.9989,2.9798,2.9694,2.9665,2.9576,2.932,2.8968,2.8003,2.6514,2.5329,2.465,2.4513,2.4446,2.4261,2.412,4.0998,4.1197,4.1209,4.1088,4.0894,4.0894,4.0894,4.0864,4.0614,4.051,4.0444,4.0238,4.0113,4.0113,4.0113,4.0062,3.9961,3.9961,3.9884,3.9755,3.9755,3.9755,3.962,3.9081,3.8813,3.8696,3.7994,3.7627,3.7678,3.756,3.7509,3.7492,3.7509,3.7299,3.6853,3.6568,3.6189,3.5809,3.5541,3.5458,3.5566,3.5605,3.5656,3.5689,3.5594,3.552,3.5475,3.5571,3.5661,3.5734,3.5817,3.5927,3.6041,3.6079,3.6101,3.6088,3.6148,3.6191,3.6293,3.6353,3.6437,3.6561,3.6582,3.6602,3.6702,3.6719,3.6719,3.6719,3.6719,3.6719,3.6681,3.6523,3.644,3.6423,3.6423,3.6402,3.6346,3.5725,3.5007,3.4255,3.3179,3.2192,3.1658,3.1555,3.15,3.15,3.1423,3.1349,3.1288,3.1193,3.1095,3.1035,3.0992,3.0915,3.0855,3.0651,3.0464,3.0422,3.0316,3.0312,3.0231,3.0044,2.9919,2.9913,2.9745,2.9452,2.8816,2.7897,2.6766,2.5449,2.4966,2.4791,2.469,2.4569,2.4446,4.1436,4.1209,4.1209,4.1088,4.0894,4.0894,4.0894,4.0847,4.0624,4.051,4.0444,4.0221,4.0113,4.0113,4.0113,4.0113,4.0087,4.0087,4.0028,3.991,3.9884,3.9849,3.9713,3.962,3.9543,3.9527,3.8941,3.8623,3.8556,3.8086,3.7776,3.7651,3.7768,3.7808,3.7713,3.7148,3.674,3.654,3.5999,3.5712,3.5756,3.5795,3.5861,3.5954,3.5954,3.591,3.5795,3.591,3.5954,3.5975,3.5997,3.6062,3.6165,3.6208,3.6247,3.6318,3.6402,3.6502,3.6502,3.6602,3.6661,3.6702,3.6684,3.6684,3.6742,3.6742,3.6742,3.6742,3.6742,3.6722,3.6722,3.6722,3.6684,3.6702,3.6661,3.6602,3.6402,3.581,3.473,3.3285,3.2316,3.1796,3.1653,3.1615,3.1596,3.1555,3.1517,3.1481,3.1462,3.1368,3.1312,3.1254,3.1173,3.1055,3.0995,3.0935,3.0814,3.0712,3.0589,3.0526,3.0443,3.03,3.0194,3.0167,3.0081,2.9756,2.8801,2.7899,2.7036,2.5966,2.556,2.508,2.495,2.4846,2.4706,4.1453,4.1209,4.1209,4.1071,4.0894,4.0894,4.0894,4.0871,4.0607,4.051,4.0444,4.0221,4.0113,4.0113,4.0113,4.0113,4.0113,4.0113,4.0087,4.0037,4.0037,4.0011,3.9961,3.9884,3.9781,3.9713,3.9563,3.9471,3.9429,3.9312,3.9294,3.9294,3.9261,3.9049,3.8576,3.8348,3.7865,3.6863,3.6627,3.6299,3.5863,3.5905,3.5954,3.5997,3.6101,3.6101,3.6058,3.6036,3.6058,3.6122,3.6161,3.6187,3.6255,3.6356,3.6419,3.6444,3.6561,3.6643,3.6643,3.6664,3.6725,3.6748,3.6786,3.6826,3.6906,3.6888,3.6888,3.6888,3.6908,3.6908,3.6926,3.6926,3.6846,3.6722,3.6719,3.6667,3.6452,3.5399,3.3938,3.2567,3.1958,3.1781,3.1746,3.1727,3.1726,3.1688,3.1632,3.1578,3.1559,3.15,3.1443,3.1423,3.1291,3.1213,3.1173,3.1114,3.1015,3.0915,3.0814,3.0712,3.063,3.0547,3.0464,3.0359,3.0295,2.9812,2.8837,2.7965,2.7146,2.6401,2.5805,2.547,2.5249,2.5084,2.4926,4.1453,4.1209,4.1209,4.1088,4.0894,4.0894,4.0888,4.0799,4.0607,4.0468,4.0387,4.0213,4.0113,4.0113,4.0113,4.0113,4.0113,4.0113,4.0113,4.0113,4.0113,4.0113,4.0096,4.0011,3.9952,3.9884,3.9952,3.9961,3.9961,4.0062,4.0096,4.0096,4.0113,3.9876,3.9402,3.9106,3.8488,3.7706,3.7165,3.6707,3.641,3.6173,3.6084,3.6127,3.6208,3.6229,3.6229,3.6148,3.6148,3.6251,3.6272,3.6318,3.6381,3.6502,3.6582,3.6602,3.6647,3.6725,3.6745,3.6786,3.6829,3.6851,3.6888,3.6908,3.697,3.6989,3.6989,3.6989,3.697,3.6989,3.6989,3.6989,3.6928,3.6846,3.6826,3.6646,3.6257,3.5133,3.3857,3.2746,3.2101,3.1908,3.1838,3.1818,3.18,3.1781,3.1727,3.1671,3.1653,3.1596,3.1559,3.1519,3.1426,3.1368,3.1368,3.1291,3.1176,3.1095,3.0995,3.0895,3.0831,3.0733,3.0651,3.0547,3.0443,3.0029,2.9132,2.8323,2.7517,2.6805,2.6147,2.5699,2.5413,2.5278,2.5143,4.1431,4.1209,4.1209,4.1088,4.0894,4.0894,4.0823,4.0697,4.0576,4.0436,4.0305,4.0163,4.0113,4.0113,4.0113,4.0113,4.0113,4.0113,4.0113,4.0113,4.0113,4.0113,4.0096,4.007,4.0062,4.0045,4.007,4.007,4.0087,4.0113,4.0113,4.0113,4.0113,4.0113,3.9893,3.9402,3.9129,3.8819,3.7795,3.7302,3.7207,3.6668,3.6281,3.6297,3.628,3.6301,3.628,3.628,3.6301,3.6339,3.644,3.6482,3.6541,3.6643,3.6702,3.6705,3.6768,3.6809,3.6849,3.6908,3.697,3.697,3.6987,3.6989,3.6989,3.6989,3.6989,3.6989,3.6989,3.6989,3.6989,3.6989,3.6987,3.6989,3.695,3.663,3.5817,3.5004,3.4215,3.3395,3.2557,3.2015,3.2118,3.201,3.1939,3.18,3.1764,3.1781,3.1763,3.169,3.1634,3.1578,3.154,3.1502,3.1483,3.1387,3.131,3.1271,3.1173,3.1075,3.0972,3.0895,3.0814,3.0712,3.0559,3.0092,2.9593,2.8882,2.8096,2.7365,2.6703,2.6007,2.5619,2.5486,2.5375,4.1363,4.1209,4.1152,4.1029,4.0894,4.0894,4.084,4.0697,4.0558,4.0412,4.0288,4.018,4.0113,4.0113,4.0113,4.0113,4.0113,4.0113,4.0113,4.0113,4.0113,4.0113,4.0113,4.0113,4.0113,4.0113,4.0113,4.0113,4.0113,4.0113,4.0113,4.0113,4.0113,4.0113,4.0045,3.9968,3.9678,3.9275,3.9033,3.8243,3.7458,3.7253,3.6848,3.6318,3.6301,3.6301,3.6305,3.6385,3.6444,3.6461,3.6482,3.6561,3.6643,3.6725,3.6768,3.6788,3.6869,3.693,3.6948,3.6987,3.6989,3.6989,3.6989,3.6989,3.6989,3.6989,3.6989,3.6989,3.6989,3.6989,3.6989,3.6989,3.6989,3.6989,3.6989,3.6707,3.5999,3.5519,3.5042,3.429,3.3775,3.3318,3.2916,3.2668,3.2438,3.2059,3.1903,3.1869,3.1919,3.1781,3.1709,3.1709,3.1671,3.1615,3.1559,3.1483,3.1443,3.1423,3.1346,3.1232,3.1114,3.1032,3.0952,3.0855,3.081,3.0462,3.0198,2.9715,2.8877,2.8009,2.7219,2.6534,2.5982,2.5726,2.5602,4.1318,4.1209,4.114,4.1006,4.0912,4.084,4.0745,4.0624,4.0461,4.0337,4.0213,4.0138,4.0113,4.0113,4.0113,4.0113,4.0113,4.0113,4.0113,4.0113,4.0113,4.0113,4.0113,4.0113,4.0113,4.0113,4.0113,4.0113,4.0113,4.0113,4.0113,4.0113,4.0113,4.0113,4.0096,4.0196,4.0143,3.9773,3.96,3.9055,3.8367,3.7745,3.7301,3.6766,3.6525,3.6322,3.6364,3.6444,3.6502,3.6523,3.6585,3.6667,3.6745,3.6829,3.6888,3.6871,3.6968,3.6989,3.6989,3.6989,3.6989,3.6989,3.6989,3.6989,3.6989,3.6989,3.6989,3.6989,3.6989,3.6989,3.6989,3.6989,3.6989,3.6989,3.6989,3.6812,3.632,3.5964,3.5575,3.51,3.462,3.4192,3.3668,3.3538,3.3254,3.2871,3.2524,3.2421,3.23,3.2024,3.18,3.1781,3.1763,3.1709,3.1653,3.1596,3.1521,3.1519,3.1462,3.1349,3.1232,3.1151,3.1072,3.0992,3.0972,3.0861,3.0577,3.0212,2.9576,2.8716,2.7852,2.713,2.6613,2.6077,2.5954,4.1295,4.1186,4.1123,4.1023,4.0888,4.0769,4.0648,4.0485,4.0379,4.0221,4.0138,4.0113,4.0113,4.0113,4.0113,4.0113,4.0113,4.0113,4.0113,4.0113,4.0113,4.0113,4.0113,4.0113,4.0113,4.0113,4.0113,4.0113,4.0113,4.0113,4.0113,4.0113,4.0113,4.0113,4.0146,4.0263,4.0387,4.0339,4.0021,3.9686,3.9296,3.8491,3.7836,3.7284,3.6628,3.6416,3.6461,3.6541,3.6527,3.6527,3.669,3.6788,3.6811,3.6948,3.6987,3.6987,3.6987,3.6989,3.6989,3.6989,3.6989,3.6989,3.6989,3.6989,3.6989,3.6989,3.6989,3.6989,3.6989,3.6989,3.6989,3.6989,3.6989,3.6989,3.6989,3.6989,3.6867,3.6355,3.5915,3.5897,3.5208,3.4798,3.4528,3.4415,3.4229,3.3561,3.3214,3.2972,3.2714,3.2403,3.2076,3.18,3.18,3.18,3.1746,3.169,3.1634,3.1596,3.1557,3.1462,3.1327,3.123,3.1171,3.1112,3.1092,3.1015,3.0845,3.0436,3.0018,2.9474,2.8655,2.7938,2.7286,2.6726,2.6418,4.1198,4.1099,4.0982,4.0935,4.0888,4.0745,4.0624,4.0485,4.0337,4.0213,4.0121,4.0113,4.0113,4.0113,4.0113,4.0113,4.0113,4.0113,4.0113,4.0113,4.0113,4.0113,4.0113,4.0113,4.0113,4.0113,4.0113,4.0113,4.0113,4.0113,4.0113,4.0113,4.0113,4.0163,4.0263,4.0387,4.0527,4.0638,4.0586,4.0244,3.9819,3.9353,3.856,3.7616,3.677,3.6433,3.6502,3.6602,3.6684,3.6728,3.6788,3.6851,3.6911,3.697,3.6989,3.6989,3.6989,3.6989,3.6989,3.6989,3.6989,3.6989,3.6989,3.6989,3.6989,3.6989,3.6989,3.6989,3.6989,3.6989,3.6989,3.6989,3.6989,3.6989,3.6989,3.6989,3.6972,3.6831,3.6671,3.6599,3.6398,3.6018,3.5364,3.5231,3.4889,3.4271,3.3906,3.3559,3.3214,3.2869,3.2421,3.2076,3.18,3.18,3.1781,3.1746,3.1709,3.1671,3.1615,3.1595,3.1462,3.1349,3.1291,3.1232,3.1193,3.1098,3.1018,3.0908,3.0535,2.999,2.9446,2.8743,2.807,2.7459,2.6851,4.1175,4.1093,4.0976,4.0847,4.0776,4.0673,4.0534,4.0387,4.0263,4.0163,4.0113,4.0113,4.0113,4.0113,4.0113,4.0113,4.0113,4.0113,4.0113,4.0113,4.0113,4.0113,4.0113,4.0113,4.0113,4.0113,4.0113,4.0113,4.0113,4.0113,4.0113,4.0113,4.0113,4.0163,4.0288,4.0436,4.0576,4.0697,4.084,4.067,4.0302,3.9836,3.8991,3.7789,3.7064,3.6796,3.6617,3.6661,3.6766,3.6869,3.6908,3.6911,3.6987,3.6989,3.6989,3.6989,3.6989,3.6989,3.6989,3.6989,3.6989,3.6989,3.6989,3.6989,3.6989,3.6989,3.6989,3.6989,3.6989,3.6989,3.6989,3.6989,3.6989,3.6989,3.6989,3.6989,3.6989,3.6989,3.6989,3.697,3.6878,3.6584,3.6237,3.5945,3.5772,3.531,3.4752,3.4404,3.4024,3.3611,3.2886,3.2421,3.2007,3.1817,3.18,3.1781,3.1764,3.1727,3.1709,3.1707,3.1651,3.154,3.1447,3.1387,3.131,3.1235,3.1159,3.1083,3.1007,3.0631,3.0106,2.9503,2.8824,2.8124,2.7533,4.1152,4.107,4.0912,4.0817,4.0673,4.0551,4.0429,4.0288,4.0146,4.0096,4.0113,4.0113,4.0113,4.0113,4.0113,4.0113,4.0113,4.0113,4.0113,4.0113,4.0113,4.0113,4.0113,4.0113,4.0113,4.0113,4.0113,4.0113,4.0113,4.0113,4.0113,4.0113,4.0113,4.0196,4.0313,4.0436,4.0583,4.0745,4.0823,4.0877,4.0756,4.0239,3.9284,3.8284,3.7512,3.7292,3.697,3.6844,3.6786,3.697,3.6989,3.6989,3.6989,3.6989,3.6989,3.6989,3.6989,3.6989,3.6989,3.6989,3.6989,3.6989,3.6989,3.6989,3.6989,3.6989,3.6989,3.6989,3.6989,3.6989,3.6989,3.6989,3.6989,3.6989,3.6989,3.6989,3.6989,3.6989,3.6989,3.6989,3.6968,3.6783,3.6661,3.649,3.6433,3.6277,3.5701,3.5197,3.48,3.4231,3.3438,3.2645,3.2162,3.1852,3.18,3.18,3.1781,3.1781,3.1764,3.1781,3.1781,3.1707,3.1596,3.1502,3.1426,3.1351,3.1312,3.1274,3.1198,3.1111,3.0801,3.019,2.949,2.8757,2.8283,4.1029,4.0918,4.0793,4.0721,4.0648,4.0436,4.0313,4.0263,4.0146,4.0113,4.0113,4.0113,4.0113,4.0113,4.0113,4.0113,4.0113,4.0113,4.0113,4.0113,4.0113,4.0113,4.0113,4.0113,4.0113,4.0113,4.0113,4.0113,4.0113,4.0113,4.0113,4.0113,4.0113,4.0196,4.0412,4.051,4.0631,4.0799,4.0871,4.0894,4.0843,4.067,4.0152,3.9094,3.8237,3.769,3.7457,3.7015,3.6786,3.695,3.6989,3.6989,3.6989,3.6989,3.6989,3.6989,3.6989,3.6989,3.6989,3.6989,3.6989,3.6989,3.6989,3.6989,3.6989,3.6989,3.6989,3.6989,3.6989,3.6989,3.6989,3.6989,3.6989,3.6989,3.6989,3.6989,3.6989,3.6989,3.6989,3.6989,3.6987,3.6928,3.6803,3.6681,3.6523,3.6385,3.6063,3.5628,3.5283,3.4611,3.38,3.3007,3.2231,3.199,3.18,3.18,3.18,3.18,3.18,3.18,3.18,3.18,3.1726,3.1632,3.1538,3.1481,3.1443,3.1423,3.1368,3.1259,3.1034,3.0828,3.0228,2.958,2.9201,4.1023,4.0888,4.0769,4.0673,4.0558,4.0404,4.0238,4.0171,4.0138,4.0113,4.0113,4.0113,4.0113,4.0113,4.0113,4.0113,4.0113,4.0113,4.0113,4.0113,4.0113,4.0113,4.0113,4.0113,4.0113,4.0113,4.0113,4.0113,4.0113,4.0113,4.0113,4.0113,4.0113,4.0238,4.0461,4.051,4.0655,4.0823,4.0894,4.0894,4.0894,4.0894,4.0463,3.9681,3.9008,3.8372,3.7671,3.7516,3.7129,3.6976,3.695,3.697,3.6989,3.6989,3.6989,3.6989,3.6989,3.6989,3.6989,3.6989,3.6989,3.6989,3.6989,3.6989,3.6989,3.6989,3.6989,3.6989,3.6989,3.6989,3.6989,3.6989,3.6989,3.6989,3.6989,3.6989,3.6989,3.6989,3.697,3.697,3.6987,3.6926,3.6763,3.6661,3.6544,3.6423,3.6305,3.6042,3.5697,3.5007,3.4214,3.3335,3.2541,3.2041,3.1852,3.18,3.18,3.18,3.18,3.18,3.18,3.18,3.1781,3.1726,3.1651,3.1576,3.1538,3.1519,3.1464,3.1426,3.1285,3.1113,3.0834,3.0457,3.0025,4.1,4.0847,4.0721,4.06,4.0461,4.033,4.0188,4.0096,4.0113,4.0113,4.0113,4.0113,4.0113,4.0113,4.0113,4.0113,4.0113,4.0113,4.0113,4.0113,4.0113,4.0113,4.0113,4.0113,4.0113,4.0113,4.0113,4.0113,4.0113,4.0113,4.0113,4.0113,4.0113,4.0238,4.0461,4.051,4.068,4.0823,4.0894,4.0894,4.0894,4.086,4.0636,3.9957,3.9767,3.9105,3.8374,3.7797,3.7523,3.721,3.7031,3.695,3.697,3.6989,3.6989,3.6989,3.6989,3.6989,3.6989,3.6989,3.6989,3.6989,3.6989,3.6989,3.6989,3.6989,3.6989,3.6989,3.6989,3.6989,3.6989,3.6989,3.6989,3.6989,3.6989,3.6989,3.6989,3.697,3.6968,3.6968,3.6987,3.6886,3.6742,3.6602,3.6502,3.6385,3.6284,3.6284,3.5921,3.5421,3.4645,3.368,3.2869,3.2196,3.1903,3.18,3.18,3.18,3.18,3.18,3.18,3.18,3.1781,3.1781,3.1744,3.167,3.1632,3.1614,3.1559,3.1557,3.1536,3.1413,3.1151,3.0959,3.0666,4.084,4.0697,4.0583,4.0436,4.0313,4.0188,4.0096,4.0096,4.0113,4.0113,4.0113,4.0113,4.0113,4.0113,4.0113,4.0113,4.0113,4.0113,4.0113,4.0113,4.0113,4.0113,4.0113,4.0113,4.0113,4.0113,4.0113,4.0113,4.0113,4.0113,4.0113,4.0113,4.0121,4.0221,4.0485,4.051,4.0631,4.0847,4.0894,4.0894,4.0894,4.0894,4.0808,4.0567,4.0135,3.9658,3.923,3.8499,3.7856,3.7815,3.7213,3.6958,3.697,3.6989,3.6989,3.6989,3.6989,3.6989,3.7025,3.6989,3.6989,3.6989,3.6989,3.6989,3.6989,3.6989,3.6989,3.6989,3.6989,3.6989,3.6989,3.6989,3.6989,3.6989,3.6989,3.6989,3.6989,3.693,3.6928,3.6869,3.6849,3.6788,3.6702,3.6564,3.6444,3.6364,3.6284,3.6284,3.6111,3.5576,3.5076,3.4145,3.3197,3.249,3.2093,3.1972,3.18,3.18,3.18,3.18,3.18,3.18,3.18,3.1781,3.1763,3.1763,3.1726,3.1707,3.1688,3.167,3.1632,3.1557,3.1464,3.1327,3.1174,4.0745,4.0673,4.0461,4.0337,4.0305,4.0163,4.0113,4.0113,4.0113,4.0113,4.0113,4.0113,4.0113,4.0113,4.0113,4.0113,4.0113,4.0113,4.0113,4.0113,4.0113,4.0113,4.0113,4.0113,4.0113,4.0113,4.0113,4.0113,4.0113,4.0113,4.0113,4.0113,4.0096,4.0221,4.0485,4.051,4.0655,4.084,4.0894,4.0894,4.0894,4.0894,4.0894,4.0894,4.0532,4.021,3.9721,3.9391,3.869,3.856,3.8122,3.816,3.8205,3.8281,3.8322,3.8322,3.8322,3.7918,3.7163,3.706,3.7025,3.6989,3.6989,3.6989,3.6989,3.6989,3.6989,3.6989,3.6989,3.6989,3.6989,3.6989,3.6989,3.6989,3.6989,3.697,3.695,3.6891,3.6831,3.6771,3.669,3.6647,3.6602,3.6523,3.6423,3.6343,3.6284,3.6284,3.6059,3.5611,3.5145,3.4628,3.3662,3.2766,3.2421,3.2196,3.1869,3.1817,3.18,3.18,3.18,3.18,3.18,3.18,3.1781,3.1781,3.18,3.1781,3.1744,3.1727,3.1709,3.1653,3.1614,3.1542,3.1386,4.0583,4.0576,4.0362,4.028,4.0238,4.0121,4.0113,4.0113,4.0113,4.0113,4.0113,4.0113,4.0113,4.0113,4.0113,4.0113,4.0113,4.0113,4.0113,4.0113,4.0113,4.0113,4.0113,4.0113,4.0113,4.0113,4.0113,4.0113,4.0113,4.0113,4.0113,4.0113,4.0113,4.0246,4.0419,4.0534,4.0631,4.0871,4.0894,4.0894,4.0894,4.0894,4.0894,4.0894,4.0825,4.0618,4.0118,3.9767,3.942,3.9232,3.8886,3.8802,3.8884,3.8916,3.9014,3.9014,3.9017,3.8725,3.7953,3.7569,3.7235,3.706,3.6989,3.6989,3.6989,3.6989,3.6989,3.6989,3.6989,3.6989,3.6989,3.6989,3.6989,3.6989,3.6989,3.697,3.693,3.6851,3.6751,3.6667,3.6585,3.6506,3.6482,3.6461,3.6402,3.6305,3.6284,3.6284,3.6059,3.5732,3.5404,3.5007,3.4473,3.3473,3.2766,3.2455,3.211,3.1905,3.1869,3.18,3.1818,3.18,3.18,3.18,3.1818,3.18,3.18,3.18,3.18,3.1781,3.1746,3.1781,3.1744,3.1673,3.1618,4.033,4.033,4.0288,4.0255,4.0138,4.0113,4.0113,4.0113,4.0113,4.0113,4.0113,4.0113,4.0113,4.0087,4.0087,4.0087,4.0087,4.0113,4.0113,4.0113,4.0113,4.0113,4.0113,4.0113,4.0113,4.0113,4.0113,4.0113,4.0113,4.0113,4.0113,4.0113,4.0113,4.0288,4.0436,4.0541,4.068,4.0847,4.0894,4.0894,4.0894,4.0894,4.0894,4.0894,4.0894,4.0843,4.075,4.0187,3.9871,3.9766,3.9458,3.9224,3.9382,3.9438,3.952,3.9542,3.9585,3.9343,3.8909,3.8319,3.769,3.7251,3.6989,3.6989,3.6989,3.6989,3.6989,3.6989,3.6989,3.6989,3.6989,3.6989,3.6989,3.695,3.6911,3.6891,3.6851,3.6791,3.6687,3.6564,3.6482,3.6423,3.6402,3.6364,3.6364,3.6284,3.6284,3.6284,3.6284,3.6025,3.5766,3.5456,3.5214,3.4387,3.3231,3.2835,3.2679,3.237,3.2182,3.1974,3.1818,3.1818,3.1873,3.1855,3.1874,3.1837,3.1818,3.1873,3.1873,3.1818,3.18,3.1818,3.1818,3.1746,3.1746,4.0255,4.0188,4.0188,4.0138,4.0113,4.0113,4.0113,4.0113,4.0113,4.0113,4.0113,4.0096,4.0062,3.9986,3.9961,3.9986,3.9986,3.9961,4.0037,4.0087,4.0113,4.0113,4.0113,4.0113,4.0113,4.0113,4.0113,4.0113,4.0113,4.0113,4.0113,4.0113,4.0113,4.0288,4.0436,4.0631,4.0799,4.0847,4.0894,4.0894,4.0894,4.0894,4.0894,4.0894,4.0894,4.0894,4.0843,4.0636,4.0521,4.0429,4.0216,4.0123,4.0105,4.02,4.0244,4.0266,4.0311,4.0141,3.9748,3.9164,3.8494,3.776,3.7323,3.7025,3.7058,3.7007,3.7007,3.6989,3.697,3.6968,3.6987,3.6987,3.6968,3.6891,3.6831,3.6811,3.6751,3.669,3.6609,3.6502,3.6423,3.6343,3.6322,3.6305,3.6284,3.6284,3.6284,3.6284,3.6284,3.6284,3.6025,3.5818,3.5576,3.5249,3.4162,3.3697,3.3352,3.2942,3.2546,3.2462,3.2325,3.2,3.2036,3.2,3.2034,3.2086,3.2104,3.2,3.1947,3.1911,3.1874,3.1856,3.1838,3.1818,3.1837,4.0188,4.0096,4.0113,4.0113,4.0113,4.0113,4.0113,4.0113,4.0113,4.0087,4.0037,4.002,3.9944,3.9858,3.9849,3.9875,3.9901,3.991,3.9986,4.0045,4.0113,4.0113,4.0113,4.0113,4.0113,4.0113,4.0113,4.0113,4.0113,4.0113,4.0113,4.0113,4.0138,4.0263,4.051,4.0752,4.0894,4.0894,4.0894,4.0894,4.0894,4.0894,4.0894,4.0894,4.0894,4.0894,4.0894,4.0808,4.0825,4.0849,4.0855,4.0954,4.1018,4.1123,4.1157,4.118,4.1134,4.089,4.0413,3.9574,3.8989,3.8397,3.7734,3.7439,3.7303,3.7126,3.6911,3.6928,3.6908,3.6926,3.6926,3.6869,3.6866,3.6806,3.6768,3.6728,3.6647,3.6585,3.6506,3.6423,3.6364,3.6305,3.6305,3.6284,3.6284,3.6284,3.6284,3.6284,3.6284,3.6284,3.6249,3.6059,3.5904,3.5559,3.5145,3.4703,3.4224,3.3692,3.3365,3.3266,3.3096,3.2751,3.2717,3.3029,3.2958,3.2578,3.2404,3.2369,3.2176,3.1984,3.1966,3.1965,3.1965,3.1964,3.1946,4.0096,4.0113,4.0113,4.0113,4.0113,4.0113,4.0113,4.0113,4.0087,4.0011,3.991,3.9901,3.9833,3.9729,3.972,3.9746,3.9807,3.9858,3.9935,4.002,4.0096,4.0096,4.0113,4.0113,4.0113,4.0113,4.0113,4.0113,4.0113,4.0113,4.0113,4.0096,4.0121,4.0263,4.0493,4.0776,4.0888,4.0894,4.0894,4.0894,4.0894,4.0894,4.0894,4.0894,4.0894,4.0894,4.0894,4.0894,4.0894,4.0912,4.0912,4.0935,4.0959,4.1047,4.1093,4.1093,4.1157,4.1151,4.1052,3.9708,3.9216,3.9027,3.8381,3.8003,3.7872,3.7484,3.7001,3.7158,3.6978,3.6812,3.6757,3.6722,3.6742,3.6705,3.6684,3.6626,3.6544,3.6464,3.6402,3.6364,3.6343,3.6284,3.6284,3.6284,3.6284,3.6284,3.6284,3.6284,3.6284,3.6284,3.6284,3.6232,3.6094,3.5963,3.5655,3.5526,3.5117,3.4547,3.4189,3.409,3.4023,3.3853,3.3923,3.4129,3.3817,3.3366,3.3016,3.2737,3.2789,3.2841,3.2212,3.209,3.209,3.2055,3.2036,4.0113,4.0113,4.0113,4.0113,4.0113,4.0113,4.0113,4.0087,4.0011,3.9884,3.9781,3.9755,3.9677,3.9616,3.9563,3.959,3.9642,3.9755,3.9816,3.9961,4.0045,4.0096,4.0113,4.0113,4.0113,4.0113,4.0113,4.0113,4.0113,4.0113,4.0113,4.0096,4.0188,4.0337,4.0534,4.0752,4.0894,4.0894,4.0894,4.0894,4.0894,4.0894,4.0894,4.0894,4.0894,4.0894,4.0894,4.0894,4.0894,4.0894,4.0894,4.0894,4.0894,4.0959,4.0959,4.0959,4.0995,4.0995,4.096,4.0372,4.0111,3.9668,3.9094,3.8624,3.8545,3.8419,3.7997,3.7558,3.745,3.7238,3.6841,3.6754,3.6719,3.6602,3.6544,3.6485,3.6402,3.6364,3.6343,3.6322,3.6284,3.6284,3.6284,3.6284,3.6284,3.6284,3.6284,3.6284,3.6284,3.6284,3.6284,3.6284,3.6236,3.6208,3.6094,3.5986,3.5786,3.5305,3.5016,3.4936,3.4869,3.4871,3.4769,3.4769,3.4471,3.4157,3.3841,3.3649,3.3878,3.379,3.3106,3.2475,3.23,3.2213,3.2073,4.0113,4.0096,4.0062,4.0037,4.0037,4.002,3.9995,3.9961,3.9858,3.9755,3.9651,3.9625,3.9563,3.9458,3.9432,3.9475,3.9528,3.9642,3.9781,3.9884,4.0037,4.0087,4.0113,4.0113,4.0113,4.0113,4.0113,4.0113,4.0113,4.0113,4.0113,4.0138,4.0213,4.0362,4.0534,4.0704,4.0847,4.0871,4.0894,4.0894,4.0894,4.0894,4.0894,4.0894,4.0894,4.0894,4.0894,4.0894,4.0894,4.0894,4.0894,4.0894,4.0894,4.0894,4.0894,4.0894,4.0894,4.0894,4.086,4.0866,4.0574,4.0349,3.9671,3.9333,3.9199,3.8938,3.8604,3.8269,3.8126,3.7849,3.745,3.7293,3.722,3.7136,3.7132,3.7107,3.7051,3.7081,3.6805,3.6732,3.6404,3.637,3.6335,3.6284,3.6284,3.6284,3.6284,3.6284,3.6284,3.6284,3.6284,3.6284,3.6343,3.6336,3.6399,3.6467,3.6267,3.5993,3.5846,3.5731,3.5875,3.5877,3.5634,3.539,3.5213,3.5001,3.4704,3.4618,3.4582,3.4371,3.3879,3.3281,3.2703,3.2493,3.2406,4.0113,4.0087,3.9977,3.9901,3.9901,3.9875,3.9807,3.9703,3.9703,3.9642,3.9501,3.9484,3.9448,3.9342,3.9299,3.9379,3.9501,3.9642,3.9772,3.9884,4.0037,4.007,4.0113,4.0113,4.0113,4.0113,4.0113,4.0113,4.0113,4.0113,4.0113,4.0138,4.0188,4.0337,4.0485,4.0631,4.0752,4.0864,4.0894,4.0894,4.0894,4.0894,4.0894,4.0894,4.0894,4.0894,4.0894,4.0894,4.0894,4.0894,4.0894,4.0894,4.0894,4.0894,4.0894,4.0894,4.0894,4.0894,4.0894,4.0894,4.0894,4.0706,4.0262,4.0077,3.9914,3.9574,3.9222,3.894,3.874,3.8627,3.8449,3.838,3.8311,3.8306,3.8306,3.8289,3.822,3.803,3.7668,3.7323,3.6801,3.6611,3.6559,3.649,3.6439,3.6284,3.6284,3.6284,3.6284,3.6284,3.6284,3.6305,3.6364,3.6464,3.6564,3.6667,3.6678,3.6389,3.6573,3.6564,3.6724,3.6689,3.6426,3.6162,3.6039,3.5829,3.5583,3.5302,3.5056,3.481,3.4757,3.4177,3.3632,3.3142,3.2967,3.9935,3.9952,3.9807,3.9772,3.9729,3.9668,3.959,3.9563,3.9537,3.9501,3.9352,3.9352,3.9342,3.9315,3.9315,3.9325,3.9432,3.959,3.9694,3.9833,3.9995,4.0087,4.0113,4.0113,4.0113,4.0113,4.0113,4.0113,4.0113,4.0113,4.0113,4.0113,4.0163,4.0271,4.0419,4.0517,4.0704,4.084,4.0871,4.0894,4.0894,4.0894,4.0894,4.0894,4.0894,4.0894,4.0894,4.0894,4.0894,4.0894,4.0894,4.0894,4.0894,4.0894,4.0894,4.0894,4.0894,4.0894,4.0894,4.0894,4.0894,4.0894,4.0642,4.0682,4.0568,4.0308,3.9905,3.9623,3.9433,3.9341,3.9134,3.9008,3.8991,3.9008,3.9008,3.9014,3.8927,3.8663,3.8301,3.7944,3.7404,3.7198,3.7094,3.6784,3.6715,3.6439,3.6301,3.6335,3.6284,3.6284,3.6305,3.6343,3.6444,3.6544,3.6626,3.6745,3.6829,3.6893,3.6968,3.6989,3.6919,3.6884,3.6972,3.6829,3.6549,3.6513,3.6513,3.6197,3.5829,3.5952,3.5881,3.5214,3.4565,3.4056,3.3617,3.9824,3.9807,3.9694,3.9573,3.9537,3.9458,3.9422,3.9422,3.9405,3.9352,3.9315,3.9315,3.9315,3.9315,3.9315,3.9299,3.9325,3.9573,3.9703,3.9781,3.9986,4.0062,4.0113,4.0113,4.0113,4.0113,4.0113,4.0113,4.0113,4.0113,4.0113,4.0113,4.0113,4.0238,4.0362,4.0485,4.0607,4.0752,4.0847,4.0871,4.0894,4.0894,4.0894,4.0894,4.0894,4.0894,4.0894,4.0894,4.0894,4.0894,4.0894,4.0894,4.0894,4.0894,4.0894,4.0894,4.0894,4.0894,4.0894,4.0894,4.0894,4.0894,4.0894,4.086,4.086,4.0711,4.048,4.029,4.0187,4.0043,3.975,3.9508,3.9543,3.9583,3.9583,3.9583,3.9405,3.9215,3.8905,3.8582,3.8289,3.8047,3.7754,3.7353,3.7077,3.6973,3.6784,3.6628,3.6473,3.6284,3.6343,3.6385,3.6523,3.6643,3.6725,3.6806,3.6888,3.6968,3.697,3.6989,3.6989,3.6989,3.6989,3.6989,3.6954,3.6902,3.6831,3.6884,3.6708,3.6761,3.6673,3.618,3.5495,3.4864,3.4443,3.9677,3.9677,3.9554,3.9405,3.9315,3.9315,3.9299,3.9315,3.9315,3.9315,3.9315,3.9315,3.9315,3.9315,3.9315,3.9315,3.9379,3.9573,3.9703,3.9703,3.9986,4.0113,4.0113,4.0113,4.0113,4.0113,4.0113,4.0113,4.0113,4.0113,4.0113,4.0113,4.0113,4.0188,4.0313,4.0412,4.0534,4.0721,4.0799,4.0847,4.0871,4.0894,4.0894,4.0894,4.0894,4.0894,4.0894,4.0894,4.0894,4.0894,4.0894,4.0894,4.0894,4.0894,4.0894,4.0894,4.0894,4.0894,4.0894,4.0894,4.0894,4.0894,4.0894,4.0894,4.0894,4.0894,4.0722,4.0687,4.0567,4.0549,4.0325,4.0256,4.0273,4.0273,4.0273,4.0273,4.0204,3.9974,3.9715,3.9376,3.8991,3.8767,3.8577,3.8215,3.7801,3.7629,3.7491,3.7249,3.7064,3.6788,3.6592,3.6655,3.6599,3.6702,3.6768,3.6849,3.6948,3.6989,3.6989,3.6989,3.6989,3.6989,3.6989,3.6989,3.6989,3.6989,3.6972,3.6989,3.6989,3.6937,3.6902,3.6954,3.6445,3.5707,3.5251,3.9537,3.9537,3.9405,3.9325,3.9315,3.9315,3.9315,3.9315,3.9315,3.9315,3.9315,3.9315,3.9315,3.9315,3.9315,3.9315,3.9352,3.9573,3.9677,3.9781,3.9986,4.0113,4.0113,4.0113,4.0113,4.0113,4.0113,4.0231,4.035,4.0265,4.0163,4.0163,4.0248,4.0383,4.0399,4.0457,4.0563,4.0641,4.0721,4.0817,4.0864,4.0871,4.0894,4.0894,4.0894,4.0894,4.0894,4.0894,4.0894,4.0894,4.0894,4.0894,4.0894,4.0894,4.0894,4.0894,4.0894,4.0894,4.0894,4.0894,4.0894,4.0894,4.0894,4.0894,4.0894,4.0894,4.0894,4.0894,4.0894,4.0894,4.0894,4.0894,4.0894,4.0894,4.0894,4.0894,4.0894,4.0687,4.0463,4.0112,3.9715,3.9526,3.9353,3.906,3.8612,3.8422,3.8375,3.8237,3.8173,3.7919,3.7292,3.7182,3.6762,3.6777,3.6826,3.6871,3.695,3.6989,3.6989,3.6989,3.6989,3.6989,3.6989,3.6989,3.6989,3.6989,3.6989,3.6989,3.6989,3.6989,3.7009,3.7009,3.7009,3.6466,3.6076,3.9405,3.9405,3.9325,3.9315,3.9315,3.9315,3.9315,3.9315,3.9315,3.9315,3.9315,3.9315,3.9315,3.9315,3.9315,3.9315,3.9352,3.9573,3.9677,3.9781,3.9961,4.0045,4.0113,4.013,4.0113,4.013,4.0536,4.0713,4.0882,4.1111,4.1162,4.1027,4.1027,4.0917,4.0807,4.0739,4.0652,4.0544,4.0658,4.0721,4.0817,4.0864,4.0894,4.0894,4.0894,4.0894,4.0894,4.0894,4.0894,4.0894,4.0894,4.0894,4.0894,4.0894,4.0894,4.0894,4.0894,4.0894,4.0894,4.0894,4.0894,4.0894,4.0894,4.0894,4.0894,4.0894,4.0894,4.0894,4.0894,4.0894,4.0894,4.0894,4.0894,4.0894,4.0894,4.0894,4.0894,4.0808,4.0705,4.0601,4.0359,4.0325,4.0204,4.017,3.9681,3.9146,3.9094,3.8858,3.8846,3.8982,3.8374,3.7905,3.7589,3.7085,3.6926,3.693,3.697,3.6989,3.7042,3.6989,3.6989,3.6989,3.6989,3.6989,3.6989,3.6989,3.6989,3.6989,3.6989,3.6989,3.7029,3.705,3.7068,3.7085,3.677,3.9299,3.9315,3.9315,3.9315,3.9315,3.9315,3.9315,3.9315,3.9315,3.9315,3.9315,3.9315,3.9315,3.9315,3.9315,3.9315,3.9379,3.9573,3.9677,3.9781,3.9986,4.0087,4.0163,4.0231,4.0451,4.0756,4.1119,4.1593,4.1999,4.2016,4.1999,4.2252,4.2168,4.1948,4.1517,4.1239,4.1087,4.0762,4.0673,4.0658,4.0745,4.084,4.0888,4.0894,4.0894,4.0894,4.0894,4.0894,4.0894,4.0894,4.0894,4.0894,4.0894,4.0894,4.0894,4.0894,4.0894,4.0894,4.0894,4.0894,4.0894,4.0894,4.0894,4.0894,4.0894,4.0894,4.0894,4.0894,4.0894,4.0894,4.0894,4.0894,4.0894,4.0894,4.0894,4.0894,4.0894,4.0894,4.0894,4.0894,4.0877,4.0843,4.0843,4.0843,4.0567,4.0008,3.9681,3.9388,3.9278,3.9546,3.9428,3.9068,3.8793,3.8202,3.7547,3.7268,3.7356,3.7235,3.7251,3.7112,3.6989,3.6989,3.6989,3.6989,3.6989,3.6989,3.6989,3.6989,3.6989,3.7009,3.7013,3.7052,3.7164,3.7201,3.7257,3.9315,3.9315,3.9315,3.9315,3.9315,3.9315,3.9315,3.9315,3.9315,3.9315,3.9315,3.9315,3.9315,3.9315,3.9315,3.9315,3.9352,3.9573,3.9677,3.9755,3.9986,4.0087,4.035,4.0798,4.1305,4.1694,4.1965,4.2168,4.2726,4.2557,4.2354,4.2455,4.2405,4.2252,4.2083,4.1756,4.129,4.0959,4.0593,4.0478,4.0673,4.0793,4.0871,4.0894,4.0894,4.0894,4.0894,4.0894,4.0894,4.0894,4.0894,4.0894,4.0894,4.0894,4.0894,4.0894,4.0894,4.0894,4.0894,4.0894,4.0894,4.0894,4.0894,4.0894,4.0894,4.0894,4.0894,4.0894,4.0894,4.0894,4.0894,4.0894,4.0894,4.0894,4.0894,4.0894,4.0894,4.0894,4.0894,4.0894,4.0894,4.0877,4.0877,4.0877,4.086,4.0491,4.0474,4.0221,4.0176,4.0314,4.0363,4.0144,3.9874,3.9536,3.9024,3.8128,3.7953,3.7725,3.7496,3.7356,3.7198,3.7007,3.6989,3.6989,3.6989,3.6989,3.6989,3.6989,3.7029,3.705,3.7034,3.7055,3.7185,3.7314,3.7371]}]]